| time (UTC) | temp F | wind direction | speed knots | gust knots | rain 1hr in | rain 24hr in | rain mn in | humidity % | barometer mb |
| 20260508023852 | 58 | 342 | 4.3 | 7.0 | 0.00 | 0.00 | 0.00 | 56 | 1012.5 |
| 20260508023729 | 58 | 330 | 4.3 | 7.0 | 0.00 | 0.00 | 0.00 | 58 | 1012.5 |
| 20260508023627 | 58 | 336 | 3.5 | 7.0 | 0.00 | 0.00 | 0.00 | 57 | 1012.5 |
| 20260508023526 | 58 | 333 | 5.2 | 7.0 | 0.00 | 0.00 | 0.00 | 57 | 1012.5 |
| 20260508023426 | 58 | 330 | 4.3 | 7.0 | 0.00 | 0.00 | 0.00 | 57 | 1012.5 |
| 20260508023324 | 58 | 332 | 4.3 | 7.0 | 0.00 | 0.00 | 0.00 | 57 | 1012.5 |
| 20260508023243 | 58 | 93 | 4.3 | 7.0 | 0.00 | 0.00 | 0.00 | 57 | 1012.5 |
| 20260508023158 | 58 | 336 | 3.5 | 7.0 | 0.00 | 0.00 | 0.00 | 57 | 1012.5 |
| 20260508023055 | 58 | 329 | 4.3 | 7.0 | 0.00 | 0.00 | 0.00 | 57 | 1012.5 |
| 20260508022932 | 58 | 85 | 4.3 | 7.0 | 0.00 | 0.00 | 0.00 | 58 | 1012.5 |
| 20260508022830 | 58 | 282 | 5.2 | 7.0 | 0.00 | 0.00 | 0.00 | 59 | 1012.3 |
| 20260508022749 | 58 | 332 | 2.6 | 7.0 | 0.00 | 0.00 | 0.00 | 59 | 1012.3 |
| 20260508022628 | 58 | 336 | 4.3 | 7.0 | 0.00 | 0.00 | 0.00 | 59 | 1012.3 |
| 20260508022526 | 58 | 349 | 5.2 | 7.0 | 0.00 | 0.00 | 0.00 | 58 | 1012.3 |
| 20260508022424 | 58 | 306 | 3.5 | 7.0 | 0.00 | 0.00 | 0.00 | 57 | 1012.3 |
| 20260508022327 | 58 | 102 | 2.6 | 7.0 | 0.00 | 0.00 | 0.00 | 57 | 1012.3 |
| 20260508022226 | 58 | 330 | 6.1 | 7.0 | 0.00 | 0.00 | 0.00 | 56 | 1012.3 |
| 20260508022124 | 58 | 329 | 4.3 | 7.0 | 0.00 | 0.00 | 0.00 | 56 | 1012.3 |
| 20260508022042 | 58 | 329 | 4.3 | 7.0 | 0.00 | 0.00 | 0.00 | 57 | 1012.3 |
| 20260508021941 | 58 | 330 | 3.5 | 7.0 | 0.00 | 0.00 | 0.00 | 57 | 1012.3 |
| 20260508021838 | 58 | 332 | 3.5 | 7.0 | 0.00 | 0.00 | 0.00 | 57 | 1012.3 |
| 20260508021736 | 58 | 332 | 5.2 | 7.0 | 0.00 | 0.00 | 0.00 | 56 | 1012.3 |
| 20260508021644 | 58 | 333 | 4.3 | 7.0 | 0.00 | 0.00 | 0.00 | 56 | 1012.3 |
| 20260508021527 | 58 | 325 | 5.2 | 7.0 | 0.00 | 0.00 | 0.00 | 57 | 1012.3 |
| 20260508021445 | 58 | 326 | 5.2 | 7.0 | 0.00 | 0.00 | 0.00 | 58 | 1012.3 |
| 20260508021342 | 58 | 333 | 4.3 | 7.0 | 0.00 | 0.00 | 0.00 | 57 | 1012.3 |
| 20260508021240 | 58 | 329 | 5.2 | 7.0 | 0.00 | 0.00 | 0.00 | 58 | 1012.3 |
| 20260508021139 | 58 | 333 | 5.2 | 7.0 | 0.00 | 0.00 | 0.00 | 56 | 1012.3 |
| 20260508021038 | 58 | 332 | 2.6 | 7.0 | 0.00 | 0.00 | 0.00 | 58 | 1012.3 |
| 20260508020937 | 58 | 339 | 2.6 | 7.0 | 0.00 | 0.00 | 0.00 | 58 | 1012.3 |
| 20260508020838 | 58 | 330 | 3.5 | 7.0 | 0.00 | 0.00 | 0.00 | 58 | 1012.3 |
| 20260508020736 | 58 | 328 | 4.3 | 7.0 | 0.00 | 0.00 | 0.00 | 57 | 1012.3 |
| 20260508020635 | 58 | 335 | 4.3 | 7.0 | 0.00 | 0.00 | 0.00 | 58 | 1012.3 |
| 20260508020534 | 58 | 326 | 6.1 | 7.0 | 0.00 | 0.00 | 0.00 | 57 | 1012.3 |
| 20260508020453 | 58 | 330 | 4.3 | 6.1 | 0.00 | 0.00 | 0.00 | 56 | 1012.3 |
| 20260508020330 | 58 | 332 | 4.3 | 6.1 | 0.00 | 0.00 | 0.00 | 57 | 1012.3 |
| 20260508020228 | 58 | 339 | 5.2 | 6.1 | 0.00 | 0.00 | 0.00 | 57 | 1012.3 |
| 20260508020158 | 58 | 332 | 5.2 | 6.1 | 0.00 | 0.00 | 0.00 | 57 | 1012.3 |
| 20260508020039 | 58 | 332 | 4.3 | 6.1 | 0.00 | 0.00 | 0.00 | 56 | 1012.3 |
| 20260508015938 | 58 | 344 | 3.5 | 7.0 | 0.00 | 0.00 | 0.00 | 57 | 1012.3 |
| 20260508015837 | 58 | 330 | 4.3 | 7.0 | 0.00 | 0.00 | 0.00 | 59 | 1012.1 |
| 20260508015736 | 58 | 332 | 4.3 | 7.0 | 0.00 | 0.00 | 0.00 | 59 | 1012.1 |
| 20260508015634 | 58 | 333 | 3.5 | 7.0 | 0.00 | 0.00 | 0.00 | 59 | 1012.1 |
| 20260508015532 | 58 | 328 | 3.5 | 7.0 | 0.00 | 0.00 | 0.00 | 59 | 1012.1 |
| 20260508015434 | 58 | 332 | 2.6 | 7.0 | 0.00 | 0.00 | 0.00 | 60 | 1012.1 |
| 20260508015332 | 58 | 323 | 3.5 | 7.0 | 0.00 | 0.00 | 0.00 | 60 | 1012.1 |
| 20260508015229 | 58 | 340 | 3.5 | 7.0 | 0.00 | 0.00 | 0.00 | 59 | 1012.1 |
| 20260508015129 | 58 | 332 | 4.3 | 8.7 | 0.00 | 0.00 | 0.00 | 59 | 1012.1 |
| 20260508015028 | 58 | 330 | 3.5 | 8.7 | 0.00 | 0.00 | 0.00 | 59 | 1012.1 |
| 20260508014927 | 58 | 329 | 2.6 | 8.7 | 0.00 | 0.00 | 0.00 | 59 | 1012.1 |
| 20260508014826 | 58 | 339 | 4.3 | 8.7 | 0.00 | 0.00 | 0.00 | 59 | 1012.1 |
| 20260508014745 | 58 | 332 | 4.3 | 8.7 | 0.00 | 0.00 | 0.00 | 59 | 1012.1 |
| 20260508014718 | 58 | 332 | 4.3 | 8.7 | 0.00 | 0.00 | 0.00 | 59 | 1012.1 |
| 20260508014538 | 58 | 329 | 5.2 | 8.7 | 0.00 | 0.00 | 0.00 | 59 | 1012.1 |
| 20260508014438 | 58 | 347 | 4.3 | 8.7 | 0.00 | 0.00 | 0.00 | 59 | 1012.1 |
| 20260508014358 | 58 | 339 | 4.3 | 8.7 | 0.00 | 0.00 | 0.00 | 60 | 1012.0 |
| 20260508014236 | 58 | 332 | 6.1 | 8.7 | 0.00 | 0.00 | 0.00 | 60 | 1012.0 |
| 20260508014135 | 58 | 332 | 4.3 | 7.0 | 0.00 | 0.00 | 0.00 | 61 | 1012.0 |
| 20260508014033 | 58 | 332 | 4.3 | 7.0 | 0.00 | 0.00 | 0.00 | 60 | 1012.0 |
| 20260508013935 | 58 | 329 | 2.6 | 7.0 | 0.00 | 0.00 | 0.00 | 60 | 1012.0 |
| 20260508013833 | 58 | 336 | 4.3 | 7.0 | 0.00 | 0.00 | 0.00 | 60 | 1012.0 |
| 20260508013732 | 58 | 335 | 5.2 | 7.8 | 0.00 | 0.00 | 0.00 | 59 | 1012.0 |
| 20260508013629 | 58 | 332 | 5.2 | 7.8 | 0.00 | 0.00 | 0.00 | 60 | 1012.0 |
| 20260508013528 | 58 | 344 | 5.2 | 7.8 | 0.00 | 0.00 | 0.00 | 60 | 1012.0 |
| 20260508013427 | 58 | 339 | 5.2 | 7.8 | 0.00 | 0.00 | 0.00 | 61 | 1012.0 |
| 20260508013325 | 58 | 332 | 3.5 | 7.8 | 0.00 | 0.00 | 0.00 | 62 | 1012.0 |
| 20260508013227 | 58 | 329 | 5.2 | 7.8 | 0.00 | 0.00 | 0.00 | 61 | 1012.0 |
| 20260508013158 | 58 | 339 | 3.5 | 7.8 | 0.00 | 0.00 | 0.00 | 61 | 1012.0 |
| 20260508013035 | 58 | 339 | 5.2 | 7.8 | 0.00 | 0.00 | 0.00 | 62 | 1012.0 |
| 20260508012934 | 58 | 332 | 4.3 | 7.8 | 0.00 | 0.00 | 0.00 | 62 | 1012.0 |
| 20260508012831 | 58 | 333 | 3.5 | 8.7 | 0.00 | 0.00 | 0.00 | 62 | 1011.8 |
| 20260508012734 | 58 | 339 | 4.3 | 8.7 | 0.00 | 0.00 | 0.00 | 61 | 1011.8 |
| 20260508012632 | 58 | 330 | 3.5 | 8.7 | 0.00 | 0.00 | 0.00 | 61 | 1011.8 |
| 20260508012535 | 58 | 333 | 3.5 | 8.7 | 0.00 | 0.00 | 0.00 | 61 | 1011.8 |
| 20260508012434 | 58 | 326 | 4.3 | 8.7 | 0.00 | 0.00 | 0.00 | 60 | 1011.8 |
| 20260508012332 | 58 | 339 | 4.3 | 8.7 | 0.00 | 0.00 | 0.00 | 60 | 1011.8 |
| 20260508012232 | 58 | 330 | 4.3 | 8.7 | 0.00 | 0.00 | 0.00 | 60 | 1011.8 |
| 20260508012128 | 58 | 329 | 1.7 | 8.7 | 0.00 | 0.00 | 0.00 | 59 | 1011.8 |
| 20260508012027 | 58 | 344 | 5.2 | 8.7 | 0.00 | 0.00 | 0.00 | 60 | 1011.8 |
| 20260508011927 | 58 | 340 | 3.5 | 7.0 | 0.00 | 0.00 | 0.00 | 60 | 1011.8 |
| 20260508011831 | 58 | 328 | 5.2 | 7.0 | 0.00 | 0.00 | 0.00 | 60 | 1011.8 |
| 20260508011749 | 58 | 330 | 5.2 | 7.0 | 0.00 | 0.00 | 0.00 | 61 | 1011.8 |
| 20260508011719 | 58 | 323 | 4.3 | 7.0 | 0.00 | 0.00 | 0.00 | 62 | 1011.8 |
| 20260508011536 | 58 | 332 | 3.5 | 7.0 | 0.00 | 0.00 | 0.00 | 62 | 1011.8 |
| 20260508011434 | 58 | 333 | 1.7 | 6.1 | 0.00 | 0.00 | 0.00 | 61 | 1011.8 |
| 20260508011332 | 58 | 329 | 4.3 | 6.1 | 0.00 | 0.00 | 0.00 | 60 | 1011.5 |
| 20260508011232 | 58 | 332 | 2.6 | 7.0 | 0.00 | 0.00 | 0.00 | 62 | 1011.5 |
| 20260508011150 | 58 | 340 | 3.5 | 7.0 | 0.00 | 0.00 | 0.00 | 62 | 1011.5 |
| 20260508011030 | 58 | 329 | 1.7 | 7.0 | 0.00 | 0.00 | 0.00 | 62 | 1011.5 |
| 20260508010928 | 58 | 329 | 4.3 | 8.7 | 0.00 | 0.00 | 0.00 | 61 | 1011.5 |
| 20260508010827 | 58 | 329 | 3.5 | 8.7 | 0.00 | 0.00 | 0.00 | 61 | 1011.5 |
| 20260508010725 | 58 | 332 | 3.5 | 8.7 | 0.00 | 0.00 | 0.00 | 60 | 1011.5 |
| 20260508010624 | 58 | 332 | 5.2 | 8.7 | 0.00 | 0.00 | 0.00 | 60 | 1011.5 |
| 20260508010542 | 58 | 332 | 4.3 | 8.7 | 0.00 | 0.00 | 0.00 | 60 | 1011.5 |
| 20260508010442 | 58 | 336 | 4.3 | 8.7 | 0.00 | 0.00 | 0.00 | 61 | 1011.5 |
| 20260508010324 | 58 | 332 | 4.3 | 8.7 | 0.00 | 0.00 | 0.00 | 60 | 1011.5 |
| 20260508010243 | 58 | 335 | 4.3 | 8.7 | 0.00 | 0.00 | 0.00 | 60 | 1011.5 |
| 20260508010214 | 58 | 332 | 6.1 | 8.7 | 0.00 | 0.00 | 0.00 | 60 | 1011.5 |
| 20260508010049 | 58 | 332 | 3.5 | 7.0 | 0.00 | 0.00 | 0.00 | 60 | 1011.5 |
| 20260508005929 | 58 | 330 | 4.3 | 7.0 | 0.00 | 0.00 | 0.00 | 61 | 1011.5 |
| 20260508005828 | 58 | 330 | 2.6 | 7.0 | 0.00 | 0.00 | 0.00 | 62 | 1011.6 |
| 20260508005726 | 58 | 337 | 3.5 | 7.0 | 0.00 | 0.00 | 0.00 | 62 | 1011.6 |
| 20260508005628 | 58 | 332 | 4.3 | 7.0 | 0.00 | 0.00 | 0.00 | 62 | 1011.6 |
| 20260508005531 | 58 | 326 | 3.5 | 7.0 | 0.00 | 0.00 | 0.00 | 62 | 1011.6 |
| 20260508005454 | 58 | 333 | 5.2 | 7.0 | 0.00 | 0.00 | 0.00 | 62 | 1011.6 |
| 20260508005331 | 58 | 330 | 1.7 | 7.0 | 0.00 | 0.00 | 0.00 | 61 | 1011.6 |
| 20260508005253 | 58 | 332 | 2.6 | 7.0 | 0.00 | 0.00 | 0.00 | 62 | 1011.6 |
| 20260508005131 | 58 | 332 | 3.5 | 7.0 | 0.00 | 0.00 | 0.00 | 62 | 1011.6 |
| 20260508005029 | 58 | 332 | 2.6 | 7.0 | 0.00 | 0.00 | 0.00 | 62 | 1011.6 |
| 20260508004929 | 58 | 333 | 4.3 | 7.0 | 0.00 | 0.00 | 0.00 | 61 | 1011.6 |
| 20260508004831 | 58 | 332 | 5.2 | 7.0 | 0.00 | 0.00 | 0.00 | 63 | 1011.6 |
| 20260508004802 | 58 | 332 | 4.3 | 7.0 | 0.00 | 0.00 | 0.00 | 63 | 1011.6 |
| 20260508004651 | 58 | 330 | 4.3 | 7.0 | 0.00 | 0.00 | 0.00 | 63 | 1011.6 |
| 20260508004529 | 59 | 332 | 3.5 | 6.1 | 0.00 | 0.00 | 0.00 | 63 | 1011.6 |
| 20260508004447 | 59 | 332 | 1.7 | 6.1 | 0.00 | 0.00 | 0.00 | 63 | 1011.6 |
| 20260508004405 | 59 | 332 | 3.5 | 6.1 | 0.00 | 0.00 | 0.00 | 63 | 1011.6 |
| 20260508004242 | 59 | 332 | 1.7 | 6.1 | 0.00 | 0.00 | 0.00 | 63 | 1011.6 |
| 20260508004202 | 59 | 332 | 3.5 | 6.1 | 0.00 | 0.00 | 0.00 | 63 | 1011.6 |
| 20260508004040 | 59 | 333 | 3.5 | 6.1 | 0.00 | 0.00 | 0.00 | 63 | 1011.6 |
| 20260508003943 | 59 | 332 | 2.6 | 6.1 | 0.00 | 0.00 | 0.00 | 64 | 1011.6 |
| 20260508003902 | 59 | 332 | 3.5 | 6.1 | 0.00 | 0.00 | 0.00 | 65 | 1011.6 |
| 20260508003739 | 59 | 332 | 3.5 | 6.1 | 0.00 | 0.00 | 0.00 | 64 | 1011.6 |
| 20260508003636 | 59 | 326 | 3.5 | 6.1 | 0.00 | 0.00 | 0.00 | 63 | 1011.6 |
| 20260508003535 | 59 | 335 | 3.5 | 6.1 | 0.00 | 0.00 | 0.00 | 63 | 1011.6 |
| 20260508003433 | 59 | 332 | 4.3 | 6.1 | 0.00 | 0.00 | 0.00 | 63 | 1011.6 |
| 20260508003331 | 59 | 326 | 3.5 | 6.1 | 0.00 | 0.00 | 0.00 | 63 | 1011.6 |
| 20260508003234 | 59 | 330 | 3.5 | 6.1 | 0.00 | 0.00 | 0.00 | 64 | 1011.6 |
| 20260508003205 | 59 | 332 | 2.6 | 6.1 | 0.00 | 0.00 | 0.00 | 64 | 1011.6 |
| 20260508003042 | 59 | 332 | 2.6 | 6.1 | 0.00 | 0.00 | 0.00 | 64 | 1011.6 |
| 20260508002939 | 59 | 330 | 2.6 | 6.1 | 0.00 | 0.00 | 0.00 | 64 | 1011.6 |
| 20260508002837 | 59 | 326 | 1.7 | 6.1 | 0.00 | 0.00 | 0.00 | 64 | 1011.2 |
| 20260508002736 | 59 | 332 | 3.5 | 6.1 | 0.00 | 0.00 | 0.00 | 64 | 1011.2 |
| 20260508002634 | 59 | 332 | 3.5 | 6.1 | 0.00 | 0.00 | 0.00 | 63 | 1011.2 |
| 20260508002553 | 59 | 332 | 5.2 | 6.1 | 0.00 | 0.00 | 0.00 | 63 | 1011.2 |
| 20260508002434 | 59 | 330 | 3.5 | 7.0 | 0.00 | 0.00 | 0.00 | 62 | 1011.2 |
| 20260508002333 | 59 | 332 | 2.6 | 7.0 | 0.00 | 0.00 | 0.00 | 62 | 1011.2 |
| 20260508002231 | 59 | 330 | 3.5 | 7.0 | 0.00 | 0.00 | 0.00 | 62 | 1011.2 |
| 20260508002130 | 59 | 332 | 2.6 | 7.0 | 0.00 | 0.00 | 0.00 | 62 | 1011.2 |
| 20260508002028 | 59 | 330 | 4.3 | 7.0 | 0.00 | 0.00 | 0.00 | 62 | 1011.2 |
| 20260508001926 | 59 | 332 | 2.6 | 7.0 | 0.00 | 0.00 | 0.00 | 62 | 1011.2 |
| 20260508001830 | 59 | 325 | 3.5 | 7.0 | 0.00 | 0.00 | 0.00 | 62 | 1011.2 |
| 20260508001739 | 59 | 330 | 4.3 | 7.0 | 0.00 | 0.00 | 0.00 | 61 | 1011.2 |
| 20260508001648 | 59 | 333 | 4.3 | 7.0 | 0.00 | 0.00 | 0.00 | 61 | 1011.2 |
| 20260508001526 | 59 | 322 | 3.5 | 7.0 | 0.00 | 0.00 | 0.00 | 62 | 1011.2 |
| 20260508001424 | 59 | 330 | 3.5 | 7.0 | 0.00 | 0.00 | 0.00 | 62 | 1011.2 |
| 20260508001342 | 59 | 332 | 4.3 | 7.0 | 0.00 | 0.00 | 0.00 | 62 | 1011.0 |
| 20260508001240 | 59 | 332 | 3.5 | 7.0 | 0.00 | 0.00 | 0.00 | 61 | 1011.0 |
| 20260508001138 | 59 | 332 | 4.3 | 7.0 | 0.00 | 0.00 | 0.00 | 62 | 1011.0 |
| 20260508001101 | 59 | 328 | 4.3 | 7.0 | 0.00 | 0.00 | 0.00 | 63 | 1011.0 |
| 20260508000939 | 59 | 332 | 5.2 | 7.0 | 0.00 | 0.00 | 0.00 | 62 | 1011.0 |
| 20260508000837 | 59 | 335 | 3.5 | 7.0 | 0.00 | 0.00 | 0.00 | 63 | 1011.0 |
| 20260508000735 | 59 | 332 | 3.5 | 7.0 | 0.00 | 0.00 | 0.00 | 62 | 1011.0 |
| 20260508000633 | 59 | 330 | 2.6 | 7.0 | 0.00 | 0.00 | 0.00 | 62 | 1011.0 |
| 20260508000533 | 59 | 332 | 2.6 | 7.0 | 0.00 | 0.00 | 0.00 | 61 | 1011.0 |
| 20260508000452 | 59 | 330 | 2.6 | 7.0 | 0.00 | 0.00 | 0.00 | 62 | 1011.0 |
| 20260508000334 | 59 | 332 | 3.5 | 7.0 | 0.00 | 0.00 | 0.00 | 62 | 1011.0 |
| 20260508000234 | 60 | 332 | 2.6 | 7.0 | 0.00 | 0.00 | 0.00 | 62 | 1011.0 |
| 20260508000205 | 60 | 330 | 3.5 | 7.0 | 0.00 | 0.00 | 0.00 | 62 | 1011.0 |
| 20260508000041 | 60 | 329 | 3.5 | 6.1 | 0.00 | 0.00 | 0.00 | 62 | 1011.0 |
| 20260507235940 | 60 | 329 | 5.2 | 6.1 | 0.00 | 0.00 | 0.00 | 62 | 1011.0 |
| 20260507235858 | 60 | 332 | 2.6 | 6.1 | 0.00 | 0.00 | 0.00 | 62 | 1011.0 |
| 20260507235736 | 60 | 330 | 2.6 | 7.0 | 0.00 | 0.00 | 0.00 | 62 | 1011.0 |
| 20260507235633 | 60 | 329 | 2.6 | 7.0 | 0.00 | 0.00 | 0.00 | 62 | 1011.0 |
| 20260507235536 | 60 | 332 | 3.5 | 7.0 | 0.00 | 0.00 | 0.00 | 62 | 1011.0 |
| 20260507235439 | 60 | 333 | 4.3 | 7.0 | 0.00 | 0.00 | 0.00 | 62 | 1011.0 |
| 20260507235337 | 60 | 329 | 3.5 | 7.0 | 0.00 | 0.00 | 0.00 | 62 | 1011.0 |
| 20260507235235 | 60 | 323 | 3.5 | 7.0 | 0.00 | 0.00 | 0.00 | 62 | 1011.0 |
| 20260507235133 | 60 | 329 | 3.5 | 7.0 | 0.00 | 0.00 | 0.00 | 61 | 1011.0 |
| 20260507235030 | 60 | 332 | 3.5 | 7.0 | 0.00 | 0.00 | 0.00 | 61 | 1011.0 |
| 20260507234929 | 60 | 330 | 4.3 | 7.0 | 0.00 | 0.00 | 0.00 | 62 | 1011.0 |
| 20260507234832 | 60 | 329 | 3.5 | 5.2 | 0.00 | 0.00 | 0.00 | 61 | 1011.0 |
| 20260507234740 | 60 | 330 | 3.5 | 5.2 | 0.00 | 0.00 | 0.00 | 62 | 1011.0 |
| 20260507234648 | 60 | 323 | 3.5 | 5.2 | 0.00 | 0.00 | 0.00 | 63 | 1011.0 |
| 20260507234527 | 60 | 320 | 1.7 | 5.2 | 0.00 | 0.00 | 0.00 | 62 | 1011.0 |
| 20260507234447 | 60 | 328 | 2.6 | 6.1 | 0.00 | 0.00 | 0.00 | 62 | 1011.0 |
| 20260507234325 | 60 | 329 | 3.5 | 6.1 | 0.00 | 0.00 | 0.00 | 61 | 1010.9 |
| 20260507234244 | 60 | 328 | 3.5 | 6.1 | 0.00 | 0.00 | 0.00 | 61 | 1010.9 |
| 20260507234204 | 60 | 333 | 2.6 | 6.1 | 0.00 | 0.00 | 0.00 | 62 | 1010.9 |
| 20260507234045 | 60 | 332 | 3.5 | 6.1 | 0.00 | 0.00 | 0.00 | 63 | 1010.9 |
| 20260507233943 | 60 | 330 | 1.7 | 6.1 | 0.00 | 0.00 | 0.00 | 64 | 1010.9 |
| 20260507233841 | 60 | 325 | 2.6 | 6.1 | 0.00 | 0.00 | 0.00 | 63 | 1010.9 |
| 20260507233739 | 60 | 328 | 4.3 | 6.1 | 0.00 | 0.00 | 0.00 | 63 | 1010.9 |
| 20260507233636 | 60 | 330 | 5.2 | 6.1 | 0.00 | 0.00 | 0.00 | 62 | 1010.9 |
| 20260507233554 | 60 | 323 | 3.5 | 6.1 | 0.00 | 0.00 | 0.00 | 62 | 1010.9 |
| 20260507233431 | 60 | 329 | 3.5 | 6.1 | 0.00 | 0.00 | 0.00 | 62 | 1010.9 |
| 20260507233329 | 60 | 335 | 5.2 | 6.1 | 0.00 | 0.00 | 0.00 | 64 | 1010.9 |
| 20260507233238 | 60 | 328 | 3.5 | 7.0 | 0.00 | 0.00 | 0.00 | 63 | 1010.9 |
| 20260507233152 | 60 | 343 | 1.7 | 7.0 | 0.00 | 0.00 | 0.00 | 63 | 1010.9 |
| 20260507233048 | 60 | 328 | 1.7 | 7.0 | 0.00 | 0.00 | 0.00 | 63 | 1010.9 |
| 20260507232946 | 60 | 337 | 3.5 | 7.0 | 0.00 | 0.00 | 0.00 | 63 | 1010.9 |
| 20260507232904 | 60 | 328 | 2.6 | 7.0 | 0.00 | 0.00 | 0.00 | 63 | 1010.9 |
| 20260507232742 | 60 | 328 | 2.6 | 7.0 | 0.00 | 0.00 | 0.00 | 63 | 1010.9 |
| 20260507232659 | 60 | 330 | 2.6 | 7.0 | 0.00 | 0.00 | 0.00 | 62 | 1010.9 |
| 20260507232537 | 60 | 330 | 2.6 | 7.0 | 0.00 | 0.00 | 0.00 | 62 | 1010.9 |
| 20260507232456 | 61 | 330 | 4.3 | 7.0 | 0.00 | 0.00 | 0.00 | 62 | 1010.9 |
| 20260507232333 | 61 | 329 | 0.9 | 7.0 | 0.00 | 0.00 | 0.00 | 63 | 1010.9 |
| 20260507232253 | 61 | 339 | 2.6 | 7.0 | 0.00 | 0.00 | 0.00 | 61 | 1010.9 |
| 20260507232135 | 61 | 325 | 4.3 | 7.8 | 0.00 | 0.00 | 0.00 | 61 | 1010.9 |
| 20260507232032 | 61 | 330 | 2.6 | 7.8 | 0.00 | 0.00 | 0.00 | 60 | 1010.9 |
| 20260507231932 | 61 | 337 | 2.6 | 7.8 | 0.00 | 0.00 | 0.00 | 62 | 1010.9 |
| 20260507231831 | 61 | 335 | 5.2 | 7.8 | 0.00 | 0.00 | 0.00 | 62 | 1010.9 |
| 20260507231729 | 61 | 330 | 1.7 | 7.8 | 0.00 | 0.00 | 0.00 | 61 | 1010.9 |
| 20260507231659 | 61 | 332 | 3.5 | 7.8 | 0.00 | 0.00 | 0.00 | 61 | 1010.9 |
| 20260507231537 | 61 | 340 | 4.3 | 7.8 | 0.00 | 0.00 | 0.00 | 62 | 1010.9 |
| 20260507231438 | 61 | 322 | 3.5 | 7.8 | 0.00 | 0.00 | 0.00 | 62 | 1010.9 |
| 20260507231337 | 61 | 326 | 3.5 | 7.8 | 0.00 | 0.00 | 0.00 | 62 | 1010.8 |
| 20260507231236 | 61 | 333 | 5.2 | 7.8 | 0.00 | 0.00 | 0.00 | 62 | 1010.8 |
| 20260507231134 | 61 | 330 | 3.5 | 7.8 | 0.00 | 0.00 | 0.00 | 62 | 1010.8 |
| 20260507231033 | 61 | 330 | 3.5 | 7.8 | 0.00 | 0.00 | 0.00 | 62 | 1010.8 |
| 20260507230930 | 61 | 330 | 2.6 | 7.8 | 0.00 | 0.00 | 0.00 | 62 | 1010.8 |
| 20260507230849 | 61 | 330 | 3.5 | 7.8 | 0.00 | 0.00 | 0.00 | 62 | 1010.8 |
| 20260507230730 | 61 | 332 | 4.3 | 8.7 | 0.00 | 0.00 | 0.00 | 62 | 1010.8 |
| 20260507230628 | 61 | 329 | 2.6 | 9.6 | 0.00 | 0.00 | 0.00 | 62 | 1010.8 |
| 20260507230528 | 61 | 329 | 3.5 | 9.6 | 0.00 | 0.00 | 0.00 | 63 | 1010.8 |
| 20260507230430 | 61 | 328 | 2.6 | 9.6 | 0.00 | 0.00 | 0.00 | 63 | 1010.8 |
| 20260507230329 | 61 | 350 | 4.3 | 9.6 | 0.00 | 0.00 | 0.00 | 62 | 1010.8 |
| 20260507230238 | 61 | 330 | 2.6 | 9.6 | 0.00 | 0.00 | 0.00 | 62 | 1010.8 |
| 20260507230148 | 61 | 332 | 3.5 | 9.6 | 0.00 | 0.00 | 0.00 | 62 | 1010.8 |
| 20260507230028 | 61 | 328 | 5.2 | 9.6 | 0.00 | 0.00 | 0.00 | 62 | 1010.8 |
| 20260507225927 | 61 | 330 | 3.5 | 9.6 | 0.00 | 0.00 | 0.00 | 63 | 1010.8 |
| 20260507225827 | 61 | 330 | 4.3 | 9.6 | 0.00 | 0.00 | 0.00 | 62 | 1010.9 |
| 20260507225745 | 61 | 329 | 1.7 | 7.8 | 0.00 | 0.00 | 0.00 | 62 | 1010.9 |
| 20260507225704 | 61 | 343 | 1.7 | 7.8 | 0.00 | 0.00 | 0.00 | 62 | 1010.9 |
| 20260507225602 | 61 | 328 | 1.7 | 7.8 | 0.00 | 0.00 | 0.00 | 62 | 1010.9 |
| 20260507225500 | 61 | 325 | 3.5 | 7.8 | 0.00 | 0.00 | 0.00 | 62 | 1010.9 |
| 20260507225337 | 61 | 328 | 1.7 | 7.8 | 0.00 | 0.00 | 0.00 | 62 | 1010.9 |
| 20260507225234 | 61 | 329 | 3.5 | 7.8 | 0.00 | 0.00 | 0.00 | 63 | 1010.9 |
| 20260507225136 | 61 | 320 | 3.5 | 7.8 | 0.00 | 0.00 | 0.00 | 63 | 1010.9 |
| 20260507225054 | 61 | 326 | 4.3 | 7.8 | 0.00 | 0.00 | 0.00 | 63 | 1010.9 |
| 20260507224931 | 61 | 330 | 5.2 | 7.8 | 0.00 | 0.00 | 0.00 | 62 | 1010.9 |
| 20260507224829 | 61 | 330 | 4.3 | 7.0 | 0.00 | 0.00 | 0.00 | 62 | 1010.9 |
| 20260507224738 | 61 | 332 | 4.3 | 7.0 | 0.00 | 0.00 | 0.00 | 63 | 1010.9 |
| 20260507224648 | 61 | 320 | 3.5 | 7.0 | 0.00 | 0.00 | 0.00 | 62 | 1010.9 |
| 20260507224526 | 61 | 332 | 1.7 | 5.2 | 0.00 | 0.00 | 0.00 | 63 | 1010.9 |
| 20260507224424 | 61 | 330 | 0.9 | 6.1 | 0.00 | 0.00 | 0.00 | 62 | 1010.9 |
| 20260507224326 | 61 | 329 | 1.7 | 6.1 | 0.00 | 0.00 | 0.00 | 62 | 1010.8 |
| 20260507224225 | 61 | 328 | 2.6 | 6.1 | 0.00 | 0.00 | 0.00 | 62 | 1010.8 |
| 20260507224143 | 61 | 329 | 2.6 | 6.1 | 0.00 | 0.00 | 0.00 | 63 | 1010.8 |
| 20260507224042 | 61 | 326 | 4.3 | 6.1 | 0.00 | 0.00 | 0.00 | 63 | 1010.8 |
| 20260507223941 | 61 | 326 | 2.6 | 7.0 | 0.00 | 0.00 | 0.00 | 62 | 1010.8 |
| 20260507223858 | 61 | 330 | 0.9 | 7.0 | 0.00 | 0.00 | 0.00 | 62 | 1010.8 |
| 20260507223736 | 61 | 336 | 2.6 | 7.0 | 0.00 | 0.00 | 0.00 | 63 | 1010.8 |
| 20260507223634 | 61 | 330 | 5.2 | 7.0 | 0.00 | 0.00 | 0.00 | 62 | 1010.8 |
| 20260507223536 | 61 | 329 | 1.7 | 7.0 | 0.00 | 0.00 | 0.00 | 62 | 1010.8 |
| 20260507223435 | 61 | 339 | 0.9 | 7.0 | 0.00 | 0.00 | 0.00 | 61 | 1010.8 |
| 20260507223333 | 61 | 332 | 1.7 | 7.0 | 0.00 | 0.00 | 0.00 | 61 | 1010.8 |
| 20260507223251 | 61 | 330 | 3.5 | 7.0 | 0.00 | 0.00 | 0.00 | 61 | 1010.8 |
| 20260507223222 | 61 | 349 | 4.3 | 7.0 | 0.00 | 0.00 | 0.00 | 61 | 1010.8 |
| 20260507223037 | 61 | 328 | 2.6 | 7.0 | 0.00 | 0.00 | 0.00 | 61 | 1010.8 |
| 20260507222936 | 61 | 330 | 1.7 | 6.1 | 0.00 | 0.00 | 0.00 | 60 | 1010.8 |
| 20260507222836 | 61 | 329 | 3.5 | 6.1 | 0.00 | 0.00 | 0.00 | 61 | 1010.8 |
| 20260507222740 | 61 | 344 | 3.5 | 7.0 | 0.00 | 0.00 | 0.00 | 60 | 1010.8 |
| 20260507222659 | 61 | 342 | 2.6 | 7.0 | 0.00 | 0.00 | 0.00 | 61 | 1010.8 |
| 20260507222536 | 61 | 322 | 0.9 | 7.0 | 0.00 | 0.00 | 0.00 | 60 | 1010.8 |
| 20260507222435 | 61 | 332 | 2.6 | 9.6 | 0.00 | 0.00 | 0.00 | 60 | 1010.8 |
| 20260507222333 | 62 | 332 | 2.6 | 9.6 | 0.00 | 0.00 | 0.00 | 61 | 1010.8 |
| 20260507222251 | 61 | 330 | 3.5 | 9.6 | 0.00 | 0.00 | 0.00 | 62 | 1010.8 |
| 20260507222149 | 62 | 339 | 2.6 | 9.6 | 0.00 | 0.00 | 0.00 | 61 | 1010.8 |
| 20260507222025 | 62 | 328 | 3.5 | 9.6 | 0.00 | 0.00 | 0.00 | 61 | 1010.8 |
| 20260507221928 | 62 | 326 | 3.5 | 9.6 | 0.00 | 0.00 | 0.00 | 61 | 1010.8 |
| 20260507221827 | 62 | 328 | 2.6 | 9.6 | 0.00 | 0.00 | 0.00 | 62 | 1010.8 |
| 20260507221745 | 62 | 332 | 2.6 | 9.6 | 0.00 | 0.00 | 0.00 | 63 | 1010.8 |
| 20260507221654 | 62 | 330 | 4.3 | 9.6 | 0.00 | 0.00 | 0.00 | 63 | 1010.8 |
| 20260507221533 | 62 | 333 | 2.6 | 9.6 | 0.00 | 0.00 | 0.00 | 64 | 1010.8 |
| 20260507221431 | 62 | 330 | 2.6 | 9.6 | 0.00 | 0.00 | 0.00 | 63 | 1010.8 |
| 20260507221331 | 62 | 330 | 0.9 | 9.6 | 0.00 | 0.00 | 0.00 | 61 | 1010.7 |
| 20260507221228 | 62 | 329 | 1.7 | 9.6 | 0.00 | 0.00 | 0.00 | 62 | 1010.7 |
| 20260507221131 | 62 | 330 | 2.6 | 9.6 | 0.00 | 0.00 | 0.00 | 60 | 1010.7 |
| 20260507221029 | 62 | 330 | 3.5 | 9.6 | 0.00 | 0.00 | 0.00 | 60 | 1010.7 |
| 20260507220927 | 62 | 330 | 6.1 | 12.2 | 0.00 | 0.00 | 0.00 | 61 | 1010.7 |
| 20260507220825 | 62 | 330 | 6.1 | 12.2 | 0.00 | 0.00 | 0.00 | 62 | 1010.7 |
| 20260507220724 | 62 | 329 | 6.1 | 12.2 | 0.00 | 0.00 | 0.00 | 60 | 1010.7 |
| 20260507220643 | 62 | 328 | 5.2 | 12.2 | 0.00 | 0.00 | 0.00 | 59 | 1010.7 |
| 20260507220541 | 62 | 326 | 3.5 | 12.2 | 0.00 | 0.00 | 0.00 | 61 | 1010.7 |
| 20260507220443 | 62 | 325 | 3.5 | 12.2 | 0.00 | 0.00 | 0.00 | 61 | 1010.7 |
| 20260507220343 | 62 | 323 | 3.5 | 12.2 | 0.00 | 0.00 | 0.00 | 62 | 1010.7 |
| 20260507220224 | 62 | 328 | 6.1 | 12.2 | 0.00 | 0.00 | 0.00 | 62 | 1010.7 |
| 20260507220156 | 62 | 329 | 7.8 | 12.2 | 0.00 | 0.00 | 0.00 | 62 | 1010.7 |
| 20260507220031 | 62 | 330 | 4.3 | 12.2 | 0.00 | 0.00 | 0.00 | 61 | 1010.7 |
| 20260507215931 | 62 | 329 | 3.5 | 12.2 | 0.00 | 0.00 | 0.00 | 61 | 1010.7 |
| 20260507215830 | 62 | 326 | 5.2 | 12.2 | 0.00 | 0.00 | 0.00 | 60 | 1010.5 |
| 20260507215734 | 62 | 336 | 6.1 | 12.2 | 0.00 | 0.00 | 0.00 | 61 | 1010.5 |
| 20260507215632 | 62 | 349 | 5.2 | 12.2 | 0.00 | 0.00 | 0.00 | 61 | 1010.5 |
| 20260507215530 | 62 | 330 | 9.6 | 12.2 | 0.00 | 0.00 | 0.00 | 62 | 1010.5 |
| 20260507215428 | 62 | 328 | 3.5 | 12.2 | 0.00 | 0.00 | 0.00 | 62 | 1010.5 |
| 20260507215330 | 62 | 333 | 2.6 | 12.2 | 0.00 | 0.00 | 0.00 | 61 | 1010.5 |
| 20260507215229 | 62 | 325 | 2.6 | 12.2 | 0.00 | 0.00 | 0.00 | 61 | 1010.5 |
| 20260507215128 | 62 | 332 | 1.7 | 12.2 | 0.00 | 0.00 | 0.00 | 60 | 1010.5 |
| 20260507215031 | 62 | 326 | 0.0 | 12.2 | 0.00 | 0.00 | 0.00 | 59 | 1010.5 |
| 20260507214930 | 62 | 326 | 4.3 | 12.2 | 0.00 | 0.00 | 0.00 | 61 | 1010.5 |
| 20260507214829 | 62 | 325 | 6.1 | 12.2 | 0.00 | 0.00 | 0.00 | 61 | 1010.5 |
| 20260507214727 | 62 | 322 | 8.7 | 12.2 | 0.00 | 0.00 | 0.00 | 61 | 1010.5 |
| 20260507214657 | 62 | 328 | 7.8 | 12.2 | 0.00 | 0.00 | 0.00 | 61 | 1010.5 |
| 20260507214556 | 62 | 329 | 4.3 | 9.6 | 0.00 | 0.00 | 0.00 | 60 | 1010.5 |
| 20260507214434 | 62 | 330 | 3.5 | 9.6 | 0.00 | 0.00 | 0.00 | 61 | 1010.5 |
| 20260507214336 | 62 | 333 | 3.5 | 9.6 | 0.00 | 0.00 | 0.00 | 62 | 1010.7 |
| 20260507214237 | 62 | 330 | 5.2 | 9.6 | 0.00 | 0.00 | 0.00 | 63 | 1010.7 |
| 20260507214137 | 62 | 318 | 2.6 | 9.6 | 0.00 | 0.00 | 0.00 | 61 | 1010.7 |
| 20260507214034 | 62 | 320 | 3.5 | 9.6 | 0.00 | 0.00 | 0.00 | 61 | 1010.7 |
| 20260507213935 | 62 | 330 | 5.2 | 9.6 | 0.00 | 0.00 | 0.00 | 61 | 1010.7 |
| 20260507213854 | 62 | 329 | 5.2 | 9.6 | 0.00 | 0.00 | 0.00 | 62 | 1010.7 |
| 20260507213733 | 62 | 328 | 7.8 | 9.6 | 0.00 | 0.00 | 0.00 | 61 | 1010.7 |
| 20260507213635 | 62 | 330 | 4.3 | 9.6 | 0.00 | 0.00 | 0.00 | 63 | 1010.7 |
| 20260507213533 | 62 | 277 | 6.1 | 9.6 | 0.00 | 0.00 | 0.00 | 62 | 1010.7 |
| 20260507213432 | 62 | 42 | 1.7 | 7.8 | 0.00 | 0.00 | 0.00 | 62 | 1010.7 |
| 20260507213330 | 62 | 192 | 1.7 | 7.8 | 0.00 | 0.00 | 0.00 | 61 | 1010.7 |
| 20260507213238 | 62 | 330 | 4.3 | 7.8 | 0.00 | 0.00 | 0.00 | 61 | 1010.7 |
| 20260507213149 | 62 | 330 | 1.7 | 7.8 | 0.00 | 0.00 | 0.00 | 61 | 1010.7 |
| 20260507213026 | 62 | 112 | 1.7 | 7.8 | 0.00 | 0.00 | 0.00 | 62 | 1010.7 |
| 20260507212930 | 62 | 213 | 4.3 | 7.8 | 0.00 | 0.00 | 0.00 | 61 | 1010.7 |
| 20260507212848 | 62 | 330 | 4.3 | 7.8 | 0.00 | 0.00 | 0.00 | 61 | 1010.6 |
| 20260507212744 | 62 | 332 | 5.2 | 7.8 | 0.00 | 0.00 | 0.00 | 61 | 1010.6 |
| 20260507212703 | 62 | 332 | 6.1 | 7.8 | 0.00 | 0.00 | 0.00 | 62 | 1010.6 |
| 20260507212539 | 62 | 332 | 4.3 | 7.8 | 0.00 | 0.00 | 0.00 | 61 | 1010.6 |
| 20260507212429 | 62 | 330 | 2.6 | 7.0 | 0.00 | 0.00 | 0.00 | 61 | 1010.6 |
| 20260507212325 | 62 | 332 | 3.5 | 9.6 | 0.00 | 0.00 | 0.00 | 63 | 1010.6 |
| 20260507212242 | 62 | 332 | 3.5 | 9.6 | 0.00 | 0.00 | 0.00 | 63 | 1010.6 |
| 20260507212201 | 62 | 332 | 1.7 | 9.6 | 0.00 | 0.00 | 0.00 | 61 | 1010.6 |
| 20260507212058 | 62 | 318 | 2.6 | 9.6 | 0.00 | 0.00 | 0.00 | 61 | 1010.6 |
| 20260507211954 | 62 | 326 | 3.5 | 9.6 | 0.00 | 0.00 | 0.00 | 63 | 1010.6 |
| 20260507211850 | 62 | 329 | 2.6 | 9.6 | 0.00 | 0.00 | 0.00 | 62 | 1010.6 |
| 20260507211751 | 62 | 322 | 4.3 | 9.6 | 0.00 | 0.00 | 0.00 | 61 | 1010.6 |
| 20260507211700 | 62 | 336 | 3.5 | 9.6 | 0.00 | 0.00 | 0.00 | 62 | 1010.6 |
| 20260507211535 | 61 | 325 | 4.3 | 9.6 | 0.00 | 0.00 | 0.00 | 63 | 1010.6 |
| 20260507211431 | 61 | 326 | 7.0 | 11.3 | 0.00 | 0.00 | 0.00 | 63 | 1010.6 |
| 20260507211327 | 61 | 319 | 4.3 | 11.3 | 0.00 | 0.00 | 0.00 | 64 | 1010.7 |
| 20260507211246 | 61 | 333 | 6.1 | 11.3 | 0.00 | 0.00 | 0.00 | 62 | 1010.7 |
| 20260507211143 | 61 | 329 | 6.1 | 11.3 | 0.00 | 0.00 | 0.00 | 62 | 1010.7 |
| 20260507211041 | 61 | 330 | 6.1 | 11.3 | 0.00 | 0.00 | 0.00 | 65 | 1010.7 |
| 20260507210936 | 61 | 326 | 5.2 | 11.3 | 0.00 | 0.00 | 0.00 | 64 | 1010.7 |
| 20260507210833 | 61 | 328 | 3.5 | 11.3 | 0.00 | 0.00 | 0.00 | 64 | 1010.7 |
| 20260507210731 | 61 | 121 | 2.6 | 11.3 | 0.00 | 0.00 | 0.00 | 63 | 1010.7 |
| 20260507210629 | 61 | 330 | 4.3 | 11.3 | 0.00 | 0.00 | 0.00 | 65 | 1010.7 |
| 20260507210525 | 61 | 335 | 3.5 | 11.3 | 0.00 | 0.00 | 0.00 | 65 | 1010.7 |
| 20260507210443 | 61 | 330 | 4.3 | 10.4 | 0.00 | 0.00 | 0.00 | 63 | 1010.7 |
| 20260507210340 | 61 | 330 | 4.3 | 10.4 | 0.00 | 0.00 | 0.00 | 63 | 1010.7 |
| 20260507210300 | 61 | 330 | 5.2 | 10.4 | 0.00 | 0.00 | 0.00 | 64 | 1010.7 |
| 20260507210208 | 61 | 332 | 3.5 | 10.4 | 0.00 | 0.00 | 0.00 | 63 | 1010.7 |
| 20260507210043 | 61 | 330 | 3.5 | 10.4 | 0.00 | 0.00 | 0.00 | 63 | 1010.7 |
| 20260507205941 | 61 | 330 | 4.3 | 10.4 | 0.00 | 0.00 | 0.00 | 63 | 1010.7 |
| 20260507205836 | 61 | 330 | 7.0 | 10.4 | 0.00 | 0.00 | 0.00 | 63 | 1010.6 |
| 20260507205731 | 61 | 337 | 7.8 | 11.3 | 0.00 | 0.00 | 0.00 | 64 | 1010.6 |
| 20260507205629 | 61 | 332 | 3.5 | 11.3 | 0.00 | 0.00 | 0.00 | 62 | 1010.6 |
| 20260507205530 | 61 | 332 | 4.3 | 11.3 | 0.00 | 0.00 | 0.00 | 64 | 1010.6 |
| 20260507205426 | 61 | 325 | 4.3 | 11.3 | 0.00 | 0.00 | 0.00 | 64 | 1010.6 |
| 20260507205344 | 61 | 330 | 4.3 | 11.3 | 0.00 | 0.00 | 0.00 | 64 | 1010.6 |
| 20260507205241 | 61 | 330 | 7.0 | 11.3 | 0.00 | 0.00 | 0.00 | 65 | 1010.6 |
| 20260507205136 | 61 | 328 | 7.8 | 11.3 | 0.00 | 0.00 | 0.00 | 63 | 1010.6 |
| 20260507205035 | 61 | 337 | 7.0 | 11.3 | 0.00 | 0.00 | 0.00 | 62 | 1010.6 |
| 20260507204931 | 61 | 323 | 7.0 | 11.3 | 0.00 | 0.00 | 0.00 | 62 | 1010.6 |
| 20260507204833 | 61 | 339 | 7.0 | 10.4 | 0.00 | 0.00 | 0.00 | 62 | 1010.6 |
| 20260507204750 | 61 | 337 | 4.3 | 10.4 | 0.00 | 0.00 | 0.00 | 63 | 1010.6 |
| 20260507204720 | 61 | 328 | 1.7 | 10.4 | 0.00 | 0.00 | 0.00 | 65 | 1010.6 |
| 20260507204541 | 61 | 326 | 2.6 | 9.6 | 0.00 | 0.00 | 0.00 | 63 | 1010.6 |
| 20260507204440 | 61 | 330 | 3.5 | 9.6 | 0.00 | 0.00 | 0.00 | 63 | 1010.6 |
| 20260507204339 | 61 | 343 | 3.5 | 9.6 | 0.00 | 0.00 | 0.00 | 63 | 1010.7 |
| 20260507204237 | 61 | 319 | 4.3 | 9.6 | 0.00 | 0.00 | 0.00 | 63 | 1010.7 |
| 20260507204136 | 61 | 354 | 4.3 | 9.6 | 0.00 | 0.00 | 0.00 | 63 | 1010.7 |
| 20260507204054 | 61 | 330 | 3.5 | 9.6 | 0.00 | 0.00 | 0.00 | 64 | 1010.7 |
| 20260507203936 | 61 | 328 | 2.6 | 9.6 | 0.00 | 0.00 | 0.00 | 65 | 1010.7 |
| 20260507203839 | 61 | 322 | 5.2 | 9.6 | 0.00 | 0.00 | 0.00 | 65 | 1010.7 |
| 20260507203737 | 61 | 328 | 7.0 | 9.6 | 0.00 | 0.00 | 0.00 | 63 | 1010.7 |
| 20260507203635 | 61 | 326 | 5.2 | 9.6 | 0.00 | 0.00 | 0.00 | 65 | 1010.7 |
| 20260507203554 | 61 | 343 | 2.6 | 9.6 | 0.00 | 0.00 | 0.00 | 64 | 1010.7 |
| 20260507203430 | 61 | 330 | 2.6 | 9.6 | 0.00 | 0.00 | 0.00 | 64 | 1010.7 |
| 20260507203329 | 61 | 315 | 0.9 | 9.6 | 0.00 | 0.00 | 0.00 | 66 | 1010.7 |
| 20260507203228 | 61 | 330 | 4.3 | 9.6 | 0.00 | 0.00 | 0.00 | 65 | 1010.7 |
| 20260507203158 | 61 | 328 | 5.2 | 9.6 | 0.00 | 0.00 | 0.00 | 65 | 1010.7 |
| 20260507203101 | 61 | 330 | 5.2 | 9.6 | 0.00 | 0.00 | 0.00 | 66 | 1010.7 |
| 20260507202938 | 61 | 320 | 6.1 | 9.6 | 0.00 | 0.00 | 0.00 | 66 | 1010.7 |
| 20260507202837 | 61 | 325 | 6.1 | 8.7 | 0.00 | 0.00 | 0.00 | 65 | 1010.7 |
| 20260507202755 | 61 | 360 | 6.1 | 8.7 | 0.00 | 0.00 | 0.00 | 66 | 1010.7 |
| 20260507202632 | 61 | 328 | 3.5 | 7.0 | 0.00 | 0.00 | 0.00 | 67 | 1010.7 |
| 20260507202531 | 61 | 330 | 5.2 | 7.0 | 0.00 | 0.00 | 0.00 | 66 | 1010.7 |
| 20260507202431 | 61 | 349 | 3.5 | 7.8 | 0.00 | 0.00 | 0.00 | 65 | 1010.7 |
| 20260507202335 | 61 | 343 | 0.9 | 7.8 | 0.00 | 0.00 | 0.00 | 67 | 1010.7 |
| 20260507202234 | 61 | 337 | 1.7 | 7.8 | 0.00 | 0.00 | 0.00 | 68 | 1010.7 |
| 20260507202132 | 61 | 316 | 3.5 | 8.7 | 0.00 | 0.00 | 0.00 | 66 | 1010.7 |
| 20260507202031 | 61 | 330 | 3.5 | 8.7 | 0.00 | 0.00 | 0.00 | 66 | 1010.7 |
| 20260507201930 | 61 | 330 | 2.6 | 8.7 | 0.00 | 0.00 | 0.00 | 67 | 1010.7 |
| 20260507201828 | 61 | 330 | 2.6 | 8.7 | 0.00 | 0.00 | 0.00 | 68 | 1010.7 |
| 20260507201727 | 61 | 328 | 3.5 | 10.4 | 0.00 | 0.00 | 0.00 | 66 | 1010.7 |
| 20260507201659 | 61 | 326 | 5.2 | 10.4 | 0.00 | 0.00 | 0.00 | 66 | 1010.7 |
| 20260507201538 | 61 | 330 | 5.2 | 10.4 | 0.00 | 0.00 | 0.00 | 67 | 1010.7 |
| 20260507201436 | 61 | 322 | 6.1 | 10.4 | 0.00 | 0.00 | 0.00 | 66 | 1010.7 |
| 20260507201335 | 61 | 325 | 6.1 | 10.4 | 0.00 | 0.00 | 0.00 | 66 | 1010.4 |
| 20260507201233 | 61 | 330 | 4.3 | 10.4 | 0.00 | 0.00 | 0.00 | 66 | 1010.4 |
| 20260507201132 | 61 | 292 | 3.5 | 11.3 | 0.00 | 0.00 | 0.00 | 67 | 1010.4 |
| 20260507201030 | 61 | 330 | 4.3 | 11.3 | 0.00 | 0.00 | 0.00 | 65 | 1010.4 |
| 20260507200932 | 61 | 329 | 5.2 | 11.3 | 0.00 | 0.00 | 0.00 | 66 | 1010.4 |
| 20260507200830 | 61 | 330 | 4.3 | 11.3 | 0.00 | 0.00 | 0.00 | 65 | 1010.4 |
| 20260507200729 | 61 | 330 | 6.1 | 11.3 | 0.00 | 0.00 | 0.00 | 66 | 1010.4 |
| 20260507200627 | 61 | 332 | 3.5 | 11.3 | 0.00 | 0.00 | 0.00 | 65 | 1010.4 |
| 20260507200527 | 61 | 330 | 3.5 | 11.3 | 0.00 | 0.00 | 0.00 | 64 | 1010.4 |
| 20260507200426 | 61 | 294 | 7.0 | 11.3 | 0.00 | 0.00 | 0.00 | 63 | 1010.4 |
| 20260507200328 | 61 | 330 | 7.0 | 11.3 | 0.00 | 0.00 | 0.00 | 63 | 1010.4 |
| 20260507200238 | 62 | 329 | 6.1 | 13.9 | 0.00 | 0.00 | 0.00 | 65 | 1010.4 |
| 20260507200148 | 62 | 326 | 2.6 | 13.9 | 0.00 | 0.00 | 0.00 | 65 | 1010.4 |
| 20260507200044 | 62 | 330 | 5.2 | 13.9 | 0.00 | 0.00 | 0.00 | 64 | 1010.4 |
| 20260507195940 | 62 | 328 | 5.2 | 13.9 | 0.00 | 0.00 | 0.00 | 65 | 1010.4 |
| 20260507195839 | 62 | 326 | 1.7 | 13.9 | 0.00 | 0.00 | 0.00 | 66 | 1010.7 |
| 20260507195737 | 62 | 330 | 3.5 | 13.9 | 0.00 | 0.00 | 0.00 | 64 | 1010.7 |
| 20260507195635 | 62 | 333 | 7.8 | 13.9 | 0.00 | 0.00 | 0.00 | 63 | 1010.7 |
| 20260507195533 | 62 | 329 | 7.0 | 13.9 | 0.00 | 0.00 | 0.00 | 64 | 1010.7 |
| 20260507195436 | 62 | 329 | 7.8 | 13.9 | 0.00 | 0.00 | 0.00 | 67 | 1010.7 |
| 20260507195335 | 62 | 328 | 1.7 | 7.8 | 0.00 | 0.00 | 0.00 | 67 | 1010.7 |
| 20260507195234 | 62 | 323 | 2.6 | 7.8 | 0.00 | 0.00 | 0.00 | 66 | 1010.7 |
| 20260507195133 | 62 | 335 | 2.6 | 8.7 | 0.00 | 0.00 | 0.00 | 67 | 1010.7 |
| 20260507195032 | 61 | 326 | 4.3 | 10.4 | 0.00 | 0.00 | 0.00 | 67 | 1010.7 |
| 20260507194930 | 61 | 323 | 0.9 | 10.4 | 0.00 | 0.00 | 0.00 | 66 | 1010.7 |
| 20260507194833 | 61 | 330 | 3.5 | 10.4 | 0.00 | 0.00 | 0.00 | 66 | 1010.7 |
| 20260507194731 | 61 | 329 | 1.7 | 12.2 | 0.00 | 0.00 | 0.00 | 66 | 1010.7 |
| 20260507194702 | 61 | 329 | 0.9 | 12.2 | 0.00 | 0.00 | 0.00 | 66 | 1010.7 |
| 20260507194540 | 61 | 147 | 2.6 | 12.2 | 0.00 | 0.00 | 0.00 | 65 | 1010.7 |
| 20260507194439 | 61 | 49 | 4.3 | 12.2 | 0.00 | 0.00 | 0.00 | 64 | 1010.7 |
| 20260507194337 | 61 | 301 | 4.3 | 12.2 | 0.00 | 0.00 | 0.00 | 65 | 1010.6 |
| 20260507194235 | 61 | 326 | 7.8 | 12.2 | 0.00 | 0.00 | 0.00 | 63 | 1010.6 |
| 20260507194139 | 61 | 336 | 6.1 | 12.2 | 0.00 | 0.00 | 0.00 | 65 | 1010.6 |
| 20260507194037 | 61 | 337 | 5.2 | 12.2 | 0.00 | 0.00 | 0.00 | 65 | 1010.6 |
| 20260507193936 | 61 | 328 | 6.1 | 12.2 | 0.00 | 0.00 | 0.00 | 66 | 1010.6 |
| 20260507193835 | 61 | 330 | 0.0 | 10.4 | 0.00 | 0.00 | 0.00 | 65 | 1010.6 |
| 20260507193733 | 61 | 336 | 4.3 | 10.4 | 0.00 | 0.00 | 0.00 | 65 | 1010.6 |
| 20260507193631 | 61 | 340 | 4.3 | 10.4 | 0.00 | 0.00 | 0.00 | 63 | 1010.6 |
| 20260507193530 | 61 | 329 | 5.2 | 10.4 | 0.00 | 0.00 | 0.00 | 64 | 1010.6 |
| 20260507193432 | 61 | 326 | 7.8 | 10.4 | 0.00 | 0.00 | 0.00 | 65 | 1010.6 |
| 20260507193331 | 61 | 350 | 5.2 | 10.4 | 0.00 | 0.00 | 0.00 | 64 | 1010.6 |
| 20260507193249 | 61 | 326 | 7.0 | 10.4 | 0.00 | 0.00 | 0.00 | 66 | 1010.6 |
| 20260507193158 | 61 | 322 | 3.5 | 10.4 | 0.00 | 0.00 | 0.00 | 66 | 1010.6 |
| 20260507193034 | 61 | 344 | 4.3 | 10.4 | 0.00 | 0.00 | 0.00 | 64 | 1010.6 |
| 20260507192933 | 61 | 330 | 2.6 | 10.4 | 0.00 | 0.00 | 0.00 | 63 | 1010.6 |
| 20260507192833 | 61 | 346 | 2.6 | 10.4 | 0.00 | 0.00 | 0.00 | 62 | 1010.5 |
| 20260507192737 | 61 | 347 | 3.5 | 10.4 | 0.00 | 0.00 | 0.00 | 65 | 1010.5 |
| 20260507192655 | 61 | 347 | 6.1 | 10.4 | 0.00 | 0.00 | 0.00 | 63 | 1010.5 |
| 20260507192535 | 61 | 339 | 7.0 | 10.4 | 0.00 | 0.00 | 0.00 | 65 | 1010.5 |
| 20260507192434 | 61 | 322 | 5.2 | 10.4 | 0.00 | 0.00 | 0.00 | 64 | 1010.5 |
| 20260507192332 | 61 | 333 | 4.3 | 10.4 | 0.00 | 0.00 | 0.00 | 65 | 1010.5 |
| 20260507192230 | 61 | 346 | 5.2 | 10.4 | 0.00 | 0.00 | 0.00 | 64 | 1010.5 |
| 20260507192129 | 61 | 346 | 5.2 | 10.4 | 0.00 | 0.00 | 0.00 | 65 | 1010.5 |
| 20260507192032 | 61 | 208 | 6.1 | 10.4 | 0.00 | 0.00 | 0.00 | 65 | 1010.5 |
| 20260507191950 | 61 | 263 | 6.1 | 9.6 | 0.00 | 0.00 | 0.00 | 65 | 1010.5 |
| 20260507191827 | 61 | 330 | 7.0 | 9.6 | 0.00 | 0.00 | 0.00 | 66 | 1010.5 |
| 20260507191737 | 61 | 325 | 2.6 | 9.6 | 0.00 | 0.00 | 0.00 | 67 | 1010.5 |
| 20260507191647 | 61 | 328 | 1.7 | 12.2 | 0.00 | 0.00 | 0.00 | 65 | 1010.5 |
| 20260507191525 | 61 | 328 | 1.7 | 12.2 | 0.00 | 0.00 | 0.00 | 65 | 1010.5 |
| 20260507191424 | 60 | 328 | 2.6 | 12.2 | 0.00 | 0.00 | 0.00 | 66 | 1010.5 |
| 20260507191342 | 60 | 330 | 1.7 | 12.2 | 0.00 | 0.00 | 0.00 | 66 | 1010.5 |
| 20260507191224 | 60 | 326 | 6.1 | 12.2 | 0.00 | 0.00 | 0.00 | 64 | 1010.5 |
| 20260507191142 | 60 | 326 | 2.6 | 12.2 | 0.00 | 0.00 | 0.00 | 64 | 1010.5 |
| 20260507191041 | 60 | 360 | 4.3 | 12.2 | 0.00 | 0.00 | 0.00 | 65 | 1010.5 |
| 20260507190940 | 60 | 349 | 3.5 | 12.2 | 0.00 | 0.00 | 0.00 | 64 | 1010.5 |
| 20260507190838 | 60 | 268 | 5.2 | 12.2 | 0.00 | 0.00 | 0.00 | 65 | 1010.5 |
| 20260507190756 | 60 | 328 | 7.8 | 12.2 | 0.00 | 0.00 | 0.00 | 66 | 1010.5 |
| 20260507190654 | 60 | 319 | 3.5 | 11.3 | 0.00 | 0.00 | 0.00 | 63 | 1010.5 |
| 20260507190531 | 60 | 320 | 7.0 | 11.3 | 0.00 | 0.00 | 0.00 | 64 | 1010.5 |
| 20260507190433 | 60 | 325 | 7.8 | 11.3 | 0.00 | 0.00 | 0.00 | 65 | 1010.5 |
| 20260507190352 | 60 | 322 | 6.1 | 11.3 | 0.00 | 0.00 | 0.00 | 65 | 1010.5 |
| 20260507190229 | 60 | 329 | 6.1 | 10.4 | 0.00 | 0.00 | 0.00 | 67 | 1010.5 |
| 20260507190159 | 60 | 330 | 4.3 | 10.4 | 0.00 | 0.00 | 0.00 | 67 | 1010.5 |
| 20260507190057 | 60 | 339 | 2.6 | 10.4 | 0.00 | 0.00 | 0.00 | 67 | 1010.5 |
| 20260507185955 | 60 | 325 | 0.9 | 10.4 | 0.00 | 0.00 | 0.00 | 66 | 1010.5 |
| 20260507185831 | 60 | 325 | 3.5 | 10.4 | 0.00 | 0.00 | 0.00 | 67 | 1010.6 |
| 20260507185729 | 60 | 332 | 0.9 | 10.4 | 0.00 | 0.00 | 0.00 | 64 | 1010.6 |
| 20260507185633 | 60 | 337 | 2.6 | 10.4 | 0.00 | 0.00 | 0.00 | 64 | 1010.6 |
| 20260507185530 | 60 | 312 | 1.7 | 10.4 | 0.00 | 0.00 | 0.00 | 64 | 1010.6 |
| 20260507185428 | 60 | 329 | 3.5 | 10.4 | 0.00 | 0.00 | 0.00 | 64 | 1010.6 |
| 20260507185327 | 60 | 330 | 7.8 | 10.4 | 0.00 | 0.00 | 0.00 | 67 | 1010.6 |
| 20260507185226 | 60 | 328 | 6.1 | 10.4 | 0.00 | 0.00 | 0.00 | 67 | 1010.6 |
| 20260507185125 | 60 | 328 | 7.0 | 10.4 | 0.00 | 0.00 | 0.00 | 67 | 1010.6 |
| 20260507185043 | 60 | 330 | 6.1 | 10.4 | 0.00 | 0.00 | 0.00 | 65 | 1010.6 |
| 20260507184941 | 60 | 330 | 4.3 | 10.4 | 0.00 | 0.00 | 0.00 | 67 | 1010.6 |
| 20260507184842 | 60 | 330 | 3.5 | 10.4 | 0.00 | 0.00 | 0.00 | 66 | 1010.6 |
| 20260507184741 | 60 | 342 | 6.1 | 10.4 | 0.00 | 0.00 | 0.00 | 66 | 1010.6 |
| 20260507184712 | 60 | 329 | 7.0 | 10.4 | 0.00 | 0.00 | 0.00 | 68 | 1010.6 |
| 20260507184529 | 60 | 335 | 5.2 | 11.3 | 0.00 | 0.00 | 0.00 | 67 | 1010.6 |
| 20260507184426 | 60 | 329 | 5.2 | 11.3 | 0.00 | 0.00 | 0.00 | 67 | 1010.6 |
| 20260507184344 | 60 | 325 | 3.5 | 12.2 | 0.00 | 0.00 | 0.00 | 67 | 1010.6 |
| 20260507184242 | 60 | 325 | 3.5 | 12.2 | 0.00 | 0.00 | 0.00 | 68 | 1010.6 |
| 20260507184139 | 60 | 326 | 5.2 | 12.2 | 0.00 | 0.00 | 0.00 | 66 | 1010.6 |
| 20260507184038 | 60 | 328 | 5.2 | 12.2 | 0.00 | 0.00 | 0.00 | 67 | 1010.6 |
| 20260507183940 | 60 | 179 | 4.3 | 12.2 | 0.00 | 0.00 | 0.00 | 68 | 1010.6 |
| 20260507183838 | 60 | 326 | 4.3 | 12.2 | 0.00 | 0.00 | 0.00 | 68 | 1010.6 |
| 20260507183737 | 60 | 330 | 6.1 | 12.2 | 0.00 | 0.00 | 0.00 | 66 | 1010.6 |
| 20260507183635 | 60 | 329 | 4.3 | 12.2 | 0.00 | 0.00 | 0.00 | 69 | 1010.6 |
| 20260507183532 | 60 | 329 | 7.8 | 12.2 | 0.00 | 0.00 | 0.00 | 67 | 1010.6 |
| 20260507183431 | 60 | 329 | 1.7 | 9.6 | 0.00 | 0.00 | 0.00 | 67 | 1010.6 |
| 20260507183334 | 60 | 342 | 0.9 | 11.3 | 0.00 | 0.00 | 0.00 | 68 | 1010.6 |
| 20260507183232 | 60 | 330 | 0.9 | 11.3 | 0.00 | 0.00 | 0.00 | 69 | 1010.6 |
| 20260507183202 | 60 | 329 | 4.3 | 11.3 | 0.00 | 0.00 | 0.00 | 69 | 1010.6 |
| 20260507183038 | 60 | 349 | 5.2 | 11.3 | 0.00 | 0.00 | 0.00 | 66 | 1010.6 |
| 20260507182937 | 60 | 332 | 3.5 | 11.3 | 0.00 | 0.00 | 0.00 | 66 | 1010.6 |
| 20260507182836 | 60 | 330 | 6.1 | 11.3 | 0.00 | 0.00 | 0.00 | 67 | 1010.9 |
| 20260507182734 | 60 | 227 | 6.1 | 11.3 | 0.00 | 0.00 | 0.00 | 66 | 1010.9 |
| 20260507182631 | 60 | 298 | 7.0 | 11.3 | 0.00 | 0.00 | 0.00 | 67 | 1010.9 |
| 20260507182533 | 60 | 109 | 9.6 | 11.3 | 0.00 | 0.00 | 0.00 | 68 | 1010.9 |
| 20260507182430 | 60 | 14 | 6.1 | 10.4 | 0.00 | 0.00 | 0.00 | 69 | 1010.9 |
| 20260507182333 | 60 | 313 | 1.7 | 10.4 | 0.00 | 0.00 | 0.00 | 69 | 1010.9 |
| 20260507182252 | 60 | 359 | 4.3 | 10.4 | 0.00 | 0.00 | 0.00 | 69 | 1010.9 |
| 20260507182130 | 60 | 47 | 3.5 | 11.3 | 0.00 | 0.00 | 0.00 | 68 | 1010.9 |
| 20260507182029 | 60 | 61 | 3.5 | 11.3 | 0.00 | 0.00 | 0.00 | 70 | 1010.9 |
| 20260507181927 | 60 | 329 | 5.2 | 11.3 | 0.00 | 0.00 | 0.00 | 69 | 1010.9 |
| 20260507181826 | 60 | 330 | 5.2 | 11.3 | 0.00 | 0.00 | 0.00 | 68 | 1010.9 |
| 20260507181749 | 60 | 330 | 3.5 | 11.3 | 0.00 | 0.00 | 0.00 | 68 | 1010.9 |
| 20260507181658 | 60 | 289 | 3.5 | 11.3 | 0.00 | 0.00 | 0.00 | 68 | 1010.9 |
| 20260507181556 | 60 | 167 | 7.0 | 11.3 | 0.00 | 0.00 | 0.00 | 66 | 1010.9 |
| 20260507181433 | 60 | 311 | 6.1 | 11.3 | 0.00 | 0.00 | 0.00 | 69 | 1010.9 |
| 20260507181335 | 60 | 147 | 7.0 | 11.3 | 0.00 | 0.00 | 0.00 | 70 | 1010.9 |
| 20260507181233 | 60 | 326 | 7.0 | 11.3 | 0.00 | 0.00 | 0.00 | 69 | 1010.9 |
| 20260507181132 | 60 | 329 | 5.2 | 10.4 | 0.00 | 0.00 | 0.00 | 67 | 1010.9 |
| 20260507181031 | 60 | 343 | 3.5 | 10.4 | 0.00 | 0.00 | 0.00 | 67 | 1010.9 |
| 20260507180936 | 60 | 83 | 4.3 | 11.3 | 0.00 | 0.00 | 0.00 | 67 | 1010.9 |
| 20260507180853 | 60 | 335 | 5.2 | 11.3 | 0.00 | 0.00 | 0.00 | 66 | 1010.9 |
| 20260507180731 | 60 | 169 | 1.7 | 11.3 | 0.00 | 0.00 | 0.00 | 69 | 1010.9 |
| 20260507180630 | 60 | 323 | 4.3 | 11.3 | 0.00 | 0.00 | 0.00 | 70 | 1010.9 |
| 20260507180531 | 60 | 123 | 2.6 | 11.3 | 0.00 | 0.00 | 0.00 | 70 | 1010.9 |
| 20260507180450 | 60 | 267 | 6.1 | 11.3 | 0.00 | 0.00 | 0.00 | 70 | 1010.9 |
| 20260507180327 | 60 | 360 | 6.1 | 13.0 | 0.00 | 0.00 | 0.00 | 69 | 1010.9 |
| 20260507180245 | 60 | 344 | 7.0 | 13.0 | 0.00 | 0.00 | 0.00 | 69 | 1010.9 |
| 20260507180219 | 60 | 332 | 7.8 | 13.0 | 0.00 | 0.00 | 0.00 | 70 | 1010.9 |
| 20260507180034 | 60 | 350 | 1.7 | 13.0 | 0.00 | 0.00 | 0.00 | 71 | 1010.9 |
| 20260507175933 | 60 | 336 | 2.6 | 13.0 | 0.00 | 0.00 | 0.00 | 70 | 1010.9 |
| 20260507175832 | 60 | 329 | 3.5 | 13.0 | 0.00 | 0.00 | 0.00 | 69 | 1011.1 |
| 20260507175730 | 60 | 330 | 7.0 | 13.0 | 0.00 | 0.00 | 0.00 | 71 | 1011.1 |
| 20260507175628 | 60 | 329 | 5.2 | 13.0 | 0.00 | 0.00 | 0.00 | 69 | 1011.1 |
| 20260507175525 | 60 | 320 | 6.1 | 13.0 | 0.00 | 0.00 | 0.00 | 69 | 1011.1 |
| 20260507175428 | 60 | 330 | 3.5 | 12.2 | 0.00 | 0.00 | 0.00 | 69 | 1011.1 |
| 20260507175346 | 60 | 332 | 5.2 | 12.2 | 0.00 | 0.00 | 0.00 | 71 | 1011.1 |
| 20260507175307 | 60 | 326 | 7.0 | 12.2 | 0.00 | 0.00 | 0.00 | 70 | 1011.1 |
| 20260507175202 | 59 | 330 | 5.2 | 12.2 | 0.00 | 0.00 | 0.00 | 68 | 1011.1 |
| 20260507175039 | 59 | 71 | 4.3 | 12.2 | 0.00 | 0.00 | 0.00 | 68 | 1011.1 |
| 20260507174938 | 59 | 353 | 7.0 | 12.2 | 0.00 | 0.00 | 0.00 | 68 | 1011.1 |
| 20260507174836 | 59 | 329 | 8.7 | 13.9 | 0.00 | 0.00 | 0.00 | 69 | 1011.1 |
| 20260507174736 | 59 | 330 | 7.8 | 13.9 | 0.00 | 0.00 | 0.00 | 69 | 1011.1 |
| 20260507174713 | 59 | 82 | 8.7 | 13.9 | 0.00 | 0.00 | 0.00 | 69 | 1011.1 |
| 20260507174529 | 59 | 330 | 6.1 | 13.9 | 0.00 | 0.00 | 0.00 | 69 | 1011.1 |
| 20260507174447 | 59 | 182 | 4.3 | 13.9 | 0.00 | 0.00 | 0.00 | 68 | 1011.1 |
| 20260507174324 | 59 | 344 | 3.5 | 13.9 | 0.00 | 0.00 | 0.00 | 70 | 1011.3 |
| 20260507174224 | 59 | 162 | 5.2 | 13.9 | 0.00 | 0.00 | 0.00 | 71 | 1011.3 |
| 20260507174143 | 59 | 76 | 6.1 | 13.9 | 0.00 | 0.00 | 0.00 | 68 | 1011.3 |
| 20260507174042 | 59 | 18 | 8.7 | 13.9 | 0.00 | 0.00 | 0.00 | 70 | 1011.3 |
| 20260507173939 | 59 | 326 | 5.2 | 13.9 | 0.00 | 0.00 | 0.00 | 71 | 1011.3 |
| 20260507173842 | 59 | 328 | 7.8 | 10.4 | 0.00 | 0.00 | 0.00 | 70 | 1011.3 |
| 20260507173800 | 59 | 168 | 7.0 | 10.4 | 0.00 | 0.00 | 0.00 | 69 | 1011.3 |
| 20260507173636 | 59 | 347 | 1.7 | 9.6 | 0.00 | 0.00 | 0.00 | 69 | 1011.3 |
| 20260507173536 | 59 | 254 | 1.7 | 9.6 | 0.00 | 0.00 | 0.00 | 69 | 1011.3 |
| 20260507173454 | 59 | 222 | 3.5 | 9.6 | 0.00 | 0.00 | 0.00 | 69 | 1011.3 |
| 20260507173331 | 59 | 291 | 5.2 | 9.6 | 0.00 | 0.00 | 0.00 | 69 | 1011.3 |
| 20260507173240 | 59 | 175 | 6.1 | 9.6 | 0.00 | 0.00 | 0.00 | 69 | 1011.3 |
| 20260507173151 | 59 | 296 | 5.2 | 9.6 | 0.00 | 0.00 | 0.00 | 70 | 1011.3 |
| 20260507173027 | 59 | 116 | 2.6 | 9.6 | 0.00 | 0.00 | 0.00 | 72 | 1011.3 |
| 20260507172928 | 59 | 330 | 3.5 | 9.6 | 0.00 | 0.00 | 0.00 | 71 | 1011.3 |
| 20260507172847 | 59 | 333 | 6.1 | 10.4 | 0.00 | 0.00 | 0.00 | 70 | 1011.5 |
| 20260507172724 | 59 | 315 | 5.2 | 10.4 | 0.00 | 0.00 | 0.00 | 71 | 1011.5 |
| 20260507172642 | 59 | 330 | 2.6 | 10.4 | 0.00 | 0.00 | 0.00 | 71 | 1011.5 |
| 20260507172540 | 59 | 330 | 4.3 | 10.4 | 0.00 | 0.00 | 0.00 | 71 | 1011.5 |
| 20260507172439 | 59 | 330 | 2.6 | 10.4 | 0.00 | 0.00 | 0.00 | 71 | 1011.5 |
| 20260507172337 | 59 | 330 | 4.3 | 10.4 | 0.00 | 0.00 | 0.00 | 69 | 1011.5 |
| 20260507172255 | 59 | 130 | 5.2 | 10.4 | 0.00 | 0.00 | 0.00 | 70 | 1011.5 |
| 20260507172136 | 59 | 316 | 4.3 | 10.4 | 0.00 | 0.00 | 0.00 | 71 | 1011.5 |
| 20260507172055 | 59 | 244 | 7.0 | 10.4 | 0.00 | 0.00 | 0.00 | 72 | 1011.5 |
| 20260507171932 | 59 | 328 | 6.1 | 10.4 | 0.00 | 0.00 | 0.00 | 71 | 1011.5 |
| 20260507171829 | 58 | 330 | 2.6 | 10.4 | 0.00 | 0.00 | 0.00 | 71 | 1011.5 |
| 20260507171738 | 58 | 330 | 4.3 | 12.2 | 0.00 | 0.00 | 0.00 | 74 | 1011.5 |
| 20260507171648 | 58 | 353 | 7.0 | 12.2 | 0.00 | 0.00 | 0.00 | 72 | 1011.5 |
| 20260507171526 | 58 | 128 | 7.0 | 12.2 | 0.00 | 0.00 | 0.00 | 72 | 1011.5 |
| 20260507171446 | 58 | 330 | 6.1 | 12.2 | 0.00 | 0.00 | 0.00 | 72 | 1011.5 |
| 20260507171327 | 58 | 332 | 8.7 | 12.2 | 0.00 | 0.00 | 0.00 | 72 | 1011.3 |
| 20260507171245 | 58 | 217 | 6.1 | 12.2 | 0.00 | 0.00 | 0.00 | 72 | 1011.3 |
| 20260507171143 | 58 | 261 | 5.2 | 12.2 | 0.00 | 0.00 | 0.00 | 71 | 1011.3 |
| 20260507171041 | 58 | 27 | 7.0 | 12.2 | 0.00 | 0.00 | 0.00 | 71 | 1011.3 |
| 20260507170940 | 58 | 323 | 8.7 | 12.2 | 0.00 | 0.00 | 0.00 | 72 | 1011.3 |
| 20260507170857 | 58 | 295 | 8.7 | 12.2 | 0.00 | 0.00 | 0.00 | 73 | 1011.3 |
| 20260507170754 | 58 | 326 | 7.0 | 10.4 | 0.00 | 0.00 | 0.00 | 75 | 1011.3 |
| 20260507170632 | 58 | 326 | 4.3 | 10.4 | 0.00 | 0.00 | 0.00 | 75 | 1011.3 |
| 20260507170531 | 58 | 330 | 7.8 | 10.4 | 0.00 | 0.00 | 0.00 | 76 | 1011.3 |
| 20260507170433 | 58 | 329 | 5.2 | 10.4 | 0.00 | 0.00 | 0.00 | 77 | 1011.3 |
| 20260507170350 | 58 | 360 | 1.7 | 10.4 | 0.00 | 0.00 | 0.00 | 77 | 1011.3 |
| 20260507170240 | 58 | 332 | 1.7 | 13.9 | 0.00 | 0.00 | 0.00 | 76 | 1011.3 |
| 20260507170150 | 58 | 182 | 4.3 | 13.9 | 0.00 | 0.00 | 0.00 | 75 | 1011.3 |
| 20260507170026 | 58 | 337 | 7.0 | 13.9 | 0.00 | 0.00 | 0.00 | 74 | 1011.3 |
| 20260507165924 | 58 | 306 | 7.8 | 13.9 | 0.00 | 0.00 | 0.00 | 74 | 1011.3 |
| 20260507165842 | 58 | 330 | 7.0 | 13.9 | 0.00 | 0.00 | 0.00 | 75 | 1011.6 |
| 20260507165740 | 57 | 285 | 5.2 | 13.9 | 0.00 | 0.00 | 0.00 | 76 | 1011.6 |
| 20260507165642 | 57 | 174 | 4.3 | 13.9 | 0.00 | 0.00 | 0.00 | 76 | 1011.6 |
| 20260507165600 | 57 | 136 | 5.2 | 13.9 | 0.00 | 0.00 | 0.00 | 75 | 1011.6 |
| 20260507165458 | 57 | 329 | 7.0 | 13.9 | 0.00 | 0.00 | 0.00 | 77 | 1011.6 |
| 20260507165336 | 57 | 203 | 6.1 | 12.2 | 0.00 | 0.00 | 0.00 | 77 | 1011.6 |
| 20260507165233 | 57 | 272 | 5.2 | 12.2 | 0.00 | 0.00 | 0.00 | 78 | 1011.6 |
| 20260507165132 | 57 | 325 | 1.7 | 12.2 | 0.00 | 0.00 | 0.00 | 77 | 1011.6 |
| 20260507165030 | 57 | 343 | 5.2 | 13.9 | 0.00 | 0.00 | 0.00 | 76 | 1011.6 |
| 20260507164929 | 57 | 329 | 4.3 | 13.9 | 0.00 | 0.00 | 0.00 | 74 | 1011.6 |
| 20260507164831 | 57 | 296 | 9.6 | 16.5 | 0.00 | 0.00 | 0.00 | 76 | 1011.6 |
| 20260507164729 | 57 | 329 | 7.8 | 16.5 | 0.00 | 0.00 | 0.00 | 77 | 1011.6 |
| 20260507164659 | 57 | 332 | 6.1 | 16.5 | 0.00 | 0.00 | 0.00 | 77 | 1011.6 |
| 20260507164537 | 57 | 336 | 7.0 | 16.5 | 0.00 | 0.00 | 0.00 | 79 | 1011.6 |
| 20260507164437 | 57 | 333 | 7.8 | 16.5 | 0.00 | 0.00 | 0.00 | 78 | 1011.6 |
| 20260507164336 | 57 | 281 | 7.8 | 16.5 | 0.00 | 0.00 | 0.00 | 80 | 1011.6 |
| 20260507164235 | 57 | 268 | 7.0 | 16.5 | 0.00 | 0.00 | 0.00 | 79 | 1011.6 |
| 20260507164136 | 56 | 326 | 6.1 | 16.5 | 0.00 | 0.00 | 0.00 | 79 | 1011.6 |
| 20260507164035 | 56 | 346 | 7.8 | 16.5 | 0.00 | 0.00 | 0.00 | 78 | 1011.6 |
| 20260507163935 | 56 | 359 | 7.8 | 16.5 | 0.00 | 0.00 | 0.00 | 81 | 1011.6 |
| 20260507163833 | 57 | 329 | 4.3 | 14.8 | 0.00 | 0.00 | 0.00 | 82 | 1011.6 |
| 20260507163753 | 56 | 330 | 7.0 | 14.8 | 0.00 | 0.00 | 0.00 | 83 | 1011.6 |
| 20260507163630 | 56 | 330 | 4.3 | 14.8 | 0.00 | 0.00 | 0.00 | 82 | 1011.6 |
| 20260507163528 | 56 | 322 | 7.8 | 14.8 | 0.00 | 0.00 | 0.00 | 82 | 1011.6 |
| 20260507163433 | 56 | 333 | 11.3 | 14.8 | 0.00 | 0.00 | 0.00 | 84 | 1011.6 |
| 20260507163332 | 56 | 330 | 7.8 | 12.2 | 0.00 | 0.00 | 0.00 | 84 | 1011.6 |
| 20260507163233 | 56 | 234 | 8.7 | 12.2 | 0.00 | 0.00 | 0.00 | 83 | 1011.6 |
| 20260507163203 | 56 | 333 | 5.2 | 12.2 | 0.00 | 0.00 | 0.00 | 83 | 1011.6 |
| 20260507163041 | 56 | 313 | 4.3 | 12.2 | 0.00 | 0.00 | 0.00 | 83 | 1011.6 |
| 20260507162938 | 56 | 336 | 7.8 | 12.2 | 0.00 | 0.00 | 0.00 | 82 | 1011.6 |
| 20260507162837 | 56 | 38 | 7.8 | 11.3 | 0.00 | 0.00 | 0.00 | 83 | 1011.2 |
| 20260507162739 | 56 | 320 | 7.8 | 11.3 | 0.00 | 0.00 | 0.00 | 84 | 1011.2 |
| 20260507162658 | 56 | 158 | 7.0 | 11.3 | 0.00 | 0.00 | 0.00 | 84 | 1011.2 |
| 20260507162535 | 56 | 323 | 7.8 | 11.3 | 0.00 | 0.00 | 0.00 | 86 | 1011.2 |
| 20260507162454 | 56 | 328 | 4.3 | 11.3 | 0.00 | 0.00 | 0.00 | 87 | 1011.2 |
| 20260507162334 | 56 | 332 | 4.3 | 11.3 | 0.00 | 0.00 | 0.00 | 88 | 1011.2 |
| 20260507162233 | 56 | 126 | 3.5 | 11.3 | 0.00 | 0.00 | 0.00 | 89 | 1011.2 |
| 20260507162132 | 55 | 311 | 7.0 | 11.3 | 0.00 | 0.00 | 0.00 | 89 | 1011.2 |
| 20260507162051 | 55 | 306 | 7.0 | 11.3 | 0.00 | 0.00 | 0.00 | 89 | 1011.2 |
| 20260507161933 | 55 | 337 | 7.8 | 11.3 | 0.00 | 0.00 | 0.00 | 90 | 1011.2 |
| 20260507161831 | 55 | 330 | 6.1 | 11.3 | 0.00 | 0.00 | 0.00 | 90 | 1011.2 |
| 20260507161729 | 55 | 332 | 7.8 | 11.3 | 0.00 | 0.00 | 0.00 | 92 | 1011.2 |
| 20260507161700 | 55 | 329 | 7.0 | 13.9 | 0.00 | 0.00 | 0.00 | 92 | 1011.2 |
| 20260507161539 | 55 | 270 | 7.0 | 13.9 | 0.00 | 0.00 | 0.00 | 95 | 1011.2 |
| 20260507161436 | 55 | 299 | 7.0 | 13.9 | 0.00 | 0.00 | 0.00 | 96 | 1011.2 |
| 20260507161334 | 55 | 326 | 7.0 | 13.9 | 0.00 | 0.00 | 0.00 | 96 | 1011.3 |
| 20260507161238 | 55 | 92 | 7.0 | 13.9 | 0.00 | 0.00 | 0.00 | 97 | 1011.3 |
| 20260507161137 | 55 | 320 | 6.1 | 13.9 | 0.00 | 0.00 | 0.00 | 100 | 1011.3 |
| 20260507161036 | 55 | 178 | 7.0 | 13.9 | 0.00 | 0.00 | 0.00 | 100 | 1011.3 |
| 20260507160935 | 55 | 326 | 7.8 | 13.9 | 0.00 | 0.00 | 0.00 | 100 | 1011.3 |
| 20260507160833 | 55 | 227 | 8.7 | 13.9 | 0.00 | 0.00 | 0.00 | 100 | 1011.3 |
| 20260507160732 | 55 | 313 | 5.2 | 13.9 | 0.00 | 0.00 | 0.00 | 100 | 1011.3 |
| 20260507160630 | 55 | 82 | 7.0 | 15.6 | 0.00 | 0.00 | 0.00 | 100 | 1011.3 |
| 20260507160533 | 55 | 330 | 1.7 | 15.6 | 0.00 | 0.00 | 0.00 | 100 | 1011.3 |
| 20260507160432 | 55 | 191 | 4.3 | 15.6 | 0.00 | 0.00 | 0.00 | 100 | 1011.3 |
| 20260507160330 | 54 | 226 | 6.1 | 15.6 | 0.00 | 0.00 | 0.00 | 100 | 1011.3 |
| 20260507160229 | 54 | 99 | 7.8 | 15.6 | 0.00 | 0.00 | 0.00 | 100 | 1011.3 |
| 20260507160200 | 54 | 320 | 8.7 | 16.5 | 0.00 | 0.00 | 0.00 | 100 | 1011.3 |
| 20260507160037 | 54 | 257 | 8.7 | 16.5 | 0.00 | 0.00 | 0.00 | 100 | 1011.3 |
| 20260507155935 | 54 | 325 | 5.2 | 16.5 | 0.00 | 0.00 | 0.00 | 100 | 1011.3 |
| 20260507155837 | 54 | 332 | 8.7 | 17.4 | 0.00 | 0.00 | 0.00 | 100 | 1011.1 |
| 20260507155735 | 54 | 311 | 7.8 | 17.4 | 0.00 | 0.00 | 0.00 | 100 | 1011.1 |
| 20260507155634 | 53 | 295 | 6.1 | 17.4 | 0.00 | 0.00 | 0.00 | 100 | 1011.1 |
| 20260507155532 | 53 | 298 | 6.1 | 17.4 | 0.00 | 0.00 | 0.00 | 100 | 1011.1 |
| 20260507155430 | 53 | 253 | 8.7 | 17.4 | 0.00 | 0.00 | 0.00 | 100 | 1011.1 |
| 20260507155328 | 53 | 256 | 10.4 | 17.4 | 0.00 | 0.00 | 0.00 | 100 | 1011.1 |
| 20260507155226 | 53 | 136 | 6.1 | 18.2 | 0.00 | 0.00 | 0.00 | 100 | 1011.1 |
| 20260507155149 | 53 | 284 | 12.2 | 18.2 | 0.00 | 0.00 | 0.00 | 100 | 1011.1 |
| 20260507155029 | 53 | 320 | 13.0 | 18.2 | 0.00 | 0.00 | 0.00 | 100 | 1011.1 |
| 20260507154929 | 53 | 287 | 8.7 | 18.2 | 0.00 | 0.00 | 0.00 | 100 | 1011.1 |
| 20260507154827 | 53 | 176 | 10.4 | 18.2 | 0.00 | 0.00 | 0.00 | 100 | 1011.1 |
| 20260507154725 | 53 | 143 | 11.3 | 18.2 | 0.00 | 0.00 | 0.00 | 100 | 1011.1 |
| 20260507154658 | 53 | 319 | 9.6 | 18.2 | 0.00 | 0.00 | 0.00 | 100 | 1011.1 |
| 20260507154536 | 53 | 267 | 9.6 | 18.2 | 0.00 | 0.00 | 0.00 | 100 | 1011.1 |
| 20260507154439 | 53 | 319 | 12.2 | 18.2 | 0.00 | 0.00 | 0.00 | 100 | 1011.1 |
| 20260507154338 | 53 | 291 | 7.8 | 17.4 | 0.00 | 0.00 | 0.00 | 100 | 1011.2 |
| 20260507154236 | 53 | 272 | 11.3 | 17.4 | 0.00 | 0.00 | 0.00 | 100 | 1011.2 |
| 20260507154135 | 53 | 150 | 12.2 | 17.4 | 0.00 | 0.00 | 0.00 | 100 | 1011.2 |
| 20260507154033 | 53 | 323 | 9.6 | 17.4 | 0.00 | 0.00 | 0.00 | 100 | 1011.2 |
| 20260507153935 | 53 | 172 | 8.7 | 17.4 | 0.00 | 0.00 | 0.00 | 100 | 1011.2 |
| 20260507153834 | 53 | 272 | 11.3 | 17.4 | 0.00 | 0.00 | 0.00 | 100 | 1011.2 |
| 20260507153736 | 53 | 257 | 7.0 | 14.8 | 0.00 | 0.00 | 0.00 | 100 | 1011.2 |
| 20260507153655 | 53 | 320 | 4.3 | 14.8 | 0.00 | 0.00 | 0.00 | 100 | 1011.2 |
| 20260507153531 | 53 | 305 | 6.1 | 14.8 | 0.00 | 0.00 | 0.00 | 100 | 1011.2 |
| 20260507153450 | 53 | 205 | 6.1 | 14.8 | 0.00 | 0.00 | 0.00 | 100 | 1011.2 |
| 20260507153328 | 53 | 294 | 7.8 | 14.8 | 0.00 | 0.00 | 0.00 | 100 | 1011.2 |
| 20260507153237 | 53 | 305 | 8.7 | 14.8 | 0.00 | 0.00 | 0.00 | 100 | 1011.2 |
| 20260507153147 | 53 | 339 | 7.8 | 14.8 | 0.00 | 0.00 | 0.00 | 100 | 1011.2 |
| 20260507153024 | 53 | 329 | 6.1 | 14.8 | 0.00 | 0.00 | 0.00 | 100 | 1011.2 |
| 20260507152927 | 53 | 325 | 8.7 | 14.8 | 0.00 | 0.00 | 0.00 | 100 | 1011.2 |
| 20260507152826 | 53 | 304 | 9.6 | 13.9 | 0.00 | 0.00 | 0.00 | 100 | 1011.2 |
| 20260507152724 | 53 | 315 | 8.7 | 15.6 | 0.00 | 0.00 | 0.00 | 100 | 1011.2 |
| 20260507152643 | 53 | 306 | 9.6 | 15.6 | 0.00 | 0.00 | 0.00 | 100 | 1011.2 |
| 20260507152541 | 53 | 308 | 7.8 | 15.6 | 0.00 | 0.00 | 0.00 | 100 | 1011.2 |
| 20260507152440 | 53 | 217 | 8.7 | 15.6 | 0.00 | 0.00 | 0.00 | 100 | 1011.2 |
| 20260507152337 | 53 | 213 | 7.8 | 15.6 | 0.00 | 0.00 | 0.00 | 100 | 1011.2 |
| 20260507152240 | 52 | 329 | 7.0 | 15.6 | 0.00 | 0.00 | 0.00 | 100 | 1011.2 |
| 20260507152138 | 52 | 308 | 6.1 | 15.6 | 0.00 | 0.00 | 0.00 | 100 | 1011.2 |
| 20260507152036 | 52 | 320 | 9.6 | 15.6 | 0.00 | 0.00 | 0.00 | 100 | 1011.2 |
| 20260507151934 | 52 | 320 | 10.4 | 15.6 | 0.00 | 0.00 | 0.00 | 100 | 1011.2 |
| 20260507151833 | 52 | 315 | 4.3 | 15.6 | 0.00 | 0.00 | 0.00 | 100 | 1011.2 |
| 20260507151752 | 52 | 332 | 7.8 | 19.1 | 0.00 | 0.00 | 0.00 | 100 | 1011.2 |
| 20260507151721 | 52 | 328 | 7.8 | 19.1 | 0.00 | 0.00 | 0.00 | 100 | 1011.2 |
| 20260507151537 | 52 | 205 | 6.1 | 19.1 | 0.00 | 0.00 | 0.00 | 100 | 1011.2 |
| 20260507151440 | 52 | 299 | 6.1 | 19.1 | 0.00 | 0.00 | 0.00 | 100 | 1011.2 |
| 20260507151338 | 52 | 152 | 9.6 | 19.1 | 0.00 | 0.00 | 0.00 | 100 | 1011.2 |
| 20260507151300 | 52 | 312 | 7.0 | 19.1 | 0.00 | 0.00 | 0.00 | 100 | 1011.2 |
| 20260507151138 | 52 | 328 | 8.7 | 19.1 | 0.00 | 0.00 | 0.00 | 100 | 1011.2 |
| 20260507151056 | 52 | 322 | 10.4 | 19.1 | 0.00 | 0.00 | 0.00 | 100 | 1011.2 |
| 20260507150954 | 52 | 326 | 13.0 | 19.1 | 0.00 | 0.00 | 0.00 | 100 | 1011.2 |
| 20260507150831 | 52 | 329 | 7.8 | 14.8 | 0.00 | 0.00 | 0.00 | 100 | 1011.2 |
| 20260507150729 | 52 | 328 | 5.2 | 14.8 | 0.00 | 0.00 | 0.00 | 100 | 1011.2 |
| 20260507150632 | 52 | 299 | 3.5 | 14.8 | 0.00 | 0.00 | 0.00 | 100 | 1011.2 |
| 20260507150530 | 51 | 330 | 6.1 | 14.8 | 0.00 | 0.00 | 0.00 | 100 | 1011.2 |
| 20260507150427 | 51 | 336 | 7.8 | 14.8 | 0.00 | 0.00 | 0.00 | 100 | 1011.2 |
| 20260507150327 | 51 | 332 | 6.1 | 14.8 | 0.00 | 0.00 | 0.00 | 100 | 1011.2 |
| 20260507150237 | 51 | 332 | 9.6 | 14.8 | 0.00 | 0.00 | 0.00 | 100 | 1011.2 |
| 20260507150149 | 52 | 209 | 9.6 | 14.8 | 0.00 | 0.00 | 0.00 | 100 | 1011.2 |
| 20260507150025 | 51 | 289 | 10.4 | 13.9 | 0.00 | 0.00 | 0.00 | 100 | 1011.2 |
| 20260507145949 | 51 | 308 | 7.8 | 13.9 | 0.00 | 0.00 | 0.00 | 100 | 1011.2 |
| 20260507145826 | 51 | 306 | 10.4 | 16.5 | 0.00 | 0.00 | 0.00 | 100 | 1011.2 |
| 20260507145725 | 51 | 301 | 10.4 | 16.5 | 0.00 | 0.00 | 0.00 | 100 | 1011.2 |
| 20260507145624 | 51 | 313 | 5.2 | 16.5 | 0.00 | 0.00 | 0.00 | 100 | 1011.2 |
| 20260507145543 | 51 | 329 | 8.7 | 16.5 | 0.00 | 0.00 | 0.00 | 100 | 1011.2 |
| 20260507145440 | 51 | 298 | 9.6 | 16.5 | 0.00 | 0.00 | 0.00 | 100 | 1011.2 |
| 20260507145339 | 51 | 295 | 7.0 | 16.5 | 0.00 | 0.00 | 0.00 | 100 | 1011.2 |
| 20260507145241 | 51 | 316 | 7.0 | 16.5 | 0.00 | 0.00 | 0.00 | 100 | 1011.2 |
| 20260507145140 | 51 | 333 | 7.8 | 16.5 | 0.00 | 0.00 | 0.00 | 100 | 1011.2 |
| 20260507145037 | 51 | 246 | 9.6 | 16.5 | 0.00 | 0.00 | 0.00 | 100 | 1011.2 |
| 20260507144935 | 51 | 285 | 10.4 | 16.5 | 0.00 | 0.00 | 0.00 | 100 | 1011.2 |
| 20260507144834 | 51 | 240 | 11.3 | 16.5 | 0.00 | 0.00 | 0.00 | 100 | 1011.2 |
| 20260507144733 | 51 | 241 | 10.4 | 14.8 | 0.00 | 0.00 | 0.00 | 100 | 1011.2 |
| 20260507144702 | 51 | 278 | 10.4 | 13.9 | 0.00 | 0.00 | 0.00 | 100 | 1011.2 |
| 20260507144541 | 51 | 313 | 10.4 | 13.9 | 0.00 | 0.00 | 0.00 | 100 | 1011.2 |
| 20260507144443 | 51 | 288 | 10.4 | 13.0 | 0.00 | 0.00 | 0.00 | 100 | 1011.2 |
| 20260507144342 | 51 | 330 | 8.7 | 16.5 | 0.00 | 0.00 | 0.00 | 100 | 1011.1 |
| 20260507144241 | 51 | 220 | 7.0 | 17.4 | 0.00 | 0.00 | 0.00 | 100 | 1011.1 |
| 20260507144139 | 51 | 302 | 8.7 | 17.4 | 0.00 | 0.00 | 0.00 | 100 | 1011.1 |
| 20260507144038 | 51 | 294 | 7.8 | 17.4 | 0.00 | 0.00 | 0.00 | 100 | 1011.1 |
| 20260507143938 | 51 | 284 | 9.6 | 17.4 | 0.00 | 0.00 | 0.00 | 100 | 1011.1 |
| 20260507143857 | 51 | 309 | 7.0 | 17.4 | 0.00 | 0.00 | 0.00 | 100 | 1011.1 |
| 20260507143738 | 51 | 58 | 4.3 | 17.4 | 0.00 | 0.00 | 0.00 | 100 | 1011.1 |
| 20260507143637 | 51 | 332 | 6.1 | 17.4 | 0.00 | 0.00 | 0.00 | 100 | 1011.1 |
| 20260507143534 | 51 | 330 | 11.3 | 17.4 | 0.00 | 0.00 | 0.00 | 100 | 1011.1 |
| 20260507143433 | 51 | 236 | 13.0 | 17.4 | 0.00 | 0.00 | 0.00 | 100 | 1011.1 |
| 20260507143332 | 51 | 332 | 7.8 | 13.9 | 0.00 | 0.00 | 0.00 | 100 | 1011.1 |
| 20260507143251 | 51 | 289 | 7.8 | 13.9 | 0.00 | 0.00 | 0.00 | 100 | 1011.1 |
| 20260507143202 | 51 | 323 | 7.8 | 13.9 | 0.00 | 0.00 | 0.00 | 100 | 1011.1 |
| 20260507143039 | 51 | 333 | 8.7 | 13.9 | 0.00 | 0.00 | 0.00 | 100 | 1011.1 |
| 20260507142942 | 51 | 337 | 6.1 | 14.8 | 0.00 | 0.00 | 0.00 | 100 | 1011.1 |
| 20260507142841 | 51 | 330 | 7.8 | 14.8 | 0.00 | 0.00 | 0.00 | 100 | 1010.8 |
| 20260507142739 | 51 | 316 | 7.8 | 14.8 | 0.00 | 0.00 | 0.00 | 100 | 1010.8 |
| 20260507142637 | 51 | 330 | 6.1 | 14.8 | 0.00 | 0.00 | 0.00 | 100 | 1010.8 |
| 20260507142536 | 51 | 326 | 5.2 | 14.8 | 0.00 | 0.00 | 0.00 | 100 | 1010.8 |
| 20260507142454 | 51 | 320 | 4.3 | 14.8 | 0.00 | 0.00 | 0.00 | 100 | 1010.8 |
| 20260507142331 | 51 | 167 | 8.7 | 14.8 | 0.00 | 0.00 | 0.00 | 100 | 1010.8 |
| 20260507142234 | 51 | 328 | 8.7 | 14.8 | 0.00 | 0.00 | 0.00 | 100 | 1010.8 |
| 20260507142132 | 51 | 284 | 8.7 | 16.5 | 0.00 | 0.00 | 0.00 | 100 | 1010.8 |
| 20260507142032 | 51 | 295 | 6.1 | 16.5 | 0.00 | 0.00 | 0.00 | 100 | 1010.8 |
| 20260507141951 | 51 | 261 | 8.7 | 16.5 | 0.00 | 0.00 | 0.00 | 100 | 1010.8 |
| 20260507141828 | 51 | 296 | 7.8 | 16.5 | 0.00 | 0.00 | 0.00 | 100 | 1010.8 |
| 20260507141727 | 51 | 230 | 7.8 | 16.5 | 0.00 | 0.00 | 0.00 | 100 | 1010.8 |
| 20260507141656 | 51 | 333 | 7.8 | 16.5 | 0.00 | 0.00 | 0.00 | 100 | 1010.8 |
| 20260507141538 | 51 | 250 | 8.7 | 16.5 | 0.00 | 0.00 | 0.00 | 100 | 1010.8 |
| 20260507141435 | 51 | 322 | 10.4 | 16.5 | 0.00 | 0.00 | 0.00 | 100 | 1010.8 |
| 20260507141334 | 51 | 265 | 11.3 | 16.5 | 0.00 | 0.00 | 0.00 | 100 | 1010.7 |
| 20260507141233 | 51 | 318 | 7.0 | 16.5 | 0.00 | 0.00 | 0.00 | 100 | 1010.7 |
| 20260507141130 | 51 | 305 | 8.7 | 16.5 | 0.00 | 0.00 | 0.00 | 100 | 1010.7 |
| 20260507141029 | 51 | 248 | 8.7 | 16.5 | 0.00 | 0.00 | 0.00 | 100 | 1010.7 |
| 20260507140927 | 50 | 288 | 7.0 | 16.5 | 0.00 | 0.00 | 0.00 | 100 | 1010.7 |
| 20260507140830 | 50 | 291 | 7.8 | 16.5 | 0.00 | 0.00 | 0.00 | 100 | 1010.7 |
| 20260507140729 | 50 | 243 | 7.0 | 16.5 | 0.00 | 0.00 | 0.00 | 100 | 1010.7 |
| 20260507140628 | 50 | 333 | 7.8 | 16.5 | 0.00 | 0.00 | 0.00 | 100 | 1010.7 |
| 20260507140530 | 50 | 236 | 8.7 | 16.5 | 0.00 | 0.00 | 0.00 | 100 | 1010.7 |
| 20260507140428 | 50 | 193 | 11.3 | 16.5 | 0.00 | 0.00 | 0.00 | 100 | 1010.7 |
| 20260507140325 | 51 | 328 | 12.2 | 17.4 | 0.00 | 0.00 | 0.00 | 100 | 1010.7 |
| 20260507140227 | 50 | 301 | 6.1 | 17.4 | 0.00 | 0.00 | 0.00 | 100 | 1010.7 |
| 20260507140158 | 50 | 328 | 7.0 | 18.2 | 0.00 | 0.00 | 0.00 | 100 | 1010.7 |
| 20260507140038 | 50 | 270 | 10.4 | 18.2 | 0.00 | 0.00 | 0.00 | 100 | 1010.7 |
| 20260507135938 | 50 | 210 | 10.4 | 18.2 | 0.00 | 0.00 | 0.00 | 100 | 1010.7 |
| 20260507135836 | 51 | 326 | 10.4 | 18.2 | 0.00 | 0.00 | 0.00 | 100 | 1010.6 |
| 20260507135735 | 50 | 263 | 10.4 | 18.2 | 0.00 | 0.00 | 0.00 | 100 | 1010.6 |
| 20260507135632 | 51 | 224 | 9.6 | 18.2 | 0.00 | 0.00 | 0.00 | 100 | 1010.6 |
| 20260507135551 | 51 | 254 | 12.2 | 18.2 | 0.00 | 0.00 | 0.00 | 100 | 1010.6 |
| 20260507135432 | 51 | 220 | 13.0 | 18.2 | 0.00 | 0.00 | 0.00 | 100 | 1010.6 |
| 20260507135330 | 51 | 248 | 12.2 | 18.2 | 0.00 | 0.00 | 0.00 | 100 | 1010.6 |
| 20260507135232 | 51 | 282 | 7.8 | 18.2 | 0.00 | 0.00 | 0.00 | 100 | 1010.6 |
| 20260507135130 | 51 | 288 | 10.4 | 17.4 | 0.00 | 0.00 | 0.00 | 100 | 1010.6 |
| 20260507135029 | 51 | 295 | 11.3 | 17.4 | 0.00 | 0.00 | 0.00 | 100 | 1010.6 |
| 20260507134926 | 51 | 285 | 9.6 | 17.4 | 0.00 | 0.00 | 0.00 | 100 | 1010.6 |
| 20260507134825 | 51 | 304 | 12.2 | 17.4 | 0.00 | 0.00 | 0.00 | 100 | 1010.6 |
| 20260507134736 | 51 | 326 | 8.7 | 16.5 | 0.00 | 0.00 | 0.00 | 100 | 1010.6 |
| 20260507134646 | 51 | 333 | 9.6 | 16.5 | 0.00 | 0.00 | 0.00 | 100 | 1010.6 |
| 20260507134524 | 51 | 284 | 9.6 | 16.5 | 0.00 | 0.00 | 0.00 | 100 | 1010.6 |
| 20260507134442 | 51 | 301 | 8.7 | 16.5 | 0.00 | 0.00 | 0.00 | 100 | 1010.6 |
| 20260507134341 | 51 | 80 | 11.3 | 16.5 | 0.00 | 0.00 | 0.00 | 100 | 1010.2 |
| 20260507134238 | 51 | 275 | 8.7 | 14.8 | 0.00 | 0.00 | 0.00 | 100 | 1010.2 |
| 20260507134138 | 51 | 24 | 7.8 | 14.8 | 0.00 | 0.00 | 0.00 | 100 | 1010.2 |
| 20260507134056 | 51 | 330 | 10.4 | 14.8 | 0.00 | 0.00 | 0.00 | 100 | 1010.2 |
| 20260507133938 | 51 | 301 | 11.3 | 14.8 | 0.00 | 0.00 | 0.00 | 100 | 1010.2 |
| 20260507133836 | 51 | 329 | 9.6 | 14.8 | 0.00 | 0.00 | 0.00 | 100 | 1010.2 |
| 20260507133736 | 51 | 114 | 9.6 | 14.8 | 0.00 | 0.00 | 0.00 | 100 | 1010.2 |
| 20260507133654 | 51 | 329 | 9.6 | 16.5 | 0.00 | 0.00 | 0.00 | 100 | 1010.2 |
| 20260507133532 | 51 | 309 | 9.6 | 17.4 | 0.00 | 0.00 | 0.00 | 100 | 1010.2 |
| 20260507133432 | 51 | 306 | 12.2 | 17.4 | 0.00 | 0.00 | 0.00 | 100 | 1010.2 |
| 20260507133350 | 51 | 312 | 11.3 | 17.4 | 0.00 | 0.00 | 0.00 | 100 | 1010.2 |
| 20260507133232 | 51 | 248 | 9.6 | 17.4 | 0.00 | 0.00 | 0.00 | 100 | 1010.2 |
| 20260507133202 | 51 | 136 | 7.0 | 17.4 | 0.00 | 0.00 | 0.00 | 100 | 1010.2 |
| 20260507133039 | 51 | 213 | 8.7 | 17.4 | 0.00 | 0.00 | 0.00 | 100 | 1010.2 |
| 20260507132938 | 51 | 330 | 10.4 | 17.4 | 0.00 | 0.00 | 0.00 | 100 | 1010.2 |
| 20260507132837 | 51 | 323 | 11.3 | 17.4 | 0.00 | 0.00 | 0.00 | 100 | 1010.1 |
| 20260507132735 | 51 | 332 | 13.9 | 17.4 | 0.00 | 0.00 | 0.00 | 100 | 1010.1 |
| 20260507132635 | 51 | 312 | 12.2 | 17.4 | 0.00 | 0.00 | 0.00 | 100 | 1010.1 |
| 20260507132537 | 51 | 289 | 9.6 | 17.4 | 0.00 | 0.00 | 0.00 | 100 | 1010.1 |
| 20260507132435 | 51 | 308 | 10.4 | 17.4 | 0.00 | 0.00 | 0.00 | 100 | 1010.1 |
| 20260507132333 | 51 | 305 | 14.8 | 17.4 | 0.00 | 0.00 | 0.00 | 100 | 1010.1 |
| 20260507132232 | 51 | 328 | 10.4 | 17.4 | 0.00 | 0.00 | 0.00 | 100 | 1010.1 |
| 20260507132130 | 51 | 318 | 12.2 | 16.5 | 0.00 | 0.00 | 0.00 | 100 | 1010.1 |
| 20260507132029 | 51 | 302 | 11.3 | 16.5 | 0.00 | 0.00 | 0.00 | 100 | 1010.1 |
| 20260507131947 | 51 | 294 | 10.4 | 16.5 | 0.00 | 0.00 | 0.00 | 100 | 1010.1 |
| 20260507131831 | 51 | 299 | 9.6 | 16.5 | 0.00 | 0.00 | 0.00 | 100 | 1010.1 |
| 20260507131729 | 51 | 312 | 12.2 | 16.5 | 0.00 | 0.00 | 0.00 | 100 | 1010.1 |
| 20260507131659 | 51 | 326 | 12.2 | 16.5 | 0.00 | 0.00 | 0.00 | 100 | 1010.1 |
| 20260507131537 | 51 | 335 | 12.2 | 16.5 | 0.00 | 0.00 | 0.00 | 100 | 1010.1 |
| 20260507131434 | 51 | 251 | 10.4 | 16.5 | 0.00 | 0.00 | 0.00 | 100 | 1010.1 |
| 20260507131332 | 51 | 313 | 9.6 | 16.5 | 0.00 | 0.00 | 0.00 | 100 | 1009.9 |
| 20260507131231 | 51 | 305 | 10.4 | 16.5 | 0.00 | 0.00 | 0.00 | 100 | 1009.9 |
| 20260507131149 | 51 | 305 | 7.0 | 16.5 | 0.00 | 0.00 | 0.00 | 100 | 1009.9 |
| 20260507131034 | 51 | 315 | 9.6 | 16.5 | 0.00 | 0.00 | 0.00 | 100 | 1009.9 |
| 20260507130952 | 51 | 323 | 9.6 | 16.5 | 0.00 | 0.00 | 0.00 | 100 | 1009.9 |
| 20260507130830 | 51 | 304 | 9.6 | 16.5 | 0.00 | 0.00 | 0.00 | 100 | 1009.9 |
| 20260507130728 | 51 | 329 | 9.6 | 16.5 | 0.00 | 0.00 | 0.00 | 100 | 1009.9 |
| 20260507130647 | 51 | 284 | 11.3 | 16.5 | 0.00 | 0.00 | 0.00 | 100 | 1009.9 |
| 20260507130545 | 51 | 356 | 11.3 | 16.5 | 0.00 | 0.00 | 0.00 | 100 | 1009.9 |
| 20260507130503 | 51 | 274 | 11.3 | 16.5 | 0.00 | 0.00 | 0.00 | 100 | 1009.9 |
| 20260507130340 | 51 | 280 | 11.3 | 16.5 | 0.00 | 0.00 | 0.00 | 100 | 1009.9 |
| 20260507130237 | 51 | 254 | 10.4 | 16.5 | 0.00 | 0.00 | 0.00 | 100 | 1009.9 |
| 20260507130147 | 51 | 329 | 12.2 | 16.5 | 0.00 | 0.00 | 0.00 | 100 | 1009.9 |
| 20260507130025 | 51 | 325 | 13.9 | 17.4 | 0.00 | 0.00 | 0.00 | 100 | 1009.9 |
| 20260507125947 | 51 | 328 | 10.4 | 17.4 | 0.00 | 0.00 | 0.00 | 100 | 1009.9 |
| 20260507125825 | 51 | 332 | 9.6 | 17.4 | 0.00 | 0.00 | 0.00 | 100 | 1010.1 |
| 20260507125724 | 50 | 315 | 9.6 | 17.4 | 0.00 | 0.00 | 0.00 | 100 | 1010.1 |
| 20260507125643 | 51 | 332 | 8.7 | 17.4 | 0.00 | 0.00 | 0.00 | 100 | 1010.1 |
| 20260507125541 | 50 | 332 | 10.4 | 17.4 | 0.00 | 0.00 | 0.00 | 100 | 1010.1 |
| 20260507125443 | 50 | 330 | 11.3 | 17.4 | 0.00 | 0.00 | 0.00 | 100 | 1010.1 |
| 20260507125342 | 50 | 319 | 10.4 | 17.4 | 0.00 | 0.00 | 0.00 | 100 | 1010.1 |
| 20260507125300 | 50 | 328 | 13.0 | 17.4 | 0.00 | 0.00 | 0.00 | 100 | 1010.1 |
| 20260507125158 | 51 | 329 | 14.8 | 17.4 | 0.00 | 0.00 | 0.00 | 100 | 1010.1 |
| 20260507125055 | 50 | 237 | 9.6 | 17.4 | 0.00 | 0.00 | 0.00 | 100 | 1010.1 |
| 20260507124933 | 50 | 315 | 10.4 | 17.4 | 0.00 | 0.00 | 0.00 | 100 | 1010.1 |
| 20260507124831 | 51 | 287 | 11.3 | 17.4 | 0.00 | 0.00 | 0.00 | 100 | 1010.1 |
| 20260507124741 | 51 | 315 | 10.4 | 17.4 | 0.00 | 0.00 | 0.00 | 100 | 1010.1 |
| 20260507124651 | 51 | 319 | 10.4 | 17.4 | 0.00 | 0.00 | 0.00 | 100 | 1010.1 |
| 20260507124534 | 51 | 278 | 13.0 | 17.4 | 0.00 | 0.00 | 0.00 | 100 | 1010.1 |
| 20260507124433 | 51 | 328 | 13.0 | 17.4 | 0.00 | 0.00 | 0.00 | 100 | 1010.1 |
| 20260507124332 | 51 | 313 | 9.6 | 16.5 | 0.00 | 0.00 | 0.00 | 100 | 1009.7 |
| 20260507124230 | 51 | 316 | 11.3 | 16.5 | 0.00 | 0.00 | 0.00 | 100 | 1009.7 |
| 20260507124132 | 51 | 319 | 12.2 | 16.5 | 0.00 | 0.00 | 0.00 | 100 | 1009.7 |
| 20260507124029 | 51 | 291 | 10.4 | 16.5 | 0.00 | 0.00 | 0.00 | 100 | 1009.7 |
| 20260507123929 | 51 | 260 | 7.8 | 16.5 | 0.00 | 0.00 | 0.00 | 100 | 1009.7 |
| 20260507123832 | 51 | 267 | 11.3 | 16.5 | 0.00 | 0.00 | 0.00 | 100 | 1009.7 |
| 20260507123732 | 51 | 208 | 12.2 | 17.4 | 0.00 | 0.00 | 0.00 | 100 | 1009.7 |
| 20260507123630 | 51 | 282 | 8.7 | 17.4 | 0.00 | 0.00 | 0.00 | 100 | 1009.7 |
| 20260507123531 | 51 | 329 | 7.8 | 17.4 | 0.00 | 0.00 | 0.00 | 100 | 1009.7 |
| 20260507123430 | 51 | 237 | 9.6 | 17.4 | 0.00 | 0.00 | 0.00 | 100 | 1009.7 |
| 20260507123328 | 51 | 270 | 10.4 | 17.4 | 0.00 | 0.00 | 0.00 | 100 | 1009.7 |
| 20260507123242 | 51 | 285 | 7.8 | 17.4 | 0.00 | 0.00 | 0.00 | 100 | 1009.7 |
| 20260507123152 | 51 | 312 | 10.4 | 17.4 | 0.00 | 0.00 | 0.00 | 100 | 1009.7 |
| 20260507123029 | 51 | 253 | 9.6 | 17.4 | 0.00 | 0.00 | 0.00 | 100 | 1009.7 |
| 20260507122928 | 51 | 264 | 11.3 | 18.2 | 0.00 | 0.00 | 0.00 | 100 | 1009.7 |
| 20260507122827 | 51 | 188 | 14.8 | 18.2 | 0.00 | 0.00 | 0.00 | 100 | 1009.7 |
| 20260507122729 | 51 | 285 | 13.0 | 18.2 | 0.00 | 0.00 | 0.00 | 100 | 1009.7 |
| 20260507122629 | 51 | 208 | 11.3 | 18.2 | 0.00 | 0.00 | 0.00 | 100 | 1009.7 |
| 20260507122531 | 51 | 320 | 13.0 | 18.2 | 0.00 | 0.00 | 0.00 | 100 | 1009.7 |
| 20260507122429 | 51 | 308 | 10.4 | 18.2 | 0.00 | 0.00 | 0.00 | 100 | 1009.7 |
| 20260507122328 | 51 | 326 | 12.2 | 18.2 | 0.00 | 0.00 | 0.00 | 100 | 1009.7 |
| 20260507122250 | 51 | 261 | 13.9 | 18.2 | 0.00 | 0.00 | 0.00 | 100 | 1009.7 |
| 20260507122149 | 51 | 312 | 13.0 | 18.2 | 0.00 | 0.00 | 0.00 | 100 | 1009.7 |
| 20260507122026 | 51 | 271 | 13.9 | 17.4 | 0.00 | 0.00 | 0.00 | 100 | 1009.7 |
| 20260507121945 | 51 | 236 | 10.4 | 17.4 | 0.00 | 0.00 | 0.00 | 100 | 1009.7 |
| 20260507121824 | 51 | 282 | 11.3 | 17.4 | 0.00 | 0.00 | 0.00 | 100 | 1009.7 |
| 20260507121728 | 51 | 326 | 11.3 | 17.4 | 0.00 | 0.00 | 0.00 | 100 | 1009.7 |
| 20260507121658 | 51 | 298 | 11.3 | 17.4 | 0.00 | 0.00 | 0.00 | 100 | 1009.7 |
| 20260507121535 | 51 | 320 | 7.8 | 17.4 | 0.00 | 0.00 | 0.00 | 100 | 1009.7 |
| 20260507121436 | 51 | 237 | 9.6 | 17.4 | 0.00 | 0.00 | 0.00 | 100 | 1009.7 |
| 20260507121334 | 51 | 280 | 13.0 | 17.4 | 0.00 | 0.00 | 0.00 | 100 | 1009.3 |
| 20260507121254 | 51 | 281 | 11.3 | 17.4 | 0.00 | 0.00 | 0.00 | 99 | 1009.3 |
| 20260507121152 | 51 | 328 | 11.3 | 17.4 | 0.00 | 0.00 | 0.00 | 99 | 1009.3 |
| 20260507121030 | 51 | 233 | 11.3 | 17.4 | 0.00 | 0.00 | 0.00 | 99 | 1009.3 |
| 20260507120932 | 51 | 220 | 12.2 | 17.4 | 0.00 | 0.00 | 0.00 | 99 | 1009.3 |
| 20260507120853 | 51 | 104 | 8.7 | 17.4 | 0.00 | 0.00 | 0.00 | 99 | 1009.3 |
| 20260507120750 | 51 | 312 | 12.2 | 17.4 | 0.00 | 0.00 | 0.00 | 99 | 1009.3 |
| 20260507120628 | 51 | 299 | 11.3 | 17.4 | 0.00 | 0.00 | 0.00 | 99 | 1009.3 |
| 20260507120526 | 51 | 152 | 11.3 | 17.4 | 0.00 | 0.00 | 0.00 | 99 | 1009.3 |
| 20260507120444 | 51 | 246 | 11.3 | 18.2 | 0.00 | 0.00 | 0.00 | 99 | 1009.3 |
| 20260507120343 | 51 | 305 | 11.3 | 18.2 | 0.00 | 0.00 | 0.00 | 99 | 1009.3 |
| 20260507120232 | 51 | 326 | 11.3 | 18.2 | 0.00 | 0.00 | 0.00 | 99 | 1009.3 |
| 20260507120147 | 51 | 274 | 9.6 | 18.2 | 0.00 | 0.00 | 0.00 | 99 | 1009.3 |
| 20260507120043 | 51 | 312 | 9.6 | 18.2 | 0.00 | 0.00 | 0.00 | 99 | 1009.3 |
| 20260507115942 | 51 | 233 | 12.2 | 18.2 | 0.00 | 0.00 | 0.00 | 99 | 1009.3 |
| 20260507115901 | 51 | 260 | 13.0 | 18.2 | 0.00 | 0.00 | 0.00 | 99 | 1009.0 |
| 20260507115738 | 51 | 247 | 11.3 | 18.2 | 0.00 | 0.00 | 0.00 | 99 | 1009.0 |
| 20260507115657 | 51 | 200 | 12.2 | 18.2 | 0.00 | 0.00 | 0.00 | 99 | 1009.0 |
| 20260507115535 | 51 | 299 | 11.3 | 17.4 | 0.00 | 0.00 | 0.00 | 99 | 1009.0 |
| 20260507115433 | 51 | 236 | 10.4 | 17.4 | 0.00 | 0.00 | 0.00 | 99 | 1009.0 |
| 20260507115337 | 51 | 176 | 10.4 | 17.4 | 0.00 | 0.00 | 0.00 | 99 | 1009.0 |
| 20260507115234 | 51 | 287 | 13.0 | 17.4 | 0.00 | 0.00 | 0.00 | 99 | 1009.0 |
| 20260507115133 | 51 | 294 | 10.4 | 17.4 | 0.00 | 0.00 | 0.00 | 99 | 1009.0 |
| 20260507115032 | 51 | 325 | 11.3 | 17.4 | 0.00 | 0.00 | 0.00 | 99 | 1009.0 |
| 20260507114930 | 51 | 278 | 13.9 | 17.4 | 0.00 | 0.00 | 0.00 | 99 | 1009.0 |
| 20260507114830 | 51 | 291 | 14.8 | 17.4 | 0.00 | 0.00 | 0.00 | 99 | 1009.0 |
| 20260507114738 | 51 | 309 | 11.3 | 17.4 | 0.00 | 0.00 | 0.00 | 99 | 1009.0 |
| 20260507114651 | 51 | 325 | 12.2 | 17.4 | 0.00 | 0.00 | 0.00 | 99 | 1009.0 |
| 20260507114530 | 51 | 229 | 12.2 | 17.4 | 0.00 | 0.00 | 0.00 | 99 | 1009.0 |
| 20260507114429 | 51 | 243 | 11.3 | 16.5 | 0.00 | 0.00 | 0.00 | 99 | 1009.0 |
| 20260507114348 | 51 | 316 | 10.4 | 16.5 | 0.00 | 0.00 | 0.00 | 99 | 1009.2 |
| 20260507114245 | 51 | 326 | 10.4 | 16.5 | 0.00 | 0.00 | 0.00 | 99 | 1009.2 |
| 20260507114144 | 51 | 332 | 10.4 | 16.5 | 0.00 | 0.00 | 0.00 | 99 | 1009.2 |
| 20260507114104 | 51 | 325 | 10.4 | 16.5 | 0.00 | 0.00 | 0.00 | 99 | 1009.2 |
| 20260507114001 | 51 | 264 | 10.4 | 16.5 | 0.00 | 0.00 | 0.00 | 99 | 1009.2 |
| 20260507113838 | 51 | 315 | 13.0 | 16.5 | 0.00 | 0.00 | 0.00 | 99 | 1009.2 |
| 20260507113741 | 51 | 328 | 11.3 | 16.5 | 0.00 | 0.00 | 0.00 | 99 | 1009.2 |
| 20260507113639 | 51 | 313 | 11.3 | 16.5 | 0.00 | 0.00 | 0.00 | 99 | 1009.2 |
| 20260507113539 | 51 | 216 | 12.2 | 16.5 | 0.00 | 0.00 | 0.00 | 99 | 1009.2 |
| 20260507113437 | 51 | 326 | 8.7 | 16.5 | 0.00 | 0.00 | 0.00 | 99 | 1009.2 |
| 20260507113335 | 51 | 301 | 11.3 | 16.5 | 0.00 | 0.00 | 0.00 | 99 | 1009.2 |
| 20260507113253 | 51 | 323 | 7.8 | 16.5 | 0.00 | 0.00 | 0.00 | 99 | 1009.2 |
| 20260507113225 | 51 | 320 | 9.6 | 17.4 | 0.00 | 0.00 | 0.00 | 99 | 1009.2 |
| 20260507113040 | 51 | 309 | 11.3 | 17.4 | 0.00 | 0.00 | 0.00 | 99 | 1009.2 |
| 20260507112924 | 51 | 203 | 10.4 | 17.4 | 0.00 | 0.00 | 0.00 | 99 | 1009.2 |
| 20260507112843 | 51 | 271 | 9.6 | 17.4 | 0.00 | 0.00 | 0.00 | 99 | 1008.7 |
| 20260507112801 | 51 | 326 | 10.4 | 17.4 | 0.00 | 0.00 | 0.00 | 99 | 1008.7 |
| 20260507112640 | 51 | 325 | 11.3 | 17.4 | 0.00 | 0.00 | 0.00 | 99 | 1008.7 |
| 20260507112539 | 51 | 282 | 12.2 | 17.4 | 0.00 | 0.00 | 0.00 | 99 | 1008.7 |
| 20260507112438 | 51 | 308 | 12.2 | 17.4 | 0.00 | 0.00 | 0.00 | 99 | 1008.7 |
| 20260507112340 | 51 | 280 | 11.3 | 17.4 | 0.00 | 0.00 | 0.00 | 99 | 1008.7 |
| 20260507112241 | 51 | 288 | 13.0 | 17.4 | 0.00 | 0.00 | 0.00 | 99 | 1008.7 |
| 20260507112140 | 51 | 288 | 11.3 | 18.2 | 0.00 | 0.00 | 0.00 | 99 | 1008.7 |
| 20260507112038 | 51 | 268 | 11.3 | 18.2 | 0.00 | 0.00 | 0.00 | 99 | 1008.7 |
| 20260507111937 | 51 | 294 | 10.4 | 18.2 | 0.00 | 0.00 | 0.00 | 99 | 1008.7 |
| 20260507111835 | 51 | 298 | 12.2 | 18.2 | 0.00 | 0.00 | 0.00 | 99 | 1008.7 |
| 20260507111735 | 51 | 278 | 12.2 | 18.2 | 0.00 | 0.00 | 0.00 | 99 | 1008.7 |
| 20260507111704 | 51 | 299 | 11.3 | 18.2 | 0.00 | 0.00 | 0.00 | 99 | 1008.7 |
| 20260507111526 | 51 | 291 | 11.3 | 18.2 | 0.00 | 0.00 | 0.00 | 99 | 1008.7 |
| 20260507111424 | 51 | 325 | 11.3 | 18.2 | 0.00 | 0.00 | 0.00 | 99 | 1008.7 |
| 20260507111343 | 51 | 309 | 12.2 | 18.2 | 0.00 | 0.00 | 0.00 | 99 | 1008.6 |
| 20260507111241 | 51 | 302 | 14.8 | 18.2 | 0.00 | 0.00 | 0.00 | 99 | 1008.6 |
| 20260507111139 | 51 | 287 | 11.3 | 16.5 | 0.00 | 0.00 | 0.00 | 99 | 1008.6 |
| 20260507111038 | 51 | 330 | 10.4 | 15.6 | 0.00 | 0.00 | 0.00 | 99 | 1008.6 |
| 20260507110957 | 51 | 330 | 11.3 | 15.6 | 0.00 | 0.00 | 0.00 | 99 | 1008.6 |
| 20260507110839 | 51 | 335 | 10.4 | 15.6 | 0.00 | 0.00 | 0.00 | 99 | 1008.6 |
| 20260507110737 | 51 | 299 | 10.4 | 15.6 | 0.00 | 0.00 | 0.00 | 99 | 1008.6 |
| 20260507110655 | 51 | 330 | 9.6 | 15.6 | 0.00 | 0.00 | 0.00 | 99 | 1008.6 |
| 20260507110533 | 51 | 322 | 10.4 | 15.6 | 0.00 | 0.00 | 0.00 | 99 | 1008.6 |
| 20260507110431 | 51 | 328 | 10.4 | 15.6 | 0.00 | 0.00 | 0.00 | 99 | 1008.6 |
| 20260507110331 | 51 | 315 | 11.3 | 16.5 | 0.00 | 0.00 | 0.00 | 99 | 1008.6 |
| 20260507110240 | 51 | 318 | 10.4 | 16.5 | 0.00 | 0.00 | 0.00 | 99 | 1008.6 |
| 20260507110150 | 51 | 332 | 10.4 | 16.5 | 0.00 | 0.00 | 0.00 | 99 | 1008.6 |
| 20260507110031 | 51 | 325 | 10.4 | 16.5 | 0.00 | 0.00 | 0.00 | 99 | 1008.6 |
| 20260507105949 | 51 | 332 | 9.6 | 16.5 | 0.00 | 0.00 | 0.00 | 99 | 1008.6 |
| 20260507105846 | 51 | 309 | 9.6 | 16.5 | 0.00 | 0.00 | 0.00 | 99 | 1008.3 |
| 20260507105724 | 51 | 302 | 10.4 | 16.5 | 0.00 | 0.00 | 0.00 | 99 | 1008.3 |
| 20260507105641 | 51 | 294 | 10.4 | 16.5 | 0.00 | 0.00 | 0.00 | 99 | 1008.3 |
| 20260507105540 | 51 | 332 | 11.3 | 16.5 | 0.00 | 0.00 | 0.00 | 99 | 1008.3 |
| 20260507105438 | 51 | 274 | 12.2 | 16.5 | 0.00 | 0.00 | 0.00 | 99 | 1008.3 |
| 20260507105358 | 51 | 322 | 13.0 | 16.5 | 0.00 | 0.00 | 0.00 | 98 | 1008.3 |
| 20260507105256 | 51 | 316 | 9.6 | 16.5 | 0.00 | 0.00 | 0.00 | 98 | 1008.3 |
| 20260507105158 | 51 | 326 | 11.3 | 16.5 | 0.00 | 0.00 | 0.00 | 99 | 1008.3 |
| 20260507105035 | 51 | 326 | 11.3 | 16.5 | 0.00 | 0.00 | 0.00 | 98 | 1008.3 |
| 20260507104935 | 51 | 308 | 10.4 | 15.6 | 0.00 | 0.00 | 0.00 | 99 | 1008.3 |
| 20260507104832 | 51 | 332 | 11.3 | 16.5 | 0.00 | 0.00 | 0.00 | 99 | 1008.3 |
| 20260507104743 | 51 | 329 | 12.2 | 16.5 | 0.00 | 0.00 | 0.00 | 98 | 1008.3 |
| 20260507104652 | 51 | 330 | 11.3 | 16.5 | 0.00 | 0.00 | 0.00 | 98 | 1008.3 |
| 20260507104550 | 51 | 328 | 9.6 | 16.5 | 0.00 | 0.00 | 0.00 | 99 | 1008.3 |
| 20260507104425 | 51 | 313 | 11.3 | 16.5 | 0.00 | 0.00 | 0.00 | 99 | 1008.3 |
| 20260507104347 | 51 | 304 | 11.3 | 16.5 | 0.00 | 0.00 | 0.00 | 99 | 1008.3 |
| 20260507104305 | 51 | 328 | 10.4 | 16.5 | 0.00 | 0.00 | 0.00 | 98 | 1008.3 |
| 20260507104202 | 51 | 326 | 10.4 | 17.4 | 0.00 | 0.00 | 0.00 | 99 | 1008.3 |
| 20260507104100 | 51 | 288 | 12.2 | 17.4 | 0.00 | 0.00 | 0.00 | 99 | 1008.3 |
| 20260507103938 | 51 | 265 | 12.2 | 17.4 | 0.00 | 0.00 | 0.00 | 99 | 1008.3 |
| 20260507103837 | 51 | 326 | 11.3 | 18.2 | 0.00 | 0.00 | 0.00 | 99 | 1008.3 |
| 20260507103735 | 51 | 325 | 9.6 | 18.2 | 0.00 | 0.00 | 0.00 | 99 | 1008.3 |
| 20260507103653 | 51 | 323 | 10.4 | 18.2 | 0.00 | 0.00 | 0.00 | 99 | 1008.3 |
| 20260507103531 | 51 | 330 | 12.2 | 18.2 | 0.00 | 0.00 | 0.00 | 99 | 1008.3 |
| 20260507103434 | 51 | 329 | 12.2 | 18.2 | 0.00 | 0.00 | 0.00 | 99 | 1008.3 |
| 20260507103334 | 51 | 216 | 13.0 | 18.2 | 0.00 | 0.00 | 0.00 | 99 | 1008.3 |
| 20260507103233 | 51 | 295 | 11.3 | 18.2 | 0.00 | 0.00 | 0.00 | 99 | 1008.3 |
| 20260507103203 | 51 | 281 | 11.3 | 18.2 | 0.00 | 0.00 | 0.00 | 99 | 1008.3 |
| 20260507103039 | 51 | 335 | 12.2 | 18.2 | 0.00 | 0.00 | 0.00 | 99 | 1008.3 |
| 20260507102938 | 51 | 312 | 13.0 | 18.2 | 0.00 | 0.00 | 0.00 | 98 | 1008.3 |
| 20260507102838 | 51 | 308 | 11.3 | 17.4 | 0.00 | 0.00 | 0.00 | 98 | 1008.2 |
| 20260507102756 | 51 | 308 | 10.4 | 17.4 | 0.00 | 0.00 | 0.00 | 98 | 1008.2 |
| 20260507102638 | 51 | 318 | 12.2 | 17.4 | 0.00 | 0.00 | 0.00 | 99 | 1008.2 |
| 20260507102536 | 51 | 347 | 11.3 | 17.4 | 0.00 | 0.00 | 0.00 | 99 | 1008.2 |
| 20260507102455 | 51 | 326 | 10.4 | 17.4 | 0.00 | 0.00 | 0.00 | 99 | 1008.2 |
| 20260507102353 | 51 | 292 | 13.0 | 17.4 | 0.00 | 0.00 | 0.00 | 98 | 1008.2 |
| 20260507102251 | 51 | 257 | 10.4 | 16.5 | 0.00 | 0.00 | 0.00 | 99 | 1008.2 |
| 20260507102128 | 51 | 263 | 8.7 | 16.5 | 0.00 | 0.00 | 0.00 | 99 | 1008.2 |
| 20260507102026 | 51 | 306 | 11.3 | 16.5 | 0.00 | 0.00 | 0.00 | 98 | 1008.2 |
| 20260507101924 | 51 | 291 | 9.6 | 18.2 | 0.00 | 0.00 | 0.00 | 98 | 1008.2 |
| 20260507101827 | 51 | 278 | 11.3 | 18.2 | 0.00 | 0.00 | 0.00 | 99 | 1008.2 |
| 20260507101725 | 51 | 323 | 11.3 | 18.2 | 0.00 | 0.00 | 0.00 | 99 | 1008.2 |
| 20260507101656 | 51 | 332 | 9.6 | 18.2 | 0.00 | 0.00 | 0.00 | 99 | 1008.2 |
| 20260507101533 | 51 | 333 | 11.3 | 18.2 | 0.00 | 0.00 | 0.00 | 98 | 1008.2 |
| 20260507101432 | 51 | 206 | 12.2 | 18.2 | 0.00 | 0.00 | 0.00 | 98 | 1008.2 |
| 20260507101331 | 51 | 322 | 11.3 | 18.2 | 0.00 | 0.00 | 0.00 | 98 | 1007.8 |
| 20260507101229 | 51 | 330 | 10.4 | 18.2 | 0.00 | 0.00 | 0.00 | 98 | 1007.8 |
| 20260507101133 | 51 | 277 | 12.2 | 18.2 | 0.00 | 0.00 | 0.00 | 98 | 1007.8 |
| 20260507101032 | 51 | 284 | 13.0 | 18.2 | 0.00 | 0.00 | 0.00 | 98 | 1007.8 |
| 20260507100950 | 51 | 271 | 13.0 | 18.2 | 0.00 | 0.00 | 0.00 | 98 | 1007.8 |
| 20260507100827 | 51 | 272 | 11.3 | 18.2 | 0.00 | 0.00 | 0.00 | 98 | 1007.8 |
| 20260507100725 | 51 | 243 | 10.4 | 18.2 | 0.00 | 0.00 | 0.00 | 98 | 1007.8 |
| 20260507100644 | 51 | 302 | 11.3 | 18.2 | 0.00 | 0.00 | 0.00 | 98 | 1007.8 |
| 20260507100542 | 51 | 329 | 13.0 | 18.2 | 0.00 | 0.00 | 0.00 | 98 | 1007.8 |
| 20260507100425 | 51 | 312 | 10.4 | 16.5 | 0.00 | 0.00 | 0.00 | 98 | 1007.8 |
| 20260507100324 | 51 | 333 | 12.2 | 16.5 | 0.00 | 0.00 | 0.00 | 98 | 1007.8 |
| 20260507100243 | 51 | 329 | 11.3 | 16.5 | 0.00 | 0.00 | 0.00 | 98 | 1007.8 |
| 20260507100215 | 51 | 291 | 13.0 | 18.2 | 0.00 | 0.00 | 0.00 | 98 | 1007.8 |
| 20260507100031 | 51 | 302 | 11.3 | 19.1 | 0.00 | 0.00 | 0.00 | 98 | 1007.8 |
| 20260507095929 | 51 | 253 | 12.2 | 19.1 | 0.00 | 0.00 | 0.00 | 98 | 1007.8 |
| 20260507095848 | 51 | 168 | 10.4 | 19.1 | 0.00 | 0.00 | 0.00 | 98 | 1008.5 |
| 20260507095746 | 51 | 332 | 11.3 | 19.1 | 0.00 | 0.00 | 0.00 | 98 | 1008.5 |
| 20260507095625 | 51 | 315 | 13.9 | 19.1 | 0.00 | 0.00 | 0.00 | 98 | 1008.5 |
| 20260507095526 | 51 | 265 | 11.3 | 19.1 | 0.00 | 0.00 | 0.00 | 98 | 1008.5 |
| 20260507095424 | 51 | 320 | 9.6 | 19.1 | 0.00 | 0.00 | 0.00 | 98 | 1008.5 |
| 20260507095342 | 51 | 291 | 12.2 | 19.1 | 0.00 | 0.00 | 0.00 | 98 | 1008.5 |
| 20260507095301 | 51 | 308 | 13.9 | 19.1 | 0.00 | 0.00 | 0.00 | 98 | 1008.5 |
| 20260507095142 | 51 | 308 | 10.4 | 17.4 | 0.00 | 0.00 | 0.00 | 98 | 1008.5 |
| 20260507095040 | 51 | 328 | 12.2 | 17.4 | 0.00 | 0.00 | 0.00 | 98 | 1008.5 |
| 20260507094938 | 51 | 318 | 11.3 | 18.2 | 0.00 | 0.00 | 0.00 | 98 | 1008.5 |
| 20260507094835 | 51 | 319 | 13.0 | 18.2 | 0.00 | 0.00 | 0.00 | 98 | 1008.5 |
| 20260507094738 | 51 | 301 | 9.6 | 18.2 | 0.00 | 0.00 | 0.00 | 98 | 1008.5 |
| 20260507094708 | 51 | 325 | 9.6 | 18.2 | 0.00 | 0.00 | 0.00 | 98 | 1008.5 |
| 20260507094524 | 52 | 325 | 12.2 | 18.2 | 0.00 | 0.00 | 0.00 | 98 | 1008.5 |
| 20260507094443 | 52 | 243 | 9.6 | 18.2 | 0.00 | 0.00 | 0.00 | 98 | 1008.5 |
| 20260507094340 | 52 | 212 | 10.4 | 18.2 | 0.00 | 0.00 | 0.00 | 98 | 1007.7 |
| 20260507094240 | 52 | 295 | 12.2 | 18.2 | 0.00 | 0.00 | 0.00 | 98 | 1007.7 |
| 20260507094137 | 52 | 316 | 13.0 | 18.2 | 0.00 | 0.00 | 0.00 | 98 | 1007.7 |
| 20260507094036 | 52 | 296 | 8.7 | 17.4 | 0.00 | 0.00 | 0.00 | 98 | 1007.7 |
| 20260507093939 | 52 | 233 | 11.3 | 20.9 | 0.00 | 0.00 | 0.00 | 98 | 1007.7 |
| 20260507093837 | 52 | 292 | 10.4 | 20.9 | 0.00 | 0.00 | 0.00 | 98 | 1007.7 |
| 20260507093735 | 52 | 247 | 10.4 | 20.9 | 0.00 | 0.00 | 0.00 | 98 | 1007.7 |
| 20260507093654 | 52 | 330 | 10.4 | 20.9 | 0.00 | 0.00 | 0.00 | 98 | 1007.7 |
| 20260507093531 | 52 | 304 | 12.2 | 20.9 | 0.00 | 0.00 | 0.00 | 98 | 1007.7 |
| 20260507093428 | 52 | 212 | 12.2 | 20.9 | 0.00 | 0.00 | 0.00 | 98 | 1007.7 |
| 20260507093348 | 52 | 191 | 12.2 | 20.9 | 0.00 | 0.00 | 0.00 | 98 | 1007.7 |
| 20260507093306 | 52 | 295 | 10.4 | 20.9 | 0.00 | 0.00 | 0.00 | 98 | 1007.7 |
| 20260507093202 | 52 | 306 | 13.9 | 20.9 | 0.00 | 0.00 | 0.00 | 98 | 1007.7 |
| 20260507093039 | 52 | 102 | 10.4 | 17.4 | 0.00 | 0.00 | 0.00 | 98 | 1007.7 |
| 20260507092938 | 52 | 264 | 11.3 | 17.4 | 0.00 | 0.00 | 0.00 | 98 | 1007.7 |
| 20260507092837 | 52 | 284 | 11.3 | 17.4 | 0.00 | 0.00 | 0.00 | 98 | 1008.2 |
| 20260507092735 | 52 | 313 | 11.3 | 17.4 | 0.00 | 0.00 | 0.00 | 98 | 1008.2 |
| 20260507092634 | 52 | 313 | 13.0 | 17.4 | 0.00 | 0.00 | 0.00 | 98 | 1008.2 |
| 20260507092533 | 52 | 226 | 12.2 | 17.4 | 0.00 | 0.00 | 0.00 | 98 | 1008.2 |
| 20260507092436 | 52 | 124 | 13.0 | 17.4 | 0.00 | 0.00 | 0.00 | 98 | 1008.2 |
| 20260507092334 | 52 | 234 | 11.3 | 16.5 | 0.00 | 0.00 | 0.00 | 98 | 1008.2 |
| 20260507092253 | 52 | 312 | 11.3 | 16.5 | 0.00 | 0.00 | 0.00 | 98 | 1008.2 |
| 20260507092129 | 52 | 326 | 13.0 | 16.5 | 0.00 | 0.00 | 0.00 | 98 | 1008.2 |
| 20260507092028 | 52 | 287 | 14.8 | 16.5 | 0.00 | 0.00 | 0.00 | 98 | 1008.2 |
| 20260507091947 | 52 | 305 | 12.2 | 15.6 | 0.00 | 0.00 | 0.00 | 98 | 1008.2 |
| 20260507091845 | 52 | 227 | 12.2 | 15.6 | 0.00 | 0.00 | 0.00 | 98 | 1008.2 |
| 20260507091733 | 52 | 289 | 10.4 | 15.6 | 0.00 | 0.00 | 0.00 | 98 | 1008.2 |
| 20260507091646 | 52 | 227 | 12.2 | 15.6 | 0.00 | 0.00 | 0.00 | 98 | 1008.2 |
| 20260507091524 | 52 | 246 | 9.6 | 14.8 | 0.00 | 0.00 | 0.00 | 98 | 1008.2 |
| 20260507091443 | 52 | 330 | 10.4 | 14.8 | 0.00 | 0.00 | 0.00 | 98 | 1008.2 |
| 20260507091340 | 52 | 274 | 12.2 | 14.8 | 0.00 | 0.00 | 0.00 | 98 | 1008.3 |
| 20260507091238 | 52 | 319 | 13.0 | 14.8 | 0.00 | 0.00 | 0.00 | 98 | 1008.3 |
| 20260507091158 | 52 | 274 | 10.4 | 14.8 | 0.00 | 0.00 | 0.00 | 98 | 1008.3 |
| 20260507091035 | 52 | 296 | 9.6 | 14.8 | 0.00 | 0.00 | 0.00 | 98 | 1008.3 |
| 20260507090934 | 52 | 270 | 7.8 | 14.8 | 0.00 | 0.00 | 0.00 | 98 | 1008.3 |
| 20260507090852 | 52 | 295 | 9.6 | 14.8 | 0.00 | 0.00 | 0.00 | 98 | 1008.3 |
| 20260507090733 | 52 | 236 | 9.6 | 14.8 | 0.00 | 0.00 | 0.00 | 98 | 1008.3 |
| 20260507090632 | 52 | 86 | 8.7 | 16.5 | 0.00 | 0.00 | 0.00 | 98 | 1008.3 |
| 20260507090530 | 52 | 299 | 8.7 | 16.5 | 0.00 | 0.00 | 0.00 | 98 | 1008.3 |
| 20260507090430 | 52 | 295 | 10.4 | 16.5 | 0.00 | 0.00 | 0.00 | 98 | 1008.3 |
| 20260507090329 | 52 | 318 | 9.6 | 16.5 | 0.00 | 0.00 | 0.00 | 98 | 1008.3 |
| 20260507090239 | 52 | 326 | 8.7 | 16.5 | 0.00 | 0.00 | 0.00 | 98 | 1008.3 |
| 20260507090150 | 52 | 329 | 8.7 | 16.5 | 0.00 | 0.00 | 0.00 | 98 | 1008.3 |
| 20260507090030 | 52 | 292 | 10.4 | 16.5 | 0.00 | 0.00 | 0.00 | 98 | 1008.3 |
| 20260507085929 | 52 | 299 | 11.3 | 16.5 | 0.00 | 0.00 | 0.00 | 98 | 1008.3 |
| 20260507085827 | 52 | 251 | 13.9 | 16.5 | 0.00 | 0.00 | 0.00 | 98 | 1008.0 |
| 20260507085727 | 52 | 328 | 10.4 | 14.8 | 0.00 | 0.00 | 0.00 | 98 | 1008.0 |
| 20260507085624 | 52 | 319 | 9.6 | 14.8 | 0.00 | 0.00 | 0.00 | 98 | 1008.0 |
| 20260507085544 | 52 | 284 | 8.7 | 14.8 | 0.00 | 0.00 | 0.00 | 98 | 1008.0 |
| 20260507085441 | 52 | 69 | 7.8 | 15.6 | 0.00 | 0.00 | 0.00 | 98 | 1008.0 |
| 20260507085404 | 52 | 294 | 7.8 | 15.6 | 0.00 | 0.00 | 0.00 | 98 | 1008.0 |
| 20260507085242 | 52 | 328 | 9.6 | 16.5 | 0.00 | 0.00 | 0.00 | 98 | 1008.0 |
| 20260507085140 | 52 | 306 | 10.4 | 16.5 | 0.00 | 0.00 | 0.00 | 98 | 1008.0 |
| 20260507085039 | 52 | 326 | 10.4 | 16.5 | 0.00 | 0.00 | 0.00 | 98 | 1008.0 |
| 20260507084937 | 52 | 323 | 9.6 | 16.5 | 0.00 | 0.00 | 0.00 | 98 | 1008.0 |
| 20260507084835 | 52 | 302 | 9.6 | 16.5 | 0.00 | 0.00 | 0.00 | 98 | 1008.0 |
| 20260507084734 | 52 | 323 | 10.4 | 16.5 | 0.00 | 0.00 | 0.00 | 98 | 1008.0 |
| 20260507084708 | 52 | 313 | 12.2 | 17.4 | 0.00 | 0.00 | 0.00 | 98 | 1008.0 |
| 20260507084525 | 52 | 316 | 10.4 | 17.4 | 0.00 | 0.00 | 0.00 | 98 | 1008.0 |
| 20260507084424 | 52 | 184 | 13.9 | 17.4 | 0.00 | 0.00 | 0.00 | 98 | 1008.0 |
| 20260507084341 | 52 | 311 | 13.9 | 17.4 | 0.00 | 0.00 | 0.00 | 98 | 1008.8 |
| 20260507084239 | 52 | 328 | 10.4 | 17.4 | 0.00 | 0.00 | 0.00 | 98 | 1008.8 |
| 20260507084138 | 52 | 313 | 7.8 | 17.4 | 0.00 | 0.00 | 0.00 | 98 | 1008.8 |
| 20260507084036 | 52 | 311 | 10.4 | 17.4 | 0.00 | 0.00 | 0.00 | 98 | 1008.8 |
| 20260507083939 | 52 | 219 | 11.3 | 17.4 | 0.00 | 0.00 | 0.00 | 98 | 1008.8 |
| 20260507083858 | 52 | 329 | 13.0 | 17.4 | 0.00 | 0.00 | 0.00 | 98 | 1008.8 |
| 20260507083736 | 52 | 319 | 12.2 | 17.4 | 0.00 | 0.00 | 0.00 | 98 | 1008.8 |
| 20260507083634 | 52 | 298 | 13.0 | 15.6 | 0.00 | 0.00 | 0.00 | 98 | 1008.8 |
| 20260507083533 | 52 | 306 | 12.2 | 15.6 | 0.00 | 0.00 | 0.00 | 98 | 1008.8 |
| 20260507083431 | 52 | 313 | 11.3 | 15.6 | 0.00 | 0.00 | 0.00 | 98 | 1008.8 |
| 20260507083330 | 52 | 318 | 12.2 | 15.6 | 0.00 | 0.00 | 0.00 | 98 | 1008.8 |
| 20260507083243 | 52 | 326 | 9.6 | 14.8 | 0.00 | 0.00 | 0.00 | 98 | 1008.8 |
| 20260507083154 | 52 | 240 | 10.4 | 14.8 | 0.00 | 0.00 | 0.00 | 98 | 1008.8 |
| 20260507083030 | 52 | 254 | 8.7 | 14.8 | 0.00 | 0.00 | 0.00 | 98 | 1008.8 |
| 20260507082929 | 52 | 344 | 9.6 | 14.8 | 0.00 | 0.00 | 0.00 | 98 | 1008.8 |
| 20260507082827 | 52 | 325 | 7.8 | 14.8 | 0.00 | 0.00 | 0.00 | 98 | 1008.8 |
| 20260507082745 | 52 | 326 | 11.3 | 14.8 | 0.00 | 0.00 | 0.00 | 98 | 1008.8 |
| 20260507082642 | 52 | 308 | 9.6 | 14.8 | 0.00 | 0.00 | 0.00 | 98 | 1008.8 |
| 20260507082539 | 52 | 306 | 11.3 | 14.8 | 0.00 | 0.00 | 0.00 | 98 | 1008.8 |
| 20260507082442 | 52 | 301 | 10.4 | 14.8 | 0.00 | 0.00 | 0.00 | 98 | 1008.8 |
| 20260507082342 | 52 | 328 | 8.7 | 16.5 | 0.00 | 0.00 | 0.00 | 98 | 1008.8 |
| 20260507082301 | 52 | 326 | 8.7 | 16.5 | 0.00 | 0.00 | 0.00 | 98 | 1008.8 |
| 20260507082138 | 52 | 250 | 9.6 | 16.5 | 0.00 | 0.00 | 0.00 | 98 | 1008.8 |
| 20260507082037 | 52 | 315 | 7.8 | 16.5 | 0.00 | 0.00 | 0.00 | 98 | 1008.8 |
| 20260507081936 | 52 | 312 | 7.8 | 16.5 | 0.00 | 0.00 | 0.00 | 98 | 1008.8 |
| 20260507081854 | 52 | 322 | 7.8 | 16.5 | 0.00 | 0.00 | 0.00 | 98 | 1008.8 |
| 20260507081732 | 52 | 272 | 9.6 | 16.5 | 0.00 | 0.00 | 0.00 | 98 | 1008.8 |
| 20260507081705 | 52 | 289 | 8.7 | 16.5 | 0.00 | 0.00 | 0.00 | 98 | 1008.8 |
| 20260507081603 | 52 | 315 | 11.3 | 16.5 | 0.00 | 0.00 | 0.00 | 98 | 1008.8 |
| 20260507081441 | 52 | 325 | 10.4 | 16.5 | 0.00 | 0.00 | 0.00 | 98 | 1008.8 |
| 20260507081340 | 52 | 287 | 10.4 | 13.9 | 0.00 | 0.00 | 0.00 | 98 | 1007.1 |
| 20260507081240 | 52 | 278 | 10.4 | 15.6 | 0.00 | 0.00 | 0.00 | 98 | 1007.1 |
| 20260507081200 | 52 | 302 | 9.6 | 15.6 | 0.00 | 0.00 | 0.00 | 98 | 1007.1 |
| 20260507081036 | 52 | 304 | 7.0 | 15.6 | 0.00 | 0.00 | 0.00 | 98 | 1007.1 |
| 20260507080935 | 52 | 59 | 7.8 | 15.6 | 0.00 | 0.00 | 0.00 | 98 | 1007.1 |
| 20260507080837 | 52 | 329 | 9.6 | 15.6 | 0.00 | 0.00 | 0.00 | 98 | 1007.1 |
| 20260507080735 | 52 | 329 | 8.7 | 15.6 | 0.00 | 0.00 | 0.00 | 98 | 1007.1 |
| 20260507080634 | 52 | 329 | 7.8 | 15.6 | 0.00 | 0.00 | 0.00 | 98 | 1007.1 |
| 20260507080532 | 52 | 294 | 8.7 | 15.6 | 0.00 | 0.00 | 0.00 | 98 | 1007.1 |
| 20260507080432 | 52 | 311 | 12.2 | 15.6 | 0.00 | 0.00 | 0.00 | 98 | 1007.1 |
| 20260507080329 | 52 | 329 | 10.4 | 15.6 | 0.00 | 0.00 | 0.00 | 98 | 1007.1 |
| 20260507080231 | 52 | 325 | 10.4 | 15.6 | 0.00 | 0.00 | 0.00 | 98 | 1007.1 |
| 20260507080204 | 52 | 277 | 9.6 | 15.6 | 0.00 | 0.00 | 0.00 | 98 | 1007.1 |
| 20260507080039 | 52 | 309 | 10.4 | 15.6 | 0.00 | 0.00 | 0.00 | 98 | 1007.1 |
| 20260507075937 | 52 | 323 | 10.4 | 16.5 | 0.00 | 0.00 | 0.00 | 98 | 1007.1 |
| 20260507075834 | 52 | 322 | 12.2 | 16.5 | 0.00 | 0.00 | 0.00 | 98 | 1007.8 |
| 20260507075732 | 52 | 165 | 11.3 | 16.5 | 0.00 | 0.00 | 0.00 | 98 | 1007.8 |
| 20260507075630 | 52 | 281 | 13.9 | 16.5 | 0.00 | 0.00 | 0.00 | 98 | 1007.8 |
| 20260507075550 | 52 | 326 | 10.4 | 16.5 | 0.00 | 0.00 | 0.00 | 98 | 1007.8 |
| 20260507075432 | 52 | 223 | 11.3 | 16.5 | 0.00 | 0.00 | 0.00 | 98 | 1007.8 |
| 20260507075330 | 52 | 305 | 10.4 | 16.5 | 0.00 | 0.00 | 0.00 | 98 | 1007.8 |
| 20260507075232 | 52 | 325 | 10.4 | 17.4 | 0.00 | 0.00 | 0.00 | 98 | 1007.8 |
| 20260507075130 | 52 | 322 | 13.0 | 17.4 | 0.00 | 0.00 | 0.00 | 98 | 1007.8 |
| 20260507075027 | 52 | 313 | 12.2 | 17.4 | 0.00 | 0.00 | 0.00 | 98 | 1007.8 |
| 20260507074926 | 52 | 316 | 12.2 | 17.4 | 0.00 | 0.00 | 0.00 | 98 | 1007.8 |
| 20260507074824 | 52 | 325 | 11.3 | 17.4 | 0.00 | 0.00 | 0.00 | 98 | 1007.8 |
| 20260507074757 | 52 | 326 | 10.4 | 17.4 | 0.00 | 0.00 | 0.00 | 98 | 1007.8 |
| 20260507074646 | 52 | 217 | 13.9 | 17.4 | 0.00 | 0.00 | 0.00 | 98 | 1007.8 |
| 20260507074544 | 52 | 148 | 13.0 | 17.4 | 0.00 | 0.00 | 0.00 | 98 | 1007.8 |
| 20260507074421 | 52 | 267 | 13.0 | 17.4 | 0.00 | 0.00 | 0.00 | 98 | 1007.8 |
| 20260507074342 | 52 | 312 | 11.3 | 17.4 | 0.00 | 0.00 | 0.00 | 98 | 1009.8 |
| 20260507074241 | 52 | 305 | 10.4 | 17.4 | 0.00 | 0.00 | 0.00 | 98 | 1009.8 |
| 20260507074139 | 52 | 328 | 11.3 | 17.4 | 0.00 | 0.00 | 0.00 | 98 | 1009.8 |
| 20260507074038 | 52 | 326 | 13.0 | 17.4 | 0.00 | 0.00 | 0.00 | 98 | 1009.8 |
| 20260507073940 | 52 | 287 | 14.8 | 17.4 | 0.00 | 0.00 | 0.00 | 98 | 1009.8 |
| 20260507073839 | 52 | 261 | 13.9 | 17.4 | 0.00 | 0.00 | 0.00 | 98 | 1009.8 |
| 20260507073738 | 52 | 284 | 10.4 | 16.5 | 0.00 | 0.00 | 0.00 | 98 | 1009.8 |
| 20260507073637 | 52 | 308 | 10.4 | 16.5 | 0.00 | 0.00 | 0.00 | 98 | 1009.8 |
| 20260507073535 | 52 | 312 | 11.3 | 16.5 | 0.00 | 0.00 | 0.00 | 98 | 1009.8 |
| 20260507073433 | 52 | 254 | 13.0 | 16.5 | 0.00 | 0.00 | 0.00 | 98 | 1009.8 |
| 20260507073352 | 52 | 200 | 9.6 | 15.6 | 0.00 | 0.00 | 0.00 | 98 | 1009.8 |
| 20260507073233 | 53 | 248 | 9.6 | 15.6 | 0.00 | 0.00 | 0.00 | 98 | 1009.8 |
| 20260507073204 | 52 | 323 | 10.4 | 15.6 | 0.00 | 0.00 | 0.00 | 98 | 1009.8 |
| 20260507073040 | 53 | 130 | 10.4 | 15.6 | 0.00 | 0.00 | 0.00 | 98 | 1009.8 |
| 20260507072942 | 52 | 328 | 11.3 | 15.6 | 0.00 | 0.00 | 0.00 | 98 | 1009.8 |
| 20260507072900 | 53 | 176 | 8.7 | 15.6 | 0.00 | 0.00 | 0.00 | 98 | 1008.0 |
| 20260507072737 | 53 | 323 | 9.6 | 15.6 | 0.00 | 0.00 | 0.00 | 98 | 1008.0 |
| 20260507072635 | 52 | 330 | 10.4 | 15.6 | 0.00 | 0.00 | 0.00 | 98 | 1008.0 |
| 20260507072534 | 52 | 301 | 8.7 | 15.6 | 0.00 | 0.00 | 0.00 | 98 | 1008.0 |
| 20260507072457 | 53 | 328 | 11.3 | 16.5 | 0.00 | 0.00 | 0.00 | 98 | 1008.0 |
| 20260507072335 | 52 | 323 | 8.7 | 16.5 | 0.00 | 0.00 | 0.00 | 98 | 1008.0 |
| 20260507072253 | 53 | 274 | 10.4 | 16.5 | 0.00 | 0.00 | 0.00 | 98 | 1008.0 |
| 20260507072130 | 52 | 280 | 11.3 | 16.5 | 0.00 | 0.00 | 0.00 | 98 | 1008.0 |
| 20260507072029 | 52 | 150 | 7.8 | 16.5 | 0.00 | 0.00 | 0.00 | 98 | 1008.0 |
| 20260507071927 | 53 | 251 | 9.6 | 16.5 | 0.00 | 0.00 | 0.00 | 98 | 1008.0 |
| 20260507071826 | 53 | 244 | 12.2 | 16.5 | 0.00 | 0.00 | 0.00 | 98 | 1008.0 |
| 20260507071744 | 53 | 325 | 10.4 | 16.5 | 0.00 | 0.00 | 0.00 | 98 | 1008.0 |
| 20260507071718 | 53 | 305 | 12.2 | 16.5 | 0.00 | 0.00 | 0.00 | 98 | 1008.0 |
| 20260507071536 | 53 | 309 | 12.2 | 16.5 | 0.00 | 0.00 | 0.00 | 98 | 1008.0 |
| 20260507071455 | 53 | 251 | 11.3 | 16.5 | 0.00 | 0.00 | 0.00 | 98 | 1008.0 |
| 20260507071333 | 53 | 325 | 8.7 | 16.5 | 0.00 | 0.00 | 0.00 | 98 | 1008.3 |
| 20260507071231 | 53 | 278 | 9.6 | 16.5 | 0.00 | 0.00 | 0.00 | 98 | 1008.3 |
| 20260507071131 | 53 | 282 | 9.6 | 20.9 | 0.00 | 0.00 | 0.00 | 98 | 1008.3 |
| 20260507071030 | 53 | 320 | 10.4 | 20.9 | 0.00 | 0.00 | 0.00 | 98 | 1008.3 |
| 20260507070932 | 53 | 257 | 11.3 | 20.9 | 0.00 | 0.00 | 0.00 | 98 | 1008.3 |
| 20260507070831 | 53 | 291 | 12.2 | 20.9 | 0.00 | 0.00 | 0.00 | 98 | 1008.3 |
| 20260507070730 | 53 | 272 | 8.7 | 20.9 | 0.00 | 0.00 | 0.00 | 98 | 1008.3 |
| 20260507070629 | 53 | 263 | 9.6 | 20.9 | 0.00 | 0.00 | 0.00 | 98 | 1008.3 |
| 20260507070548 | 53 | 240 | 7.8 | 20.9 | 0.00 | 0.00 | 0.00 | 98 | 1008.3 |
| 20260507070424 | 53 | 175 | 9.6 | 20.9 | 0.00 | 0.00 | 0.00 | 98 | 1008.3 |
| 20260507070343 | 53 | 102 | 11.3 | 20.9 | 0.00 | 0.00 | 0.00 | 98 | 1008.3 |
| 20260507070233 | 53 | 261 | 10.4 | 15.6 | 0.00 | 0.00 | 0.00 | 98 | 1008.3 |
| 20260507070147 | 53 | 318 | 12.2 | 15.6 | 0.00 | 0.00 | 0.00 | 98 | 1008.3 |
| 20260507070043 | 53 | 246 | 12.2 | 15.6 | 0.00 | 0.00 | 0.00 | 98 | 1008.3 |
| 20260507070003 | 53 | 315 | 10.4 | 14.8 | 0.00 | 0.00 | 0.00 | 98 | 1008.3 |
| 20260507065859 | 53 | 257 | 9.6 | 14.8 | 0.00 | 0.00 | 0.00 | 98 | 1008.6 |
| 20260507065736 | 53 | 198 | 9.6 | 14.8 | 0.00 | 0.00 | 0.00 | 98 | 1008.6 |
| 20260507065636 | 53 | 311 | 10.4 | 14.8 | 0.00 | 0.00 | 0.00 | 98 | 1008.6 |
| 20260507065538 | 53 | 292 | 8.7 | 14.8 | 0.00 | 0.00 | 0.00 | 98 | 1008.6 |
| 20260507065437 | 53 | 325 | 9.6 | 14.8 | 0.00 | 0.00 | 0.00 | 98 | 1008.6 |
| 20260507065339 | 53 | 296 | 9.6 | 14.8 | 0.00 | 0.00 | 0.00 | 98 | 1008.6 |
| 20260507065237 | 53 | 316 | 10.4 | 14.8 | 0.00 | 0.00 | 0.00 | 98 | 1008.6 |
| 20260507065136 | 53 | 86 | 9.6 | 14.8 | 0.00 | 0.00 | 0.00 | 98 | 1008.6 |
| 20260507065034 | 53 | 209 | 8.7 | 14.8 | 0.00 | 0.00 | 0.00 | 98 | 1008.6 |
| 20260507064933 | 53 | 316 | 12.2 | 14.8 | 0.00 | 0.00 | 0.00 | 98 | 1008.6 |
| 20260507064852 | 53 | 356 | 10.4 | 14.8 | 0.00 | 0.00 | 0.00 | 98 | 1008.6 |
| 20260507064728 | 53 | 302 | 12.2 | 14.8 | 0.00 | 0.00 | 0.00 | 98 | 1008.6 |
| 20260507064657 | 53 | 241 | 11.3 | 14.8 | 0.00 | 0.00 | 0.00 | 98 | 1008.6 |
| 20260507064538 | 53 | 316 | 9.6 | 14.8 | 0.00 | 0.00 | 0.00 | 98 | 1008.6 |
| 20260507064437 | 53 | 250 | 7.8 | 14.8 | 0.00 | 0.00 | 0.00 | 98 | 1008.6 |
| 20260507064335 | 53 | 313 | 5.2 | 14.8 | 0.00 | 0.00 | 0.00 | 98 | 1007.9 |
| 20260507064234 | 53 | 319 | 7.8 | 14.8 | 0.00 | 0.00 | 0.00 | 98 | 1007.9 |
| 20260507064130 | 53 | 250 | 9.6 | 14.8 | 0.00 | 0.00 | 0.00 | 98 | 1007.9 |
| 20260507064029 | 53 | 326 | 9.6 | 14.8 | 0.00 | 0.00 | 0.00 | 98 | 1007.9 |
| 20260507063929 | 53 | 181 | 10.4 | 14.8 | 0.00 | 0.00 | 0.00 | 98 | 1007.9 |
| 20260507063831 | 53 | 309 | 9.6 | 13.9 | 0.00 | 0.00 | 0.00 | 98 | 1007.9 |
| 20260507063730 | 53 | 241 | 9.6 | 13.9 | 0.00 | 0.00 | 0.00 | 98 | 1007.9 |
| 20260507063628 | 53 | 316 | 10.4 | 15.6 | 0.00 | 0.00 | 0.00 | 98 | 1007.9 |
| 20260507063527 | 53 | 311 | 10.4 | 15.6 | 0.00 | 0.00 | 0.00 | 98 | 1007.9 |
| 20260507063425 | 53 | 144 | 9.6 | 15.6 | 0.00 | 0.00 | 0.00 | 98 | 1007.9 |
| 20260507063343 | 53 | 289 | 7.0 | 15.6 | 0.00 | 0.00 | 0.00 | 98 | 1007.9 |
| 20260507063227 | 53 | 288 | 8.7 | 15.6 | 0.00 | 0.00 | 0.00 | 98 | 1007.9 |
| 20260507063157 | 53 | 263 | 11.3 | 15.6 | 0.00 | 0.00 | 0.00 | 98 | 1007.9 |
| 20260507063034 | 53 | 193 | 11.3 | 15.6 | 0.00 | 0.00 | 0.00 | 98 | 1007.9 |
| 20260507062952 | 53 | 289 | 11.3 | 15.6 | 0.00 | 0.00 | 0.00 | 98 | 1007.9 |
| 20260507062830 | 53 | 243 | 9.6 | 15.6 | 0.00 | 0.00 | 0.00 | 98 | 1008.6 |
| 20260507062729 | 53 | 247 | 10.4 | 15.6 | 0.00 | 0.00 | 0.00 | 98 | 1008.6 |
| 20260507062628 | 53 | 320 | 7.8 | 14.8 | 0.00 | 0.00 | 0.00 | 98 | 1008.6 |
| 20260507062526 | 53 | 217 | 8.7 | 14.8 | 0.00 | 0.00 | 0.00 | 98 | 1008.6 |
| 20260507062429 | 53 | 328 | 8.7 | 14.8 | 0.00 | 0.00 | 0.00 | 98 | 1008.6 |
| 20260507062327 | 53 | 264 | 7.8 | 14.8 | 0.00 | 0.00 | 0.00 | 98 | 1008.6 |
| 20260507062226 | 53 | 304 | 9.6 | 14.8 | 0.00 | 0.00 | 0.00 | 98 | 1008.6 |
| 20260507062125 | 53 | 236 | 8.7 | 14.8 | 0.00 | 0.00 | 0.00 | 98 | 1008.6 |
| 20260507062024 | 53 | 206 | 12.2 | 15.6 | 0.00 | 0.00 | 0.00 | 98 | 1008.6 |
| 20260507061943 | 53 | 184 | 12.2 | 15.6 | 0.00 | 0.00 | 0.00 | 98 | 1008.6 |
| 20260507061824 | 53 | 202 | 9.6 | 15.6 | 0.00 | 0.00 | 0.00 | 98 | 1008.6 |
| 20260507061753 | 53 | 288 | 10.4 | 15.6 | 0.00 | 0.00 | 0.00 | 98 | 1008.6 |
| 20260507061645 | 53 | 182 | 11.3 | 15.6 | 0.00 | 0.00 | 0.00 | 98 | 1008.6 |
| 20260507061543 | 53 | 140 | 10.4 | 15.6 | 0.00 | 0.00 | 0.00 | 98 | 1008.6 |
| 20260507061442 | 53 | 182 | 9.6 | 15.6 | 0.00 | 0.00 | 0.00 | 98 | 1008.6 |
| 20260507061339 | 53 | 265 | 7.8 | 15.6 | 0.00 | 0.00 | 0.00 | 98 | 1009.8 |
| 20260507061237 | 53 | 313 | 11.3 | 15.6 | 0.00 | 0.00 | 0.00 | 98 | 1009.8 |
| 20260507061135 | 53 | 328 | 9.6 | 13.0 | 0.00 | 0.00 | 0.00 | 98 | 1009.8 |
| 20260507061039 | 53 | 217 | 7.8 | 13.0 | 0.00 | 0.00 | 0.00 | 98 | 1009.8 |
| 20260507060938 | 53 | 333 | 7.0 | 12.2 | 0.00 | 0.00 | 0.00 | 98 | 1009.8 |
| 20260507060837 | 53 | 309 | 7.8 | 12.2 | 0.00 | 0.00 | 0.00 | 98 | 1009.8 |
| 20260507060755 | 53 | 315 | 7.0 | 12.2 | 0.00 | 0.00 | 0.00 | 98 | 1009.8 |
| 20260507060632 | 53 | 287 | 8.7 | 12.2 | 0.00 | 0.00 | 0.00 | 98 | 1009.8 |
| 20260507060533 | 53 | 315 | 9.6 | 12.2 | 0.00 | 0.00 | 0.00 | 98 | 1009.8 |
| 20260507060431 | 53 | 302 | 7.0 | 12.2 | 0.00 | 0.00 | 0.00 | 98 | 1009.8 |
| 20260507060334 | 53 | 311 | 7.0 | 12.2 | 0.00 | 0.00 | 0.00 | 98 | 1009.8 |
| 20260507060254 | 53 | 295 | 10.4 | 12.2 | 0.00 | 0.00 | 0.00 | 98 | 1009.8 |
| 20260507060204 | 53 | 326 | 8.7 | 12.2 | 0.00 | 0.00 | 0.00 | 98 | 1009.8 |
| 20260507060043 | 53 | 313 | 9.6 | 12.2 | 0.00 | 0.00 | 0.00 | 98 | 1009.8 |
| 20260507055941 | 53 | 308 | 10.4 | 12.2 | 0.00 | 0.00 | 0.00 | 98 | 1009.8 |
| 20260507055838 | 53 | 304 | 8.7 | 13.9 | 0.00 | 0.00 | 0.00 | 98 | 1009.8 |
| 20260507055737 | 53 | 326 | 7.8 | 13.9 | 0.00 | 0.00 | 0.00 | 98 | 1009.8 |
| 20260507055636 | 53 | 329 | 6.1 | 13.9 | 0.00 | 0.00 | 0.00 | 98 | 1009.8 |
| 20260507055538 | 53 | 328 | 7.0 | 13.9 | 0.00 | 0.00 | 0.00 | 98 | 1009.8 |
| 20260507055436 | 53 | 267 | 6.1 | 13.9 | 0.00 | 0.00 | 0.00 | 98 | 1009.8 |
| 20260507055335 | 53 | 220 | 7.0 | 13.9 | 0.00 | 0.00 | 0.00 | 98 | 1009.8 |
| 20260507055253 | 53 | 329 | 9.6 | 13.9 | 0.00 | 0.00 | 0.00 | 98 | 1009.8 |
| 20260507055131 | 53 | 258 | 9.6 | 14.8 | 0.00 | 0.00 | 0.00 | 98 | 1009.8 |
| 20260507055030 | 53 | 301 | 9.6 | 14.8 | 0.00 | 0.00 | 0.00 | 98 | 1009.8 |
| 20260507054929 | 53 | 230 | 8.7 | 14.8 | 0.00 | 0.00 | 0.00 | 98 | 1009.8 |
| 20260507054832 | 53 | 261 | 7.8 | 14.8 | 0.00 | 0.00 | 0.00 | 98 | 1009.8 |
| 20260507054729 | 53 | 271 | 9.6 | 14.8 | 0.00 | 0.00 | 0.00 | 98 | 1009.8 |
| 20260507054657 | 54 | 196 | 9.6 | 14.8 | 0.00 | 0.00 | 0.00 | 98 | 1009.8 |
| 20260507054535 | 53 | 140 | 11.3 | 14.8 | 0.00 | 0.00 | 0.00 | 98 | 1009.8 |
| 20260507054434 | 53 | 244 | 8.7 | 14.8 | 0.00 | 0.00 | 0.00 | 98 | 1009.8 |
| 20260507054332 | 54 | 244 | 11.3 | 14.8 | 0.00 | 0.00 | 0.00 | 98 | 1009.4 |
| 20260507054234 | 54 | 289 | 8.7 | 14.8 | 0.00 | 0.00 | 0.00 | 98 | 1009.4 |
| 20260507054152 | 53 | 311 | 8.7 | 14.8 | 0.00 | 0.00 | 0.00 | 98 | 1009.4 |
| 20260507054034 | 53 | 267 | 8.7 | 14.8 | 0.00 | 0.00 | 0.00 | 98 | 1009.4 |
| 20260507053934 | 53 | 296 | 8.7 | 14.8 | 0.00 | 0.00 | 0.00 | 98 | 1009.4 |
| 20260507053833 | 53 | 284 | 9.6 | 14.8 | 0.00 | 0.00 | 0.00 | 98 | 1009.4 |
| 20260507053731 | 53 | 294 | 10.4 | 14.8 | 0.00 | 0.00 | 0.00 | 98 | 1009.4 |
| 20260507053630 | 53 | 227 | 12.2 | 14.8 | 0.00 | 0.00 | 0.00 | 98 | 1009.4 |
| 20260507053548 | 54 | 240 | 9.6 | 12.2 | 0.00 | 0.00 | 0.00 | 98 | 1009.4 |
| 20260507053427 | 53 | 325 | 9.6 | 12.2 | 0.00 | 0.00 | 0.00 | 98 | 1009.4 |
| 20260507053329 | 53 | 257 | 9.6 | 12.2 | 0.00 | 0.00 | 0.00 | 98 | 1009.4 |
| 20260507053249 | 53 | 306 | 10.4 | 12.2 | 0.00 | 0.00 | 0.00 | 98 | 1009.4 |
| 20260507053158 | 54 | 206 | 8.7 | 13.0 | 0.00 | 0.00 | 0.00 | 98 | 1009.4 |
| 20260507053035 | 54 | 265 | 9.6 | 14.8 | 0.00 | 0.00 | 0.00 | 98 | 1009.4 |
| 20260507052935 | 53 | 291 | 7.8 | 14.8 | 0.00 | 0.00 | 0.00 | 98 | 1009.4 |
| 20260507052833 | 53 | 291 | 9.6 | 14.8 | 0.00 | 0.00 | 0.00 | 98 | 1009.9 |
| 20260507052732 | 54 | 288 | 9.6 | 14.8 | 0.00 | 0.00 | 0.00 | 98 | 1009.9 |
| 20260507052633 | 53 | 305 | 8.7 | 14.8 | 0.00 | 0.00 | 0.00 | 98 | 1009.9 |
| 20260507052532 | 54 | 316 | 7.8 | 14.8 | 0.00 | 0.00 | 0.00 | 98 | 1009.9 |
| 20260507052431 | 54 | 227 | 7.8 | 14.8 | 0.00 | 0.00 | 0.00 | 98 | 1009.9 |
| 20260507052330 | 53 | 318 | 9.6 | 14.8 | 0.00 | 0.00 | 0.00 | 98 | 1009.9 |
| 20260507052228 | 54 | 212 | 10.4 | 14.8 | 0.00 | 0.00 | 0.00 | 98 | 1009.9 |
| 20260507052126 | 53 | 227 | 9.6 | 13.0 | 0.00 | 0.00 | 0.00 | 98 | 1009.9 |
| 20260507052026 | 53 | 186 | 10.4 | 15.6 | 0.00 | 0.00 | 0.00 | 98 | 1009.9 |
| 20260507051928 | 54 | 215 | 9.6 | 15.6 | 0.00 | 0.00 | 0.00 | 98 | 1009.9 |
| 20260507051826 | 54 | 285 | 8.7 | 15.6 | 0.00 | 0.00 | 0.00 | 98 | 1009.9 |
| 20260507051724 | 54 | 141 | 9.6 | 15.6 | 0.00 | 0.00 | 0.00 | 98 | 1009.9 |
| 20260507051655 | 53 | 328 | 9.6 | 15.6 | 0.00 | 0.00 | 0.00 | 98 | 1009.9 |
| 20260507051530 | 53 | 254 | 9.6 | 15.6 | 0.00 | 0.00 | 0.00 | 98 | 1009.9 |
| 20260507051429 | 54 | 147 | 11.3 | 15.6 | 0.00 | 0.00 | 0.00 | 98 | 1009.9 |
| 20260507051326 | 54 | 328 | 9.6 | 15.6 | 0.00 | 0.00 | 0.00 | 98 | 1009.8 |
| 20260507051229 | 54 | 319 | 11.3 | 15.6 | 0.00 | 0.00 | 0.00 | 98 | 1009.8 |
| 20260507051128 | 54 | 217 | 10.4 | 15.6 | 0.00 | 0.00 | 0.00 | 98 | 1009.8 |
| 20260507051026 | 54 | 247 | 9.6 | 15.6 | 0.00 | 0.00 | 0.00 | 98 | 1009.8 |
| 20260507050945 | 54 | 182 | 11.3 | 15.6 | 0.00 | 0.00 | 0.00 | 98 | 1009.8 |
| 20260507050843 | 54 | 205 | 10.4 | 14.8 | 0.00 | 0.00 | 0.00 | 98 | 1009.8 |
| 20260507050800 | 54 | 260 | 10.4 | 13.9 | 0.00 | 0.00 | 0.00 | 98 | 1009.8 |
| 20260507050658 | 54 | 244 | 10.4 | 13.9 | 0.00 | 0.00 | 0.00 | 98 | 1009.8 |
| 20260507050535 | 54 | 233 | 8.7 | 12.2 | 0.00 | 0.00 | 0.00 | 98 | 1009.8 |
| 20260507050434 | 54 | 256 | 7.8 | 12.2 | 0.00 | 0.00 | 0.00 | 98 | 1009.8 |
| 20260507050336 | 54 | 328 | 7.8 | 12.2 | 0.00 | 0.00 | 0.00 | 98 | 1009.8 |
| 20260507050234 | 54 | 316 | 7.8 | 12.2 | 0.00 | 0.00 | 0.00 | 98 | 1009.8 |
| 20260507050205 | 54 | 247 | 9.6 | 12.2 | 0.00 | 0.00 | 0.00 | 98 | 1009.8 |
| 20260507050041 | 54 | 326 | 9.6 | 12.2 | 0.00 | 0.00 | 0.00 | 98 | 1009.8 |
| 20260507045940 | 54 | 291 | 10.4 | 12.2 | 0.00 | 0.00 | 0.00 | 98 | 1009.8 |
| 20260507045902 | 54 | 306 | 8.7 | 12.2 | 0.00 | 0.00 | 0.00 | 98 | 1009.8 |
| 20260507045759 | 54 | 288 | 7.8 | 12.2 | 0.00 | 0.00 | 0.00 | 98 | 1009.8 |
| 20260507045636 | 54 | 319 | 7.8 | 12.2 | 0.00 | 0.00 | 0.00 | 98 | 1009.8 |
| 20260507045559 | 54 | 322 | 9.6 | 12.2 | 0.00 | 0.00 | 0.00 | 98 | 1009.8 |
| 20260507045436 | 54 | 329 | 7.0 | 12.2 | 0.00 | 0.00 | 0.00 | 98 | 1009.8 |
| 20260507045335 | 54 | 329 | 7.0 | 12.2 | 0.00 | 0.00 | 0.00 | 98 | 1009.8 |
| 20260507045233 | 54 | 143 | 8.7 | 12.2 | 0.00 | 0.00 | 0.00 | 98 | 1009.8 |
| 20260507045131 | 54 | 202 | 7.8 | 14.8 | 0.00 | 0.00 | 0.00 | 98 | 1009.8 |
| 20260507045030 | 54 | 312 | 8.7 | 14.8 | 0.00 | 0.00 | 0.00 | 98 | 1009.8 |
| 20260507044929 | 54 | 323 | 8.7 | 14.8 | 0.00 | 0.00 | 0.00 | 98 | 1009.8 |
| 20260507044831 | 54 | 325 | 10.4 | 14.8 | 0.00 | 0.00 | 0.00 | 98 | 1009.8 |
| 20260507044800 | 54 | 289 | 6.1 | 14.8 | 0.00 | 0.00 | 0.00 | 98 | 1009.8 |
| 20260507044647 | 54 | 205 | 7.0 | 14.8 | 0.00 | 0.00 | 0.00 | 98 | 1009.8 |
| 20260507044526 | 54 | 305 | 7.0 | 14.8 | 0.00 | 0.00 | 0.00 | 98 | 1009.8 |
| 20260507044425 | 54 | 127 | 9.6 | 14.8 | 0.00 | 0.00 | 0.00 | 98 | 1009.8 |
| 20260507044343 | 54 | 272 | 8.7 | 14.8 | 0.00 | 0.00 | 0.00 | 98 | 1009.6 |
| 20260507044242 | 54 | 275 | 8.7 | 14.8 | 0.00 | 0.00 | 0.00 | 98 | 1009.6 |
| 20260507044141 | 54 | 174 | 8.7 | 11.3 | 0.00 | 0.00 | 0.00 | 98 | 1009.6 |
| 20260507044103 | 54 | 318 | 7.8 | 12.2 | 0.00 | 0.00 | 0.00 | 98 | 1009.6 |
| 20260507043940 | 54 | 274 | 7.8 | 12.2 | 0.00 | 0.00 | 0.00 | 98 | 1009.6 |
| 20260507043839 | 54 | 296 | 7.8 | 12.2 | 0.00 | 0.00 | 0.00 | 98 | 1009.6 |
| 20260507043738 | 54 | 199 | 9.6 | 12.2 | 0.00 | 0.00 | 0.00 | 98 | 1009.6 |
| 20260507043637 | 54 | 320 | 6.1 | 12.2 | 0.00 | 0.00 | 0.00 | 98 | 1009.6 |
| 20260507043534 | 54 | 325 | 4.3 | 12.2 | 0.00 | 0.00 | 0.00 | 98 | 1009.6 |
| 20260507043432 | 54 | 138 | 7.8 | 12.2 | 0.00 | 0.00 | 0.00 | 98 | 1009.6 |
| 20260507043331 | 54 | 330 | 10.4 | 12.2 | 0.00 | 0.00 | 0.00 | 98 | 1009.6 |
| 20260507043253 | 54 | 309 | 10.4 | 12.2 | 0.00 | 0.00 | 0.00 | 98 | 1009.6 |
| 20260507043224 | 54 | 336 | 8.7 | 12.2 | 0.00 | 0.00 | 0.00 | 98 | 1009.6 |
| 20260507043038 | 54 | 313 | 7.8 | 12.2 | 0.00 | 0.00 | 0.00 | 98 | 1009.6 |
| 20260507042937 | 54 | 264 | 7.0 | 12.2 | 0.00 | 0.00 | 0.00 | 98 | 1009.6 |
| 20260507042859 | 54 | 328 | 7.0 | 12.2 | 0.00 | 0.00 | 0.00 | 98 | 1009.8 |
| 20260507042736 | 54 | 301 | 8.7 | 12.2 | 0.00 | 0.00 | 0.00 | 98 | 1009.8 |
| 20260507042634 | 54 | 311 | 7.8 | 12.2 | 0.00 | 0.00 | 0.00 | 98 | 1009.8 |
| 20260507042532 | 54 | 244 | 9.6 | 12.2 | 0.00 | 0.00 | 0.00 | 98 | 1009.8 |
| 20260507042434 | 54 | 124 | 10.4 | 12.2 | 0.00 | 0.00 | 0.00 | 98 | 1009.8 |
| 20260507042332 | 54 | 328 | 10.4 | 12.2 | 0.00 | 0.00 | 0.00 | 98 | 1009.8 |
| 20260507042230 | 54 | 326 | 8.7 | 12.2 | 0.00 | 0.00 | 0.00 | 98 | 1009.8 |
| 20260507042128 | 54 | 268 | 7.8 | 12.2 | 0.00 | 0.00 | 0.00 | 98 | 1009.8 |
| 20260507042027 | 54 | 288 | 10.4 | 12.2 | 0.00 | 0.00 | 0.00 | 98 | 1009.8 |
| 20260507041945 | 54 | 298 | 9.6 | 12.2 | 0.00 | 0.00 | 0.00 | 98 | 1009.8 |
| 20260507041842 | 54 | 199 | 8.7 | 12.2 | 0.00 | 0.00 | 0.00 | 98 | 1009.8 |
| 20260507041735 | 54 | 254 | 10.4 | 12.2 | 0.00 | 0.00 | 0.00 | 98 | 1009.8 |
| 20260507041645 | 54 | 284 | 7.0 | 10.4 | 0.00 | 0.00 | 0.00 | 98 | 1009.8 |
| 20260507041542 | 54 | 232 | 6.1 | 10.4 | 0.00 | 0.00 | 0.00 | 98 | 1009.8 |
| 20260507041422 | 54 | 328 | 8.7 | 11.3 | 0.00 | 0.00 | 0.00 | 98 | 1009.8 |
| 20260507041344 | 54 | 220 | 7.8 | 12.2 | 0.00 | 0.00 | 0.00 | 98 | 1009.3 |
| 20260507041302 | 54 | 280 | 7.8 | 12.2 | 0.00 | 0.00 | 0.00 | 98 | 1009.3 |
| 20260507041140 | 54 | 299 | 8.7 | 12.2 | 0.00 | 0.00 | 0.00 | 98 | 1009.3 |
| 20260507041039 | 54 | 240 | 6.1 | 12.2 | 0.00 | 0.00 | 0.00 | 98 | 1009.3 |
| 20260507040941 | 54 | 287 | 7.0 | 12.2 | 0.00 | 0.00 | 0.00 | 98 | 1009.3 |
| 20260507040839 | 54 | 320 | 7.8 | 12.2 | 0.00 | 0.00 | 0.00 | 98 | 1009.3 |
| 20260507040738 | 54 | 322 | 7.0 | 12.2 | 0.00 | 0.00 | 0.00 | 98 | 1009.3 |
| 20260507040656 | 54 | 107 | 8.7 | 12.2 | 0.00 | 0.00 | 0.00 | 98 | 1009.3 |
| 20260507040534 | 54 | 298 | 8.7 | 12.2 | 0.00 | 0.00 | 0.00 | 98 | 1009.3 |
| 20260507040434 | 54 | 302 | 9.6 | 12.2 | 0.00 | 0.00 | 0.00 | 98 | 1009.3 |
| 20260507040332 | 54 | 296 | 7.8 | 11.3 | 0.00 | 0.00 | 0.00 | 98 | 1009.3 |
| 20260507040235 | 54 | 328 | 6.1 | 11.3 | 0.00 | 0.00 | 0.00 | 98 | 1009.3 |
| 20260507040205 | 54 | 165 | 7.0 | 12.2 | 0.00 | 0.00 | 0.00 | 98 | 1009.3 |
| 20260507040042 | 54 | 325 | 7.8 | 12.2 | 0.00 | 0.00 | 0.00 | 98 | 1009.3 |
| 20260507040002 | 54 | 257 | 7.8 | 12.2 | 0.00 | 0.00 | 0.00 | 98 | 1009.3 |
| 20260507035900 | 54 | 322 | 7.8 | 12.2 | 0.00 | 0.00 | 0.00 | 98 | 1009.6 |
| 20260507035738 | 54 | 332 | 7.8 | 12.2 | 0.00 | 0.00 | 0.00 | 98 | 1009.6 |
| 20260507035657 | 54 | 328 | 7.8 | 12.2 | 0.00 | 0.00 | 0.00 | 98 | 1009.6 |
| 20260507035534 | 54 | 263 | 7.8 | 12.2 | 0.00 | 0.00 | 0.00 | 98 | 1009.6 |
| 20260507035432 | 54 | 323 | 7.8 | 12.2 | 0.00 | 0.00 | 0.00 | 98 | 1009.6 |
| 20260507035336 | 54 | 104 | 7.8 | 12.2 | 0.00 | 0.00 | 0.00 | 98 | 1009.6 |
| 20260507035235 | 54 | 304 | 7.8 | 11.3 | 0.00 | 0.00 | 0.00 | 98 | 1009.6 |
| 20260507035133 | 54 | 301 | 7.8 | 11.3 | 0.00 | 0.00 | 0.00 | 98 | 1009.6 |
| 20260507035032 | 54 | 313 | 8.7 | 11.3 | 0.00 | 0.00 | 0.00 | 98 | 1009.6 |
| 20260507034951 | 54 | 188 | 7.8 | 11.3 | 0.00 | 0.00 | 0.00 | 98 | 1009.6 |
| 20260507034828 | 54 | 322 | 7.8 | 11.3 | 0.00 | 0.00 | 0.00 | 98 | 1009.6 |
| 20260507034726 | 54 | 232 | 7.8 | 11.3 | 0.00 | 0.00 | 0.00 | 98 | 1009.6 |
| 20260507034700 | 54 | 315 | 7.8 | 11.3 | 0.00 | 0.00 | 0.00 | 98 | 1009.6 |
| 20260507034542 | 54 | 304 | 8.7 | 11.3 | 0.00 | 0.00 | 0.00 | 98 | 1009.6 |
| 20260507034440 | 54 | 234 | 8.7 | 11.3 | 0.00 | 0.00 | 0.00 | 98 | 1009.6 |
| 20260507034339 | 54 | 328 | 7.8 | 11.3 | 0.00 | 0.00 | 0.00 | 98 | 1010.2 |
| 20260507034300 | 54 | 61 | 7.0 | 12.2 | 0.00 | 0.00 | 0.00 | 98 | 1010.2 |
| 20260507034137 | 54 | 220 | 6.1 | 12.2 | 0.00 | 0.00 | 0.00 | 98 | 1010.2 |
| 20260507034035 | 54 | 280 | 7.0 | 12.2 | 0.00 | 0.00 | 0.00 | 98 | 1010.2 |
| 20260507033953 | 54 | 195 | 5.2 | 12.2 | 0.00 | 0.00 | 0.00 | 98 | 1010.2 |
| 20260507033835 | 54 | 103 | 6.1 | 12.2 | 0.00 | 0.00 | 0.00 | 98 | 1010.2 |
| 20260507033736 | 54 | 280 | 7.0 | 12.2 | 0.00 | 0.00 | 0.00 | 98 | 1010.2 |
| 20260507033635 | 54 | 229 | 7.8 | 12.2 | 0.00 | 0.00 | 0.00 | 98 | 1010.2 |
| 20260507033534 | 54 | 257 | 8.7 | 12.2 | 0.00 | 0.00 | 0.00 | 98 | 1010.2 |
| 20260507033432 | 54 | 251 | 10.4 | 12.2 | 0.00 | 0.00 | 0.00 | 98 | 1010.2 |
| 20260507033330 | 54 | 332 | 8.7 | 11.3 | 0.00 | 0.00 | 0.00 | 98 | 1010.2 |
| 20260507033249 | 54 | 319 | 9.6 | 12.2 | 0.00 | 0.00 | 0.00 | 98 | 1010.2 |
| 20260507033204 | 54 | 323 | 9.6 | 12.2 | 0.00 | 0.00 | 0.00 | 98 | 1010.2 |
| 20260507033101 | 54 | 258 | 7.0 | 12.2 | 0.00 | 0.00 | 0.00 | 98 | 1010.2 |
| 20260507032938 | 54 | 353 | 7.8 | 14.8 | 0.00 | 0.00 | 0.00 | 98 | 1010.2 |
| 20260507032837 | 54 | 244 | 7.8 | 14.8 | 0.00 | 0.00 | 0.00 | 98 | 1009.5 |
| 20260507032737 | 54 | 326 | 7.8 | 14.8 | 0.00 | 0.00 | 0.00 | 98 | 1009.5 |
| 20260507032635 | 55 | 308 | 9.6 | 14.8 | 0.00 | 0.00 | 0.00 | 98 | 1009.5 |
| 20260507032532 | 54 | 322 | 9.6 | 14.8 | 0.00 | 0.00 | 0.00 | 98 | 1009.5 |
| 20260507032430 | 54 | 302 | 8.7 | 14.8 | 0.00 | 0.00 | 0.00 | 98 | 1009.5 |
| 20260507032332 | 55 | 257 | 7.8 | 14.8 | 0.00 | 0.00 | 0.00 | 98 | 1009.5 |
| 20260507032230 | 55 | 271 | 9.6 | 14.8 | 0.00 | 0.00 | 0.00 | 98 | 1009.5 |
| 20260507032129 | 55 | 322 | 9.6 | 14.8 | 0.00 | 0.00 | 0.00 | 98 | 1009.5 |
| 20260507032028 | 55 | 203 | 8.7 | 13.9 | 0.00 | 0.00 | 0.00 | 98 | 1009.5 |
| 20260507031926 | 55 | 217 | 11.3 | 13.9 | 0.00 | 0.00 | 0.00 | 98 | 1009.5 |
| 20260507031825 | 55 | 296 | 8.7 | 12.2 | 0.00 | 0.00 | 0.00 | 98 | 1009.5 |
| 20260507031743 | 55 | 158 | 8.7 | 12.2 | 0.00 | 0.00 | 0.00 | 98 | 1009.5 |
| 20260507031717 | 55 | 296 | 9.6 | 12.2 | 0.00 | 0.00 | 0.00 | 98 | 1009.5 |
| 20260507031554 | 55 | 296 | 9.6 | 12.2 | 0.00 | 0.00 | 0.00 | 98 | 1009.5 |
| 20260507031432 | 55 | 219 | 9.6 | 12.2 | 0.00 | 0.00 | 0.00 | 98 | 1009.5 |
| 20260507031330 | 55 | 312 | 7.0 | 12.2 | 0.00 | 0.00 | 0.00 | 98 | 1009.7 |
| 20260507031249 | 55 | 305 | 7.0 | 12.2 | 0.00 | 0.00 | 0.00 | 98 | 1009.7 |
| 20260507031148 | 55 | 287 | 8.7 | 12.2 | 0.00 | 0.00 | 0.00 | 98 | 1009.7 |
| 20260507031045 | 55 | 196 | 7.8 | 11.3 | 0.00 | 0.00 | 0.00 | 98 | 1009.7 |
| 20260507031004 | 55 | 237 | 7.0 | 11.3 | 0.00 | 0.00 | 0.00 | 98 | 1009.7 |
| 20260507030842 | 55 | 264 | 7.0 | 11.3 | 0.00 | 0.00 | 0.00 | 98 | 1009.7 |
| 20260507030724 | 55 | 220 | 8.7 | 11.3 | 0.00 | 0.00 | 0.00 | 98 | 1009.7 |
| 20260507030643 | 55 | 216 | 7.8 | 11.3 | 0.00 | 0.00 | 0.00 | 98 | 1009.7 |
| 20260507030541 | 55 | 319 | 8.7 | 11.3 | 0.00 | 0.00 | 0.00 | 98 | 1009.7 |
| 20260507030440 | 55 | 309 | 9.6 | 12.2 | 0.00 | 0.00 | 0.00 | 98 | 1009.7 |
| 20260507030338 | 55 | 232 | 9.6 | 12.2 | 0.00 | 0.00 | 0.00 | 98 | 1009.7 |
| 20260507030237 | 55 | 280 | 8.7 | 12.2 | 0.00 | 0.00 | 0.00 | 98 | 1009.7 |
| 20260507030205 | 55 | 240 | 8.7 | 12.2 | 0.00 | 0.00 | 0.00 | 98 | 1009.7 |
| 20260507030027 | 55 | 323 | 7.8 | 12.2 | 0.00 | 0.00 | 0.00 | 98 | 1009.7 |
| 20260507025945 | 55 | 309 | 8.7 | 12.2 | 0.00 | 0.00 | 0.00 | 97 | 1009.7 |
| 20260507025841 | 55 | 316 | 7.8 | 12.2 | 0.00 | 0.00 | 0.00 | 97 | 1009.8 |
| 20260507025737 | 55 | 267 | 8.7 | 12.2 | 0.00 | 0.00 | 0.00 | 97 | 1009.8 |
| 20260507025656 | 55 | 261 | 8.7 | 12.2 | 0.00 | 0.00 | 0.00 | 97 | 1009.8 |
| 20260507025535 | 55 | 226 | 9.6 | 12.2 | 0.00 | 0.00 | 0.00 | 97 | 1009.8 |
| 20260507025437 | 55 | 189 | 10.4 | 12.2 | 0.00 | 0.00 | 0.00 | 97 | 1009.8 |
| 20260507025335 | 55 | 291 | 10.4 | 12.2 | 0.00 | 0.00 | 0.00 | 97 | 1009.8 |
| 20260507025237 | 55 | 246 | 9.6 | 11.3 | 0.00 | 0.00 | 0.00 | 98 | 1009.8 |
| 20260507025136 | 55 | 193 | 9.6 | 10.4 | 0.00 | 0.00 | 0.00 | 98 | 1009.8 |
| 20260507025034 | 55 | 285 | 8.7 | 10.4 | 0.00 | 0.00 | 0.00 | 98 | 1009.8 |
| 20260507024932 | 55 | 185 | 7.8 | 10.4 | 0.00 | 0.00 | 0.00 | 98 | 1009.8 |
| 20260507024830 | 55 | 264 | 9.6 | 10.4 | 0.00 | 0.00 | 0.00 | 97 | 1009.8 |
| 20260507024728 | 55 | 304 | 7.0 | 9.6 | 0.00 | 0.00 | 0.00 | 98 | 1009.8 |
| 20260507024657 | 55 | 104 | 7.0 | 10.4 | 0.00 | 0.00 | 0.00 | 98 | 1009.8 |
| 20260507024539 | 55 | 220 | 5.2 | 10.4 | 0.00 | 0.00 | 0.00 | 97 | 1009.8 |
| 20260507024438 | 55 | 219 | 5.2 | 10.4 | 0.00 | 0.00 | 0.00 | 97 | 1009.8 |
| 20260507024337 | 55 | 312 | 6.1 | 10.4 | 0.00 | 0.00 | 0.00 | 97 | 1009.3 |
| 20260507024236 | 55 | 313 | 7.0 | 11.3 | 0.00 | 0.00 | 0.00 | 97 | 1009.3 |
| 20260507024135 | 55 | 69 | 7.8 | 11.3 | 0.00 | 0.00 | 0.00 | 97 | 1009.3 |
| 20260507024033 | 55 | 130 | 6.1 | 11.3 | 0.00 | 0.00 | 0.00 | 97 | 1009.3 |
| 20260507023932 | 56 | 217 | 7.8 | 11.3 | 0.00 | 0.00 | 0.00 | 97 | 1009.3 |